[[{"header":{"parameterUnit":"m.s-1","parameterCategory":1,"la1":30.6,"la2":28.766,"lo1":-90.7593,"lo2":-88.6598,"dy":0.0162,"dx":0.0183,"nx":116,"ny":114,"refTime":"2023-08-19T06:00:00:Z","depth":0,"parameterNumber":2,"parameterNumberName":"U-component_of_WINDS"},"data":[0.0,0.0,0.0,0.0,0.0,0.0,0.0,0.0,0.0,0.0,0.0,0.0,0.0,0.0,0.0,0.0,0.0,0.0,0.0,0.0,0.0,0.0,0.0,0.0,0.0,0.0,0.0,0.0,0.0,0.0,0.0,0.0,0.0,0.0,0.0,0.0,0.0,0.0,0.0,0.0,0.0,0.0,0.0,0.0,0.0,0.0,0.0,0.0,0.0,0.0,0.0,0.0,0.0,0.0,0.0,0.0,0.0,0.0,0.0,0.0,0.0,0.0,0.0,0.0,0.0,0.0,0.0,0.0,0.0,0.0,0.0,0.0,0.0,0.0,0.0,0.0,0.0,0.0,0.0,0.0,0.0,0.0,0.0,0.0,0.0,0.0,0.0,0.0,0.0,0.0,0.0,0.0,0.0,0.0,0.0,0.0,0.0,0.0,0.0,0.0,0.0,0.0,0.0,0.0,0.0,0.0,0.0,0.0,0.0,0.0,0.0,0.0,0.0,0.0,0.0,0.0,0.0,0.0,0.0,0.0,0.0,0.0,0.0,0.0,0.0,0.0,0.0,0.0,0.0,0.0,0.0,0.0,0.0,0.0,0.0,0.0,0.0,0.0,0.0,0.0,0.0,0.0,0.0,0.0,0.0,0.0,0.0,0.0,0.0,0.0,0.0,0.0,0.0,0.0,0.0,0.0,0.0,0.0,0.0,0.0,0.0,0.0,0.0,0.0,0.0,0.0,0.0,0.0,0.0,0.0,0.0,0.0,0.0,0.0,0.0,0.0,0.0,0.0,0.0,0.0,0.0,0.0,0.0,0.0,0.0,0.0,0.0,0.0,0.0,0.0,0.0,0.0,0.0,0.0,0.0,0.0,0.0,0.0,0.0,0.0,0.0,0.0,0.0,0.0,0.0,0.0,0.0,0.0,0.0,0.0,0.0,0.0,0.0,0.0,0.0,0.0,0.0,0.0,0.0,0.0,0.0,0.0,0.0,0.0,0.0,0.0,0.0,0.0,0.0,0.0,0.0,0.0,0.0,0.0,0.0,0.0,0.0,0.0,0.0,0.0,0.0,0.0,0.0,0.0,0.0,0.0,0.0,0.0,0.0,0.0,0.0,0.0,0.0,0.0,0.0,0.0,0.0,0.0,0.0,0.0,0.0,0.0,0.0,0.0,0.0,0.0,0.0,0.0,0.0,0.0,0.0,0.0,0.0,0.0,0.0,0.0,0.0,0.0,0.0,0.0,0.0,0.0,0.0,0.0,0.0,0.0,0.0,0.0,0.0,0.0,0.0,0.0,0.0,0.0,0.0,0.0,0.0,0.0,0.0,0.0,0.0,0.0,0.0,0.0,0.0,0.0,0.0,0.0,0.0,0.0,0.0,0.0,0.0,0.0,0.0,0.0,0.0,0.0,0.0,0.0,0.0,0.0,0.0,0.0,0.0,0.0,0.0,0.0,0.0,0.0,0.0,0.0,0.0,0.0,0.0,0.0,0.0,0.0,0.0,0.0,0.0,0.0,0.0,0.0,0.0,0.0,0.0,0.0,0.0,0.0,0.0,0.0,0.0,0.0,0.0,0.0,0.0,0.0,0.0,0.0,0.0,0.0,0.0,0.0,0.0,0.0,0.0,0.0,0.0,0.0,0.0,0.0,0.0,0.0,0.0,0.0,0.0,0.0,0.0,0.0,0.0,0.0,0.0,0.0,0.0,0.0,0.0,0.0,0.0,0.0,0.0,0.0,0.0,0.0,0.0,0.0,0.0,0.0,0.0,0.0,0.0,0.0,0.0,0.0,0.0,0.0,0.0,0.0,0.0,0.0,0.0,0.0,0.0,0.0,0.0,0.0,0.0,0.0,0.0,0.0,0.0,0.0,0.0,0.0,0.0,0.0,0.0,0.0,0.0,0.0,0.0,0.0,0.0,0.0,0.0,0.0,0.0,0.0,0.0,0.0,0.0,0.0,0.0,0.0,0.0,0.0,0.0,0.0,0.0,0.0,0.0,0.0,0.0,0.0,0.0,0.0,0.0,0.0,0.0,0.0,0.0,0.0,0.0,0.0,0.0,0.0,0.0,0.0,0.0,0.0,0.0,0.0,0.0,0.0,0.0,0.0,0.0,0.0,0.0,0.0,0.0,0.0,0.0,0.0,0.0,0.0,0.0,0.0,0.0,0.0,0.0,0.0,0.0,0.0,0.0,0.0,0.0,0.0,0.0,0.0,0.0,0.0,0.0,0.0,0.0,0.0,0.0,0.0,0.0,0.0,0.0,0.0,0.0,0.0,0.0,0.0,0.0,0.0,0.0,0.0,0.0,0.0,0.0,0.0,0.0,0.0,0.0,0.0,0.0,0.0,0.0,0.0,0.0,0.0,0.0,0.0,0.0,0.0,0.0,0.0,0.0,0.0,0.0,0.0,0.0,0.0,0.0,0.0,0.0,0.0,0.0,0.0,0.0,0.0,0.0,0.0,0.0,0.0,0.0,0.0,0.0,0.0,0.0,0.0,0.0,0.0,0.0,0.0,0.0,0.0,0.0,0.0,0.0,0.0,0.0,0.0,0.0,0.0,0.0,0.0,0.0,0.0,0.0,0.0,0.0,0.0,0.0,0.0,0.0,0.0,0.0,0.0,0.0,0.0,0.0,0.0,0.0,0.0,0.0,0.0,0.0,0.0,0.0,0.0,0.0,0.0,0.0,0.0,0.0,0.0,0.0,0.0,0.0,0.0,0.0,0.0,0.0,0.0,0.0,0.0,0.0,0.0,0.0,0.0,0.0,0.0,0.0,0.0,0.0,0.0,0.0,0.0,0.0,0.0,0.0,0.0,0.0,0.0,0.0,0.0,0.0,0.0,0.0,0.0,0.0,0.0,0.0,0.0,0.0,0.0,0.0,0.0,0.0,0.0,0.0,0.0,0.0,0.0,0.0,0.0,0.0,0.0,0.0,0.0,0.0,0.0,0.0,0.0,0.0,0.0,0.0,0.0,0.0,0.0,0.0,0.0,0.0,0.0,0.0,0.0,0.0,0.0,0.0,0.0,0.0,0.0,0.0,0.0,0.0,0.0,0.0,0.0,0.0,0.0,0.0,0.0,0.0,0.0,0.0,0.0,0.0,0.0,0.0,0.0,0.0,0.0,0.0,0.0,0.0,0.0,0.0,0.0,0.0,0.0,0.0,0.0,0.0,0.0,0.0,0.0,0.0,0.0,0.0,0.0,0.0,0.0,0.0,0.0,0.0,0.0,0.0,0.0,0.0,0.0,0.0,0.0,0.0,0.0,0.0,0.0,0.0,0.0,0.0,0.0,0.0,0.0,0.0,0.0,0.0,0.0,0.0,0.0,0.0,0.0,0.0,0.0,0.0,0.0,0.0,0.0,0.0,0.0,0.0,0.0,0.0,0.0,0.0,0.0,0.0,0.0,0.0,0.0,0.0,0.0,0.0,0.0,0.0,0.0,0.0,0.0,0.0,0.0,0.0,0.0,0.0,0.0,0.0,0.0,0.0,0.0,0.0,0.0,0.0,0.0,0.0,0.0,0.0,0.0,0.0,0.0,0.0,0.0,0.0,0.0,0.0,0.0,0.0,0.0,0.0,0.0,0.0,0.0,0.0,0.0,0.0,0.0,0.0,0.0,0.0,0.0,0.0,0.0,0.0,0.0,0.0,0.0,0.0,0.0,0.0,0.0,0.0,0.0,0.0,0.0,0.0,0.0,0.0,0.0,0.0,0.0,0.0,0.0,0.0,0.0,0.0,0.0,0.0,0.0,0.0,0.0,0.0,0.0,0.0,0.0,0.0,0.0,0.0,0.0,0.0,0.0,0.0,0.0,0.0,0.0,0.0,0.0,0.0,0.0,0.0,0.0,0.0,0.0,0.0,0.0,0.0,0.0,0.0,0.0,0.0,0.0,0.0,0.0,0.0,0.0,0.0,0.0,0.0,0.0,0.0,0.0,0.0,0.0,0.0,0.0,0.0,0.0,0.0,0.0,0.0,0.0,0.0,0.0,0.0,0.0,0.0,0.0,0.0,0.0,0.0,0.0,0.0,0.0,0.0,0.0,0.0,0.0,0.0,0.0,0.0,0.0,0.0,0.0,0.0,0.0,0.0,0.0,0.0,0.0,0.0,0.0,0.0,0.0,0.0,0.0,0.0,0.0,0.0,0.0,0.0,0.0,0.0,0.0,0.0,0.0,0.0,0.0,0.0,0.0,0.0,0.0,0.0,0.0,0.0,0.0,0.0,0.0,0.0,0.0,0.0,0.0,0.0,0.0,0.0,0.0,0.0,0.0,0.0,0.0,0.0,0.0,0.0,0.0,0.0,0.0,0.0,0.0,0.0,0.0,0.0,0.0,0.0,0.0,0.0,0.0,0.0,0.0,0.0,0.0,0.0,0.0,0.0,0.0,0.0,0.0,0.0,0.0,0.0,0.0,0.0,0.0,0.0,0.0,0.0,0.0,0.0,0.0,0.0,0.0,0.0,0.0,0.0,0.0,0.0,0.0,0.0,0.0,0.0,0.0,0.0,0.0,0.0,0.0,0.0,0.0,0.0,0.0,0.0,0.0,0.0,0.0,0.0,0.0,0.0,0.0,0.0,0.0,0.0,0.0,0.0,0.0,0.0,0.0,0.0,0.0,0.0,0.0,0.0,0.0,0.0,0.0,0.0,0.0,0.0,0.0,0.0,0.0,0.0,0.0,0.0,0.0,0.0,0.0,0.0,0.0,0.0,0.0,0.0,0.0,0.0,0.0,0.0,0.0,0.0,0.0,0.0,0.0,0.0,0.0,0.0,0.0,0.0,0.0,0.0,0.0,0.0,0.0,0.0,0.0,0.0,0.0,0.0,0.0,0.0,0.0,0.0,0.0,0.0,0.0,0.0,0.0,0.0,0.0,0.0,0.0,0.0,0.0,0.0,0.0,0.0,0.0,0.0,0.0,0.0,0.0,0.0,0.0,0.0,0.0,0.0,0.0,0.0,0.0,0.0,0.0,0.0,0.0,0.0,0.0,0.0,0.0,0.0,0.0,0.0,0.0,0.0,0.0,0.0,0.0,0.0,0.0,0.0,0.0,0.0,0.0,0.0,0.0,0.0,0.0,0.0,0.0,0.0,0.0,0.0,0.0,0.0,0.0,0.0,0.0,0.0,0.0,0.0,0.0,0.0,0.0,0.0,0.0,0.0,0.0,0.0,0.0,0.0,0.0,0.0,0.0,0.0,0.0,0.0,0.0,0.0,0.0,0.0,0.0,0.0,0.0,0.0,0.0,0.0,0.0,0.0,0.0,0.0,0.0,0.0,0.0,0.0,0.0,0.0,0.0,0.0,0.0,0.0,0.0,0.0,0.0,0.0,0.0,0.0,0.0,0.0,0.0,0.0,0.0,0.0,0.0,0.0,0.0,0.0,0.0,0.0,0.0,0.0,0.0,0.0,0.0,0.0,0.0,0.0,0.0,0.0,0.0,0.0,0.0,0.0,0.0,0.0,0.0,0.0,0.0,0.0,0.0,0.0,0.0,0.0,0.0,0.0,0.0,0.0,0.0,0.0,0.0,0.0,0.0,0.0,0.0,0.0,0.0,0.0,0.0,0.0,0.0,0.0,0.0,0.0,0.0,0.0,0.0,0.0,0.0,0.0,0.0,0.0,0.0,0.0,0.0,0.0,0.0,0.0,0.0,0.0,0.0,0.0,0.0,0.0,0.0,0.0,0.0,0.0,0.0,0.0,0.0,0.0,0.0,0.0,0.0,0.0,0.0,0.0,0.0,0.0,0.0,0.0,0.0,0.0,0.0,0.0,0.0,0.0,0.0,0.0,0.0,0.0,0.0,0.0,0.0,0.0,0.0,0.0,0.0,0.0,0.0,0.0,0.0,0.0,0.0,0.0,0.0,0.0,0.0,0.0,0.0,0.0,0.0,0.0,0.0,0.0,0.0,0.0,0.0,0.0,0.0,0.0,0.0,0.0,0.0,0.0,0.0,0.0,0.0,0.0,0.0,0.0,0.0,0.0,0.0,0.0,0.0,0.0,0.0,0.0,0.0,0.0,0.0,0.0,0.0,0.0,0.0,0.0,0.0,0.0,0.0,0.0,0.0,0.0,0.0,0.0,0.0,0.0,0.0,0.0,0.0,-3.8216,0.0,0.0,0.0,0.0,0.0,0.0,0.0,0.0,0.0,0.0,0.0,0.0,0.0,0.0,0.0,0.0,0.0,0.0,0.0,0.0,0.0,0.0,0.0,0.0,0.0,0.0,0.0,0.0,0.0,0.0,0.0,0.0,0.0,0.0,0.0,0.0,0.0,0.0,0.0,0.0,0.0,0.0,0.0,0.0,0.0,0.0,0.0,0.0,0.0,0.0,0.0,0.0,0.0,0.0,0.0,0.0,0.0,0.0,0.0,0.0,0.0,0.0,0.0,0.0,0.0,0.0,0.0,0.0,0.0,0.0,0.0,0.0,0.0,0.0,0.0,0.0,0.0,0.0,0.0,0.0,0.0,0.0,0.0,0.0,0.0,0.0,0.0,0.0,0.0,0.0,0.0,0.0,0.0,0.0,0.0,0.0,0.0,0.0,0.0,0.0,0.0,0.0,0.0,0.0,0.0,0.0,0.0,0.0,0.0,0.0,0.0,0.0,0.0,0.0,0.0,0.0,-3.8646,0.0,0.0,0.0,0.0,0.0,0.0,0.0,0.0,0.0,0.0,0.0,0.0,0.0,0.0,0.0,0.0,0.0,0.0,0.0,0.0,0.0,0.0,0.0,0.0,0.0,0.0,0.0,0.0,0.0,0.0,0.0,0.0,0.0,0.0,0.0,0.0,0.0,0.0,0.0,0.0,0.0,0.0,0.0,0.0,0.0,0.0,0.0,0.0,0.0,0.0,0.0,0.0,0.0,0.0,0.0,0.0,0.0,0.0,0.0,0.0,0.0,0.0,0.0,0.0,0.0,0.0,0.0,0.0,0.0,0.0,0.0,0.0,0.0,0.0,0.0,0.0,0.0,0.0,0.0,0.0,0.0,0.0,0.0,0.0,0.0,0.0,0.0,0.0,0.0,0.0,0.0,0.0,0.0,0.0,0.0,0.0,0.0,0.0,0.0,0.0,0.0,0.0,0.0,0.0,0.0,0.0,0.0,0.0,-4.3571,-4.4122,-4.4133,-4.4411,-4.4314,-4.3939,-4.196,-4.1192,-4.1241,-3.8769,0.0,0.0,0.0,0.0,0.0,0.0,0.0,0.0,0.0,0.0,0.0,0.0,0.0,0.0,0.0,0.0,0.0,0.0,0.0,0.0,0.0,0.0,0.0,0.0,0.0,0.0,0.0,0.0,0.0,0.0,0.0,0.0,0.0,0.0,0.0,0.0,0.0,0.0,-3.8028,-3.8266,-3.8318,-3.8192,-3.8491,0.0,0.0,0.0,0.0,0.0,0.0,0.0,0.0,0.0,0.0,0.0,0.0,0.0,0.0,0.0,0.0,0.0,0.0,0.0,0.0,0.0,0.0,0.0,0.0,0.0,0.0,0.0,0.0,0.0,0.0,0.0,0.0,0.0,0.0,0.0,0.0,0.0,0.0,0.0,0.0,0.0,0.0,0.0,-3.4656,-3.6147,0.0,0.0,0.0,0.0,0.0,0.0,0.0,0.0,0.0,0.0,0.0,0.0,0.0,-4.0963,-4.1458,-4.4032,-4.4311,-4.2288,-4.5816,-4.6025,-4.3407,-4.4729,-4.4925,-4.4157,-4.3823,0.0,-4.143,-3.9797,0.0,0.0,0.0,0.0,0.0,0.0,0.0,0.0,0.0,0.0,0.0,0.0,0.0,0.0,0.0,0.0,0.0,0.0,0.0,0.0,0.0,0.0,0.0,0.0,0.0,0.0,0.0,0.0,0.0,0.0,0.0,0.0,0.0,0.0,0.0,0.0,-3.6323,-3.8005,-3.8306,-3.9625,-3.9891,-3.932,-3.9538,-3.9051,-3.8007,-3.7246,0.0,0.0,0.0,0.0,0.0,0.0,0.0,0.0,0.0,0.0,0.0,0.0,0.0,0.0,0.0,0.0,0.0,0.0,0.0,0.0,0.0,0.0,0.0,0.0,0.0,0.0,0.0,0.0,0.0,0.0,0.0,0.0,0.0,0.0,0.0,0.0,0.0,0.0,0.0,-3.3337,-3.5437,-3.5961,-3.6508,-3.6196,0.0,0.0,0.0,0.0,0.0,0.0,0.0,0.0,0.0,-4.1422,-4.2085,-4.2932,-4.398,-4.5268,-4.5601,-4.4914,-4.664,-4.6723,-4.5398,-4.6072,-4.6082,-4.561,-4.561,-4.4712,-4.3115,-4.0935,-3.9494,-3.854,0.0,0.0,0.0,0.0,-3.5311,-3.4846,0.0,0.0,0.0,0.0,0.0,0.0,0.0,0.0,0.0,0.0,0.0,0.0,0.0,0.0,0.0,-3.0575,0.0,0.0,0.0,0.0,0.0,0.0,0.0,0.0,0.0,0.0,0.0,0.0,-3.7411,-3.8722,-3.8421,-4.0068,-4.0314,-3.93,-3.9633,-3.9184,-3.8155,-3.7537,-3.6275,0.0,0.0,0.0,0.0,0.0,0.0,0.0,0.0,0.0,0.0,0.0,0.0,0.0,0.0,0.0,0.0,0.0,0.0,0.0,0.0,0.0,0.0,0.0,0.0,0.0,0.0,0.0,0.0,0.0,0.0,0.0,0.0,0.0,0.0,0.0,0.0,0.0,0.0,-3.4684,-3.6381,-3.6058,-3.7504,-3.7469,0.0,0.0,0.0,0.0,0.0,0.0,-3.9975,-4.0701,-4.1781,-4.3128,-4.3701,-4.4519,-4.5605,-4.5894,-4.6081,-4.6194,-4.6564,-4.6508,-4.6083,-4.6297,-4.6111,-4.5526,-4.5526,-4.4804,-4.3395,-4.1497,-4.0142,-3.9065,-3.6943,-3.606,-3.6016,-3.6461,-3.5933,-3.52,0.0,0.0,0.0,0.0,0.0,0.0,0.0,0.0,0.0,0.0,0.0,0.0,0.0,0.0,-2.805,-3.0228,-2.9266,-2.8357,0.0,0.0,0.0,0.0,0.0,0.0,0.0,0.0,0.0,-3.5985,-3.7117,-3.7701,-3.7734,-3.8298,-3.7998,-3.7109,-3.7538,-3.8425,-3.9359,-3.718,-3.5897,-3.5172,0.0,0.0,0.0,0.0,0.0,0.0,0.0,0.0,0.0,0.0,0.0,0.0,0.0,0.0,0.0,0.0,0.0,0.0,0.0,0.0,0.0,0.0,0.0,0.0,0.0,0.0,0.0,0.0,0.0,0.0,0.0,0.0,0.0,0.0,0.0,0.0,0.0,0.0,0.0,-3.703,-3.9194,0.0,0.0,0.0,0.0,-3.6871,-3.9898,-4.1902,-4.2205,-4.3141,-4.4018,-4.4941,-4.5257,-4.5309,-4.5126,-4.6234,-4.5805,-4.3967,-4.5396,-4.5054,-4.3209,-4.4077,-4.369,-4.2402,-4.2402,-4.1771,-4.0763,-4.1177,-4.1116,-4.0518,-3.7817,-3.6731,-3.6731,-3.6784,-3.5936,-3.4821,0.0,0.0,0.0,0.0,0.0,0.0,0.0,0.0,0.0,0.0,0.0,0.0,0.0,-2.7767,-2.8697,-2.9809,-2.9656,-2.9219,-2.8516,0.0,0.0,0.0,0.0,0.0,0.0,0.0,-3.1717,-3.3628,-3.5408,-3.6387,-3.6662,-3.7622,-3.7665,-3.6943,-3.7127,-3.7286,-3.7407,-3.7254,-3.675,-3.5911,-3.4502,-3.286,0.0,0.0,0.0,0.0,0.0,0.0,0.0,0.0,0.0,0.0,0.0,0.0,0.0,0.0,0.0,0.0,0.0,0.0,0.0,0.0,0.0,0.0,0.0,0.0,0.0,0.0,0.0,0.0,0.0,0.0,0.0,0.0,0.0,0.0,0.0,0.0,0.0,-3.848,-4.0508,0.0,-3.795,-3.891,-3.9547,-3.918,-4.1269,-4.2969,-4.383,-4.4219,-4.4565,-4.5118,-4.5209,-4.5081,-4.4792,-4.5196,-4.4859,-4.379,-4.4356,-4.3873,-4.2514,-4.2826,-4.2443,-4.163,-4.163,-4.1204,-4.0501,-4.0744,-4.0363,-3.9481,-3.8092,-3.7362,-3.7032,-3.7032,-3.6742,-3.6332,0.0,0.0,0.0,0.0,0.0,0.0,0.0,0.0,0.0,0.0,0.0,-2.4571,-2.6035,-2.7229,-2.8052,-2.8539,-2.8821,-2.8502,-2.745,0.0,0.0,0.0,0.0,0.0,0.0,-2.8795,-2.9871,-3.1074,-3.3205,-3.4261,-3.437,-3.5917,-3.6315,-3.5791,-3.5947,-3.6061,-3.616,-3.6694,-3.6573,-3.5985,-3.4615,-3.3529,-3.2483,0.0,0.0,0.0,0.0,0.0,0.0,0.0,0.0,0.0,0.0,0.0,0.0,0.0,0.0,0.0,0.0,0.0,0.0,0.0,0.0,0.0,0.0,0.0,0.0,0.0,0.0,0.0,0.0,0.0,0.0,0.0,0.0,0.0,0.0,0.0,-4.0091,-3.9097,-4.1286,-4.1875,-3.9371,-4.0669,-4.1639,-4.1435,-4.3099,-4.4433,-4.5201,-4.5374,-4.5482,-4.5664,-4.5547,-4.5296,-4.492,-4.4543,-4.4166,-4.379,-4.3413,-4.2861,-4.2213,-4.2213,-4.1756,-4.1,-4.1,-4.0752,-4.0249,-4.0249,-3.9798,-3.9094,-3.8517,-3.809,-3.7739,-3.7538,-3.7462,-3.7437,0.0,0.0,0.0,0.0,0.0,0.0,0.0,0.0,0.0,0.0,-2.1536,-2.2621,-2.4466,-2.5395,-2.6069,-2.6464,-2.6481,-2.5829,-2.439,-2.3855,0.0,0.0,0.0,0.0,-2.5203,-2.6319,-2.7421,-2.8559,-3.0607,-3.1334,-3.093,-3.3012,-3.3723,-3.3289,-3.3824,-3.4719,-3.5845,-3.525,-3.5224,-3.5246,-3.3149,-3.3197,-3.4275,0.0,0.0,0.0,0.0,0.0,0.0,0.0,0.0,0.0,0.0,0.0,0.0,0.0,0.0,0.0,0.0,0.0,0.0,0.0,0.0,0.0,0.0,0.0,0.0,0.0,0.0,0.0,0.0,0.0,0.0,0.0,0.0,0.0,-3.6593,-3.8897,-4.0133,-3.8983,-4.1559,-4.2595,-4.0335,-4.2721,-4.4091,-4.3508,-4.5317,-4.6378,-4.6378,-4.662,-4.6806,-4.678,-4.6456,-4.5999,-4.5447,-4.4342,-4.3765,-4.374,-4.2715,-4.2187,-4.2162,-4.2162,-4.153,-4.0501,-4.0501,-4.0199,-3.9697,-3.9697,-3.9697,-3.9647,-3.9145,-3.8894,-3.8844,-3.8241,-3.8015,-3.7914,0.0,0.0,0.0,0.0,0.0,0.0,0.0,0.0,0.0,0.0,-2.1312,-2.3046,-2.4242,-2.5053,-2.5778,-2.6405,-2.5496,-2.4794,-2.4734,0.0,0.0,0.0,0.0,0.0,-2.5703,-2.6248,-2.696,-2.7807,-2.8396,-2.8535,-2.8432,-3.041,-3.1151,-3.0873,-3.2411,-3.3272,-3.3597,-3.3413,-3.3935,-3.4715,-3.4123,-3.3488,-3.2745,0.0,0.0,0.0,0.0,0.0,0.0,0.0,0.0,0.0,0.0,0.0,0.0,0.0,0.0,0.0,0.0,0.0,0.0,0.0,0.0,0.0,0.0,0.0,0.0,0.0,0.0,0.0,0.0,0.0,0.0,0.0,0.0,-3.6751,-3.7964,-4.0542,-4.2255,-4.209,-4.3584,-4.4282,-4.3425,-4.4457,-4.5087,-4.4911,-4.5834,-4.6314,-4.6314,-4.6405,-4.6245,-4.5842,-4.5355,-4.4819,-4.4267,-4.3564,-4.3011,-4.2665,-4.2363,-4.1785,-4.0978,-4.0978,-4.0576,-3.9923,-3.9923,-3.9848,-3.9697,-3.9697,-3.9697,-3.9672,-3.9521,-3.922,-3.8894,-3.8693,-3.8016,-3.6922,0.0,0.0,0.0,0.0,0.0,0.0,0.0,0.0,0.0,0.0,-1.9862,-2.1311,-2.2276,-2.2944,-2.3468,-2.4023,-2.3308,-2.2704,-2.2581,0.0,0.0,0.0,0.0,-2.3304,-2.4134,-2.4504,-2.4903,-2.544,-2.5997,-2.627,-2.6282,-2.8191,-2.9158,-2.924,-3.0567,-3.1247,-3.1536,-3.1536,-3.217,-3.317,-3.3155,-3.3466,-3.3686,-3.2,-3.1398,-3.1426,-3.102,-3.1295,-3.1784,-3.1233,0.0,0.0,0.0,0.0,0.0,0.0,0.0,0.0,0.0,0.0,0.0,0.0,0.0,0.0,0.0,0.0,0.0,0.0,0.0,0.0,0.0,0.0,0.0,0.0,-3.4979,-3.702,-3.8348,-4.1143,-4.3229,-4.3815,-4.4269,-4.4641,-4.4945,-4.5296,-4.5573,-4.5824,-4.6125,-4.6301,-4.6301,-4.61,-4.5824,-4.5497,-4.492,-4.4367,-4.3815,-4.3037,-4.2539,-4.2213,-4.1735,-4.1128,-4.0526,-4.0526,-4.0224,-3.9697,-3.9697,-3.9697,-3.9645,-3.9154,-3.8921,0.0,0.0,0.0,0.0,0.0,-3.7593,-3.6186,0.0,0.0,0.0,0.0,0.0,0.0,0.0,0.0,0.0,0.0,0.0,-1.8385,-1.9375,-1.9832,-2.0185,-2.0558,-2.0616,-2.0242,0.0,0.0,0.0,-1.975,-2.0679,-2.1307,-2.1569,-2.1949,-2.2315,-2.2579,-2.3751,-2.4327,-2.4295,-2.6207,-2.7374,-2.7955,-2.8469,-2.9083,-2.9749,-2.9747,-3.0295,-3.1169,-3.1169,-3.2979,-3.5423,-3.2459,-3.2273,-3.3231,-3.1833,-3.1356,-3.1405,-3.1009,0.0,0.0,0.0,0.0,0.0,0.0,0.0,0.0,0.0,0.0,0.0,0.0,0.0,0.0,0.0,0.0,0.0,0.0,0.0,0.0,0.0,0.0,0.0,0.0,-3.5604,-3.7065,-3.8192,-4.0836,-4.3024,-4.4161,-4.3811,-4.3994,-4.5372,-4.5422,-4.5623,-4.6175,-4.6225,-4.6175,-4.6125,0.0,0.0,0.0,0.0,-4.4292,-4.3815,-4.2766,-4.2187,-4.2112,-4.1003,-4.037,-4.019,-4.019,-3.9887,-3.931,-3.931,-3.931,-3.9206,-3.8161,-3.7636,-3.7695,-3.877,-3.8887,-3.839,-3.7717,-3.6577,-3.5296,0.0,0.0,0.0,0.0,0.0,0.0,0.0,0.0,0.0,-1.4044,-1.4856,-1.5971,-1.7576,-1.8142,-1.8808,-1.9977,-1.9793,-1.964,0.0,0.0,-1.9337,-1.9389,-2.0572,-2.1003,-2.0586,-2.1651,-2.2213,-2.2271,-2.2557,-2.2498,-2.2302,-2.4236,-2.5094,-2.5016,-2.6842,-2.8056,-2.8695,-2.8969,-2.9512,-3.0177,0.0,0.0,-3.272,-3.2086,-3.1847,-3.1836,-3.1924,-3.2529,-3.3223,-3.265,-3.2673,-3.2746,-3.1424,0.0,0.0,0.0,0.0,0.0,0.0,0.0,0.0,0.0,0.0,0.0,0.0,0.0,0.0,0.0,0.0,0.0,0.0,0.0,0.0,-3.2706,-3.4796,-3.6684,-3.8055,-3.9304,-4.0703,-4.2258,-4.1929,-4.2625,-4.5262,-4.507,-4.502,-4.5598,-4.5648,-4.5447,-4.497,-4.4844,-4.4794,-4.4794,-4.4242,-4.3915,-4.379,-4.2766,-4.1932,-4.148,0.0,0.0,-3.8412,-3.8412,-3.7809,-3.6911,-3.6911,-3.6911,-3.6834,-3.6619,-3.6171,-3.5695,-3.6174,-3.6004,-3.5489,-3.4718,-3.4106,-3.3458,0.0,0.0,0.0,0.0,0.0,0.0,0.0,0.0,0.0,0.0,-1.3906,-1.4641,-1.5678,-1.5928,-1.6447,-1.7482,-1.7339,0.0,0.0,-1.746,-1.7559,-1.8205,-1.8892,-1.9407,-1.9582,-2.0069,-2.0625,-2.1268,-2.1053,-2.1145,-2.1467,-2.2638,-2.3286,-2.3652,-2.493,-2.6168,-2.7285,-2.7417,-2.8164,0.0,0.0,0.0,-3.0727,-3.1402,-3.1835,-3.2079,-3.2306,-3.2793,-3.3159,-3.2631,-3.2466,-3.2367,-3.1338,-3.0556,-2.9688,0.0,0.0,0.0,0.0,0.0,0.0,0.0,0.0,0.0,0.0,0.0,0.0,0.0,0.0,-2.8897,0.0,0.0,-3.1816,-3.3182,-3.4728,-3.5908,-3.6438,-3.705,-3.8468,-4.1382,-4.0846,-4.1082,-4.3313,-4.3216,-4.3372,-4.4077,-4.3759,-4.3542,-4.3684,-4.3389,-4.2949,-4.2338,-4.2412,-4.2021,-4.1157,-4.0363,-3.9688,-3.9159,-3.8575,-3.7923,-3.7073,-3.7073,-3.6673,-3.5945,-3.6131,-3.6022,-3.5672,-3.4878,-3.3978,-3.3059,-3.275,-3.3201,-3.3925,-3.3198,-3.2508,-3.1818,0.0,0.0,0.0,0.0,0.0,0.0,0.0,0.0,0.0,0.0,0.0,-1.3435,-1.3773,-1.3826,-1.4212,0.0,0.0,0.0,0.0,-1.5444,-1.5761,-1.6751,-1.7079,-1.7539,-1.8304,-1.8269,-1.8784,-1.9915,-1.9685,-1.9952,-2.0729,-2.1044,-2.1641,-2.2542,-2.2871,-2.3946,-2.5505,-2.557,-2.6547,0.0,0.0,0.0,-2.9124,-3.0219,-3.1224,-3.2011,-3.2011,-3.2064,-3.2133,-3.1845,-3.1567,-3.1298,-3.0822,-3.0243,-2.9394,-2.7841,-2.7634,0.0,0.0,0.0,0.0,0.0,0.0,0.0,0.0,0.0,-2.7994,-2.8483,-2.9332,-3.0346,-3.1547,-3.2437,-3.3285,-3.4176,-3.4941,-3.5293,-3.4941,-3.5128,-3.6597,-4.0056,-3.9598,-3.9588,-4.123,-4.1276,-4.1545,-4.2353,-4.1681,-4.1498,-4.221,-4.1661,-4.0905,-3.9896,-4.0328,-3.9915,-3.8516,-3.7862,-3.7356,-3.6999,-3.6493,-3.6077,-3.5859,-3.5859,-3.5585,-3.5068,-3.5256,-3.5024,-3.4472,-3.3138,-3.189,-3.081,-3.0133,-3.093,-3.2433,-3.179,-3.103,-3.0307,0.0,0.0,0.0,0.0,0.0,0.0,0.0,0.0,0.0,0.0,0.0,0.0,0.0,0.0,0.0,0.0,0.0,0.0,-1.5479,-1.5378,-1.5306,-1.5359,-1.6138,-1.6503,-1.6324,-1.7114,-1.7864,-1.8615,-1.8577,-1.8705,-1.9081,-1.912,-1.9622,-2.0552,-2.0796,-2.1853,-2.3469,-2.3762,0.0,0.0,0.0,0.0,-2.8101,-2.8195,-2.8872,-2.97,-2.97,-2.9906,-3.025,-3.0625,-3.1045,-3.1298,-3.0822,-3.0905,-3.0719,-2.8504,0.0,-2.7462,-2.5623,-2.523,-2.5809,-2.7821,-2.7738,-2.7869,0.0,0.0,-2.9932,-3.0822,-3.1712,-3.252,-3.3058,-3.3575,-3.4217,-3.5128,-3.5355,-3.5397,-3.5355,-3.5045,-3.5313,-3.6562,-3.7191,-3.843,-4.0747,-4.0448,-4.0356,-4.0907,-4.0462,-4.0172,-4.0186,-3.9762,-3.9426,-3.9308,-3.8977,-3.8701,-3.8516,-3.755,-3.7045,-3.6999,-3.6493,-3.5663,-3.4692,-3.4692,-3.3966,-3.2685,-3.2399,-3.2174,-3.1993,-3.1623,-3.096,-3.0135,-3.0167,-3.0105,-2.9928,-2.9327,-2.9026,-2.8867,0.0,0.0,0.0,0.0,0.0,0.0,0.0,0.0,0.0,0.0,0.0,0.0,0.0,0.0,0.0,0.0,0.0,0.0,-1.2984,-1.3039,-1.3398,-1.4005,-1.4453,-1.4699,-1.4761,-1.5732,-1.6518,-1.7197,-1.7721,-1.8261,-1.8775,-1.8927,-1.9274,-1.9868,-2.0094,-2.1142,-2.2818,-2.3095,0.0,0.0,0.0,0.0,-2.6731,-2.6731,-2.6681,-2.6837,-2.8183,-2.878,0.0,0.0,-2.9707,-2.9924,-3.024,-3.0036,-2.9518,-2.8297,-2.7738,0.0,-2.662,-2.6806,-2.7427,-2.838,-2.8938,-2.9559,-3.0719,-3.0884,-3.0988,-3.1629,-3.2271,-3.2954,-3.3658,-3.3986,-3.4339,0.0,-3.5252,-3.5335,-3.5066,-3.5107,-3.519,-3.5314,-3.5848,-3.6697,-3.796,-3.7851,-3.8008,-3.8691,-3.8108,-3.792,-3.8341,-3.8201,-3.773,-3.7028,-3.7266,-3.6927,-3.596,-3.523,-3.4753,-3.4493,-3.4298,-3.3931,-3.3445,-3.331,-3.2742,-3.196,-3.1518,-3.1341,-3.1371,-3.0633,-3.0366,-3.0464,-2.9744,-2.9492,-2.9548,-2.8996,-2.8834,-2.8756,0.0,0.0,0.0,0.0,0.0,0.0,0.0,0.0,0.0,0.0,0.0,0.0,0.0,0.0,0.0,0.0,0.0,0.0,0.0,-1.0628,-1.1152,-1.1993,-1.237,-1.2665,-1.2819,-1.4275,-1.5216,-1.5584,-1.6758,-1.7664,-1.8216,-1.8337,-1.8716,-1.9162,-1.936,-2.032,-2.1777,-2.2202,0.0,0.0,0.0,0.0,-2.5635,-2.5707,-2.5258,-2.472,-2.6464,-2.7101,0.0,0.0,-2.7767,-2.8009,-2.8479,-2.8381,-2.7884,-2.7267,-2.6782,-2.6526,-2.703,-2.7631,-2.8275,-2.8847,-2.9953,-3.0905,-3.1029,-3.1422,-3.1836,-3.2112,-3.2602,-3.3099,-3.3762,-3.4152,-3.4463,-3.4859,-3.5418,-3.5645,-3.519,-3.5293,-3.5293,-3.4983,-3.49,-3.5148,-3.5852,-3.5914,-3.6185,-3.6939,-3.6289,-3.6185,-3.6918,-3.685,-3.6295,-3.5231,-3.5682,-3.5274,-3.3945,-3.343,-3.3037,-3.2669,-3.2612,-3.2612,-3.2555,-3.219,-3.196,-3.1787,-3.117,-3.0916,-3.0871,-3.0211,-3.0176,-3.0449,-2.959,-2.9473,-2.9668,-2.9121,-2.8848,-2.8652,0.0,0.0,0.0,0.0,0.0,0.0,0.0,0.0,0.0,0.0,0.0,0.0,0.0,0.0,0.0,0.0,0.0,0.0,0.0,-0.8621,-0.898,-0.8958,-1.0088,-1.0537,-1.0229,-1.2901,-1.4173,-1.377,-1.5483,-1.6493,-1.6772,-1.6772,-1.7278,-1.816,-1.816,-1.8724,-1.9736,0.0,0.0,0.0,0.0,0.0,-2.5078,-2.5303,-2.471,-2.3785,-2.4199,0.0,0.0,0.0,-2.5099,-2.5729,-2.5358,-2.581,0.0,-2.5366,-2.4716,-2.466,-2.634,-2.6814,-2.7332,-2.9466,-3.0657,-3.1464,-3.1843,-3.2297,-3.2628,-3.2706,-3.3058,-3.3368,-3.3389,-3.4194,-3.4879,-3.5335,-3.6163,-3.6597,-3.6142,-3.5707,-3.5418,-3.5397,-3.4238,-3.3969,0.0,-3.5438,-3.5625,-3.6122,-3.5687,-3.5625,-3.6122,-3.5728,-3.5272,-3.4857,-3.438,-3.3924,-3.341,-3.2975,-3.269,-3.2669,-3.244,-3.2305,-3.2305,-3.1614,-3.1498,-3.1787,-3.117,-3.0582,-3.0079,-3.0623,-3.0371,-2.9648,-3.0019,-3.0176,-3.0078,-2.9238,-2.8652,-2.8301,0.0,0.0,0.0,0.0,0.0,0.0,0.0,0.0,0.0,0.0,0.0,0.0,0.0,0.0,0.0,0.0,0.0,0.0,0.0,-0.897,-0.9245,-0.9413,-1.0026,-1.0198,-0.9964,-1.1641,-1.233,-1.202,-1.4308,-1.5381,-1.5322,-1.6423,-1.7075,-1.7396,-1.7573,-1.8159,-1.9128,0.0,0.0,0.0,0.0,0.0,-2.496,-2.4779,-2.3844,-2.2536,0.0,0.0,0.0,0.0,-2.3141,-2.3703,-2.4127,-2.4422,-2.4545,-2.4117,-2.441,-2.4987,-2.5698,-2.6864,-2.8122,-2.882,-2.969,-3.043,-3.0586,-3.1186,-3.1767,-3.1767,-3.1958,-3.2147,-3.2437,-3.2747,-3.3306,-3.4362,-3.5293,-3.5935,-3.6101,-3.6246,-3.5997,-3.5086,-3.5107,0.0,0.0,0.0,0.0,-3.5625,-3.579,-3.5811,-3.5666,-3.554,-3.5354,-3.4903,-3.4164,-3.3573,-3.3172,-3.2673,-3.2305,-3.2076,-3.2018,-3.1845,-3.1614,-3.1383,-3.1286,-3.117,-3.0995,-3.0781,-3.0564,-3.0487,-3.043,-3.041,-2.9961,-2.9785,-2.9707,-2.9121,-2.8652,-2.8262,0.0,0.0,0.0,0.0,0.0,0.0,0.0,0.0,0.0,0.0,0.0,0.0,0.0,0.0,0.0,0.0,0.0,0.0,0.0,0.0,-0.8389,-0.8488,-0.9082,-0.9185,-0.8715,-1.0396,-1.1053,-1.0514,-1.2783,-1.3861,-1.3816,-1.5435,-1.6154,-1.624,-1.6935,-1.7686,-1.8356,0.0,0.0,0.0,0.0,0.0,-2.3345,-2.3504,-2.2731,0.0,0.0,0.0,0.0,0.0,-2.1466,-2.2007,-2.2571,-2.2764,-2.2828,-2.2811,-2.3362,-2.4158,-2.477,-2.6191,-2.7576,-2.8236,-2.8774,-2.9297,-2.9636,-3.0006,-3.0354,-3.0792,-3.0777,-3.0867,-3.145,-3.1692,-3.2147,-3.3182,-3.4238,-3.5211,-3.5997,-3.6098,-3.5973,-3.5582,-3.5641,-3.5558,0.0,0.0,0.0,-3.5232,-3.5934,-3.5954,-3.5087,-3.5413,-3.5247,-3.4512,-3.3781,-3.3274,-3.2874,-3.2383,-3.196,-3.1614,-3.1614,-3.1441,-3.117,-3.117,-3.1054,-3.0898,-3.0898,-3.0801,-3.0625,-3.0508,-3.043,-3.0371,-2.9785,-2.925,-2.8667,-2.8227,-2.7536,-2.687,0.0,0.0,0.0,0.0,0.0,0.0,0.0,0.0,0.0,0.0,0.0,0.0,0.0,0.0,0.0,0.0,0.0,0.0,0.0,0.0,0.0,-0.6445,-0.7369,-0.7478,-0.6643,-0.9189,-1.0128,-0.9216,-1.1092,-1.2051,-1.2242,-1.3852,-1.4671,-1.4744,-1.6231,-1.7055,-1.7347,0.0,0.0,0.0,0.0,0.0,-2.0397,-2.1472,0.0,0.0,0.0,0.0,0.0,0.0,-2.0107,-2.0765,-2.086,-2.104,-2.1229,-2.1556,-2.1776,-2.2282,-2.3795,-2.4808,-2.5812,-2.7602,-2.7884,-2.7985,-2.889,-2.8644,-2.8553,-2.9721,-2.96,-2.9553,0.0,0.0,-3.1464,-3.1884,-3.3203,-3.461,-3.5934,-3.5518,-3.5491,0.0,0.0,0.0,0.0,0.0,0.0,-3.494,0.0,-3.6072,-3.4503,-3.5118,-3.5019,-3.384,-3.3357,-3.2834,-3.2412,-3.1971,-3.1556,-3.1208,-3.1208,-3.0976,-3.0704,-3.0704,-3.0704,-3.0704,-3.0704,-3.0451,-3.0063,-3.049,-3.0179,-2.9402,-2.9364,-2.8444,-2.7031,-2.6555,-2.5504,-2.4466,0.0,0.0,0.0,0.0,0.0,0.0,0.0,0.0,0.0,0.0,0.0,0.0,0.0,0.0,0.0,0.0,0.0,0.0,0.0,0.0,0.0,0.0,0.0,0.0,0.0,0.0,0.0,0.0,0.0,-1.0434,-1.0655,-1.2934,-1.4023,0.0,-1.5202,-1.5924,-1.6353,0.0,0.0,0.0,0.0,0.0,-2.0368,0.0,0.0,0.0,0.0,0.0,0.0,0.0,-2.0508,-2.1343,-2.1218,-2.1107,-2.1261,-2.2221,-2.262,-2.2968,-2.3837,-2.4767,-2.5614,-2.5846,-2.5666,-2.5621,-2.6313,-2.6702,-2.7004,-2.753,-2.8026,-2.8224,0.0,0.0,0.0,-3.1093,-3.3182,0.0,-3.6152,-3.6734,0.0,-3.6985,0.0,-3.6931,-3.671,-3.6569,0.0,0.0,-3.5594,-3.5359,-3.4926,-3.4899,-3.4529,-3.3908,-3.3132,-3.2574,-3.2234,-3.1486,-3.0567,-2.9512,-2.9512,-2.8979,-2.7984,-2.7984,-2.7984,-2.7984,-2.7984,-2.7754,-2.7458,-2.7564,-2.7374,-2.6893,-2.6608,-2.6204,-2.5782,-2.5325,-2.4934,-2.4484,0.0,0.0,0.0,0.0,0.0,0.0,0.0,0.0,0.0,0.0,0.0,0.0,0.0,0.0,0.0,0.0,0.0,0.0,0.0,0.0,0.0,0.0,0.0,0.0,0.0,0.0,0.0,0.0,0.0,0.0,0.0,-1.1545,-1.2843,-1.3316,-1.452,-1.5289,-1.5612,0.0,0.0,0.0,0.0,0.0,0.0,0.0,0.0,0.0,0.0,0.0,0.0,0.0,0.0,-2.176,-2.2094,-2.2038,-2.2029,-2.2894,-2.3123,-2.3202,-2.3719,-2.4239,-2.4763,-2.4813,-2.427,-2.3882,-2.4537,-2.4589,-2.4675,-2.5133,-2.5662,-2.5899,-2.5408,-2.7157,0.0,0.0,0.0,0.0,-3.4831,-3.5538,-3.6016,0.0,-3.646,0.0,-3.5626,-3.4983,-3.4333,0.0,-3.5125,-3.5581,-3.468,-3.4839,-3.4512,-3.369,-3.3021,-3.2185,-3.107,-2.9808,-2.882,-2.8086,-2.8086,-2.7667,-2.7021,-2.7021,-2.7021,-2.7004,0.0,-2.6645,-2.6498,-2.6327,-2.6093,-2.5732,-2.5469,-2.4941,-2.4321,-2.4049,-2.3533,-2.2799,0.0,0.0,0.0,0.0,0.0,0.0,0.0,0.0,0.0,0.0,0.0,0.0,0.0,0.0,0.0,0.0,0.0,0.0,0.0,0.0,0.0,0.0,0.0,0.0,0.0,0.0,0.0,0.0,0.0,0.0,0.0,0.0,0.0,0.0,0.0,0.0,0.0,0.0,0.0,0.0,0.0,0.0,0.0,0.0,0.0,0.0,0.0,0.0,0.0,0.0,-2.1148,-2.2135,-2.297,-2.3163,-2.3142,-2.3475,-2.3435,-2.3354,-2.3588,-2.372,-2.3892,-2.4332,-2.3571,-2.2809,-2.334,-2.2715,-2.2233,-2.2918,0.0,-2.3286,-2.3235,-2.5125,-2.6718,-2.6816,0.0,-3.0129,-3.271,-3.3262,-3.3826,-3.5078,-3.4973,-3.4448,-3.3721,-3.2351,-3.1424,-3.1029,-3.4233,-3.5426,-3.3669,-3.4102,-3.385,-3.2681,-3.2296,-3.1167,-2.9271,-2.7782,-2.69,-2.6779,-2.6779,-2.6641,-2.6459,-2.6409,-2.6392,-2.6376,-2.6066,0.0,-2.5856,-2.5536,-2.5182,-2.4861,-2.4861,-2.3982,-2.2765,-2.2765,-2.1902,-2.075,0.0,0.0,0.0,0.0,0.0,0.0,0.0,0.0,0.0,0.0,-0.6404,-0.6322,0.0,0.0,0.0,0.0,0.0,0.0,0.0,0.0,0.0,0.0,0.0,0.0,0.0,0.0,0.0,0.0,0.0,0.0,0.0,0.0,0.0,0.0,0.0,0.0,0.0,0.0,0.0,0.0,0.0,0.0,0.0,0.0,0.0,0.0,0.0,0.0,0.0,0.0,-2.22,-2.3155,-2.2826,-2.3103,-2.3539,-2.3927,-2.4122,-2.4276,-2.4057,-2.4393,-2.4679,-2.3922,-2.3373,-2.2968,-2.2833,-2.2188,0.0,0.0,-2.2158,-2.2282,-2.1842,-2.354,-2.518,-2.5765,-2.708,-2.8977,-3.1443,-3.1931,-3.2506,0.0,-3.3792,-3.3426,-3.2974,-3.2152,0.0,0.0,-3.1456,-3.1357,-3.0645,-3.0213,-2.9542,-2.8623,-2.8535,-2.8167,-2.747,-2.7177,-2.6476,-2.5439,-2.5439,-2.4826,-2.3775,-2.3489,-2.3368,-2.3353,-2.3037,0.0,-2.2553,-2.2493,-2.2266,-2.1907,-2.1907,-2.1762,-2.1489,-2.1489,-2.1345,-2.1115,0.0,0.0,0.0,0.0,0.0,0.0,0.0,0.0,-0.87,-0.8653,-0.8618,-0.8062,0.0,0.0,0.0,0.0,0.0,0.0,0.0,0.0,0.0,0.0,0.0,0.0,0.0,0.0,0.0,0.0,0.0,0.0,0.0,0.0,0.0,0.0,0.0,0.0,0.0,0.0,0.0,0.0,0.0,0.0,0.0,0.0,0.0,0.0,0.0,0.0,0.0,0.0,-2.0864,-2.2541,-2.316,-2.372,-2.4174,-2.4496,-2.4818,-2.5066,-2.5081,-2.5066,-2.4973,-2.4262,-2.3471,-2.2669,-2.2007,0.0,0.0,0.0,-2.0464,-2.0438,-1.9868,-2.1644,0.0,-2.3577,-2.4731,-2.6438,-2.8857,-2.9636,0.0,-3.1474,-3.1713,-3.1506,0.0,-2.967,-2.8757,-2.8286,-2.8011,-2.8435,-2.9605,-2.8948,-2.8363,-2.8002,-2.7114,-2.6496,-2.6315,-2.5397,-2.4641,-2.4023,-2.4023,-2.3728,-2.3091,-2.2769,-2.2623,-2.2593,-2.2125,0.0,-2.1686,-2.1511,-2.135,-2.1203,-2.1203,-2.1203,-2.1203,-2.1203,-2.1203,-2.1102,0.0,0.0,0.0,0.0,0.0,0.0,0.0,-0.9896,-1.033,-1.059,-1.0757,-1.0037,-0.7836,-0.7299,-0.689,0.0,0.0,0.0,0.0,0.0,0.0,0.0,0.0,0.0,0.0,0.0,0.0,0.0,0.0,0.0,0.0,0.0,0.0,0.0,0.0,0.0,0.0,0.0,0.0,0.0,0.0,0.0,0.0,0.0,0.0,0.0,0.0,0.0,0.0,0.0,-1.91,-2.0895,-2.2497,-2.3753,-2.4598,-2.4701,-2.5169,-2.5681,-2.5857,-2.5593,-2.5154,-2.4686,-2.3691,-2.255,-2.1452,-2.0457,0.0,-1.9345,-1.9099,-1.8799,-1.8493,-1.9965,-2.1264,0.0,-2.2167,-2.3579,-2.6218,-2.7243,-2.8075,0.0,-2.9575,0.0,-2.8412,-2.7139,0.0,-2.5374,-2.5198,-2.6017,-2.8178,-2.7674,-2.7273,-2.7206,-2.5862,-2.5156,-2.5156,-2.3786,-2.3106,-2.3106,-2.3106,-2.3106,-2.3091,-2.271,-2.252,-2.2491,-2.1862,0.0,0.0,-2.132,-2.1203,-2.1203,-2.1146,-2.1089,-2.1089,-2.1031,-2.1031,-2.0887,0.0,0.0,0.0,0.0,0.0,0.0,0.0,-1.05,-1.094,-1.1134,-1.1329,-1.1273,-1.0842,-0.9526,-0.8123,0.0,0.0,0.0,0.0,0.0,0.0,0.0,0.0,0.0,0.0,0.0,0.0,0.0,0.0,0.0,0.0,0.0,0.0,0.0,0.0,0.0,0.0,0.0,0.0,0.0,0.0,0.0,0.0,0.0,0.0,0.0,0.0,0.0,0.0,0.0,0.0,-1.819,-1.9207,-2.1915,-2.4466,-2.3896,0.0,0.0,-2.5652,-2.5754,-2.571,-2.4803,-2.4027,-2.3106,-2.1554,0.0,-1.972,-1.9345,-1.881,-1.8443,-1.8686,-1.8941,-1.9332,-2.0195,0.0,-2.1255,-2.4369,-2.5174,-2.6002,-2.7512,0.0,0.0,-2.6803,-2.6308,0.0,-2.473,-2.4115,-2.401,-2.4535,-2.4208,-2.3881,-2.3569,-2.3414,-2.3337,-2.3337,-2.3183,-2.3106,-2.3106,-2.3106,-2.3106,-2.3091,-2.2491,-2.2228,-2.2184,-2.154,0.0,0.0,-2.1218,-2.1203,-2.1146,-2.0845,-2.0773,-2.073,-2.0443,-2.0385,-2.0343,0.0,0.0,0.0,0.0,0.0,0.0,0.0,-1.1796,-1.2372,-1.3067,-1.3249,-1.3114,-1.2611,-1.1885,-1.071,0.0,0.0,0.0,0.0,0.0,0.0,0.0,0.0,0.0,0.0,0.0,0.0,0.0,0.0,0.0,0.0,0.0,0.0,0.0,0.0,0.0,0.0,0.0,0.0,0.0,0.0,0.0,0.0,0.0,0.0,0.0,0.0,0.0,0.0,0.0,0.0,0.0,-1.695,-1.8946,0.0,0.0,-2.3067,-2.4465,-2.4947,-2.5498,-2.5827,-2.5119,-2.3925,-2.2696,-2.1481,0.0,-1.9433,-1.9301,-1.8599,-1.8101,-1.8438,-1.8496,-1.8628,0.0,0.0,0.0,-2.2257,-2.3003,-2.4063,-2.5813,-2.6471,0.0,0.0,0.0,-2.5608,-2.4642,-2.3969,-2.3647,-2.3779,-2.3471,-2.3237,-2.3106,-2.3106,-2.3106,-2.3106,-2.3106,-2.3106,-2.3106,-2.3106,-2.3106,-2.3091,-2.2462,-2.2184,-2.214,-2.1496,0.0,0.0,-2.0902,-2.0788,-2.0558,-1.9679,-1.9319,-1.9176,-1.8186,-1.7835,-1.7715,0.0,0.0,0.0,0.0,0.0,-1.2232,-1.2361,-1.2608,-1.3168,-1.4288,-1.4439,-1.4277,-1.3971,-1.365,-1.2998,-1.1656,0.0,0.0,0.0,0.0,0.0,0.0,0.0,0.0,0.0,0.0,0.0,-1.2191,-1.2459,-1.2904,0.0,0.0,0.0,0.0,0.0,0.0,0.0,0.0,0.0,0.0,0.0,0.0,0.0,0.0,0.0,0.0,0.0,0.0,0.0,0.0,0.0,0.0,0.0,0.0,0.0,0.0,-2.1278,-2.2889,-2.4037,-2.4834,-2.5322,-2.513,-2.3837,-2.2403,0.0,0.0,-1.9272,-1.9272,-1.8657,-1.8174,-1.8408,-1.8438,-1.8438,0.0,0.0,-1.9623,-2.1013,-2.1774,-2.2784,0.0,0.0,-2.5593,0.0,-2.5505,-2.5169,-2.4481,-2.3823,-2.3457,-2.3457,-2.3237,-2.3106,-2.3106,-2.3106,-2.3106,-2.3106,-2.3106,-2.3106,-2.3106,-2.3018,-2.2959,-2.2945,-2.233,-2.1978,-2.1875,-2.1322,0.0,0.0,-2.0026,-1.9666,-1.9087,-1.8085,-1.7686,-1.7472,-1.6356,-1.5897,-1.5773,0.0,0.0,0.0,0.0,0.0,0.0,0.0,-1.2608,-1.3164,-1.4073,-1.4202,-1.4374,-1.4837,-1.462,-1.448,-1.4469,0.0,0.0,0.0,0.0,0.0,0.0,0.0,0.0,0.0,0.0,-1.329,-1.3762,-1.4062,-1.4062,-1.3825,-1.4073,-1.3803,0.0,0.0,0.0,0.0,0.0,0.0,0.0,0.0,0.0,0.0,0.0,0.0,0.0,0.0,0.0,0.0,0.0,0.0,0.0,0.0,0.0,0.0,0.0,-1.9784,-2.1502,-2.282,-2.3543,-2.4136,-2.4936,-2.3837,-2.2462,0.0,-2.0442,-1.9272,-1.9272,-1.9008,-1.8774,-1.8789,-1.8789,-1.8789,-1.8789,0.0,0.0,-2.0984,-2.1774,-2.2535,0.0,0.0,-2.4583,-2.4583,-2.4291,-2.4101,-2.4086,-2.3486,0.0,-2.312,-2.3106,-2.3106,-2.3106,-2.3106,-2.3106,-2.3106,-2.3106,-2.3106,-2.3106,-2.2784,-2.2623,-2.2608,-2.1979,-2.151,-2.1188,0.0,0.0,0.0,-1.8448,-1.7677,-1.648,-1.6138,-1.5934,-1.5769,-1.5434,-1.5167,-1.4974,0.0,0.0,0.0,0.0,0.0,0.0,0.0,-1.0761,-1.1586,-1.2363,-1.331,-1.4116,-1.4589,-1.4523,-1.448,-1.448,0.0,0.0,0.0,0.0,0.0,0.0,0.0,0.0,0.0,0.0,-1.3513,-1.3814,-1.4073,-1.4309,-1.4546,-1.4309,-1.4073,-1.3846,-1.3663,0.0,0.0,0.0,0.0,0.0,0.0,0.0,0.0,0.0,0.0,0.0,0.0,0.0,0.0,0.0,0.0,0.0,0.0,0.0,0.0,0.0,0.0,0.0,-1.9687,-2.0567,-2.1288,-2.1299,-2.0846,-2.0328,-1.9935,-1.9582,-1.9272,-1.9272,-1.9023,-1.8789,-1.8789,-1.8789,-1.8862,-1.9081,-1.9301,0.0,0.0,0.0,0.0,-2.3149,-2.4423,-2.514,0.0,0.0,-2.3984,-2.3764,-2.3354,0.0,-2.2104,-2.2041,-2.2418,-2.3106,-2.3106,-2.3106,-2.3106,-2.2418,-2.1992,-2.1768,-2.0557,-1.9905,-1.9711,-1.8902,-1.8426,0.0,0.0,0.0,0.0,-1.6738,-1.6444,-1.5795,-1.4787,-1.4301,-1.4033,-1.2903,-1.2386,-1.2244,0.0,0.0,0.0,0.0,0.0,0.0,0.0,-0.9866,-1.081,-1.1336,-1.2638,-1.3728,-1.4158,-1.4266,-1.4287,-1.4459,0.0,0.0,0.0,0.0,0.0,0.0,0.0,0.0,0.0,-1.333,-1.3717,-1.4223,-1.4471,-1.474,-1.502,-1.4815,-1.4536,-1.4191,-1.4029,0.0,0.0,0.0,0.0,0.0,0.0,0.0,-1.4751,0.0,0.0,0.0,0.0,0.0,0.0,0.0,0.0,0.0,0.0,0.0,0.0,0.0,-1.5289,-1.6448,0.0,-1.8656,-1.9322,-1.9572,-1.924,-1.8908,-1.872,-1.8523,-1.8318,-1.8318,-1.8164,-1.8025,-1.8025,-1.8025,-1.8095,-1.829,-1.8749,-1.9299,0.0,0.0,0.0,-2.2415,0.0,0.0,0.0,-2.2728,-2.2295,-2.2103,-2.1751,0.0,-2.0545,-2.0545,-2.0806,-2.1307,-2.1679,-2.1804,-2.1692,-2.1072,-2.0544,-2.0161,-1.9,-1.8251,-1.7827,-1.7134,-1.672,0.0,0.0,0.0,0.0,-1.5144,-1.4728,-1.4093,-1.3315,-1.2794,-1.2476,-1.1553,-1.107,-1.085,0.0,0.0,0.0,0.0,0.0,0.0,0.0,0.0,0.0,-1.0924,-1.2206,-1.3276,-1.375,-1.3814,-1.4008,0.0,0.0,0.0,0.0,0.0,0.0,0.0,0.0,0.0,0.0,-1.3461,-1.3922,-1.4767,-1.5013,-1.5162,-1.5157,-1.5397,-1.5013,-1.4179,-1.4147,0.0,0.0,0.0,0.0,0.0,-1.4665,-1.4719,0.0,0.0,0.0,0.0,0.0,0.0,0.0,0.0,0.0,0.0,0.0,0.0,0.0,0.0,0.0,0.0,0.0,-1.7422,-1.7973,-1.899,-1.8596,-1.802,-1.802,-1.7351,0.0,-1.6683,-1.6683,-1.6683,-1.6696,-1.6696,-1.6696,-1.6787,-1.7424,-1.8209,0.0,-2.0146,0.0,0.0,-2.1673,0.0,-2.0345,-1.9748,-1.9398,-1.9386,-1.9104,0.0,-1.8512,-1.8575,-1.8443,-1.8105,-1.8902,-1.9298,-1.9229,-1.9168,-1.885,-1.8215,-1.7781,-1.7218,-1.6703,-1.6357,-1.6009,0.0,0.0,0.0,0.0,-1.3526,-1.2877,-1.1752,-1.1744,-1.1516,-1.12,-1.12,-1.0988,-1.0688,0.0,0.0,0.0,0.0,0.0,0.0,0.0,0.0,0.0,0.0,-1.2104,-1.3222,-1.3523,-1.3717,-1.4008,0.0,0.0,0.0,0.0,0.0,0.0,0.0,0.0,0.0,0.0,-1.2876,-1.3317,-1.346,-1.4137,-1.4509,-1.445,-1.4721,-1.442,-1.3732,-1.3858,0.0,0.0,0.0,0.0,0.0,-1.4221,-1.4153,0.0,0.0,0.0,0.0,-1.4416,-1.448,0.0,0.0,0.0,0.0,0.0,0.0,0.0,0.0,-1.4374,-1.4299,-1.479,0.0,-1.5133,-1.54,-1.5814,-1.6109,0.0,-1.6448,-1.6683,-1.6683,-1.6683,-1.6747,-1.6949,-1.6823,-1.6863,-1.7296,-1.7592,-1.7819,-1.8168,-1.8911,0.0,-2.0276,-2.0057,-1.9657,-1.8989,-1.8823,-1.8599,-1.8337,0.0,-1.7821,-1.6825,-1.6814,-1.6243,-1.5044,-1.5207,-1.614,-1.7848,-1.7122,-1.6541,-1.6243,-1.4912,-1.4074,-1.3671,-1.3153,-1.2755,0.0,0.0,0.0,-1.2031,-1.2031,-1.1853,-1.1549,-1.1411,-1.1216,-1.1029,-1.1029,-1.0883,-1.0688,0.0,0.0,0.0,0.0,0.0,0.0,0.0,0.0,0.0,0.0,0.0,0.0,0.0,0.0,0.0,0.0,0.0,0.0,0.0,0.0,0.0,0.0,0.0,0.0,-1.1902,-1.249,-1.3017,-1.3294,-1.3848,-1.4234,-1.4376,-1.4533,-1.4263,-1.3605,-1.3375,0.0,0.0,0.0,0.0,0.0,-1.3462,0.0,0.0,0.0,0.0,0.0,-1.4113,-1.4155,0.0,-1.4532,-1.4346,-1.3988,0.0,0.0,0.0,0.0,-1.398,-1.3867,-1.4137,-1.4266,-1.4352,-1.4352,-1.4505,-1.4658,-1.4658,0.0,0.0,0.0,0.0,-1.4784,-1.4918,-1.4918,-1.4997,-1.5322,-1.5737,0.0,0.0,0.0,-1.8413,-1.881,-1.8396,-1.7795,0.0,-1.6699,-1.6326,-1.6128,0.0,-1.5691,-1.4911,-1.4804,-1.4351,-1.3429,-1.3125,-1.3831,-1.5693,-1.5156,-1.4679,-1.4258,-1.3359,-1.2656,-1.2116,-1.1916,-1.1671,0.0,0.0,0.0,-1.1622,-1.1533,-1.15,-1.1484,-1.1297,-1.1118,-1.1028,-1.1028,-1.085,-1.0688,0.0,0.0,0.0,0.0,0.0,0.0,0.0,0.0,0.0,0.0,0.0,0.0,0.0,0.0,0.0,0.0,0.0,0.0,0.0,0.0,0.0,0.0,0.0,-1.2408,-1.1942,-1.2172,-1.2646,-1.3338,-1.3658,-1.3983,-1.429,-1.4419,-1.4147,-1.3416,-1.2916,-1.2674,0.0,0.0,0.0,0.0,-1.2701,0.0,0.0,0.0,0.0,0.0,0.0,0.0,0.0,-1.3978,-1.3741,-1.3222,-1.3678,0.0,0.0,0.0,0.0,0.0,-1.38,-1.4164,-1.4333,-1.4338,-1.3951,-1.3517,-1.3487,0.0,0.0,0.0,0.0,0.0,0.0,-1.2589,0.0,0.0,0.0,0.0,-1.6556,-1.6886,-1.6914,-1.7062,-1.6537,0.0,-1.5152,-1.4276,-1.3735,0.0,0.0,-1.3369,-1.3143,-1.2969,-1.2795,-1.2552,-1.207,-1.2311,-1.3393,-1.3393,-1.3144,-1.2543,-1.2543,-1.2209,-1.1508,-1.1663,-1.1622,-1.1427,0.0,0.0,-1.1638,-1.1484,-1.1419,-1.1403,-1.1216,-1.1053,-1.0923,-1.0923,-1.0826,-1.0688,0.0,0.0,0.0,0.0,0.0,0.0,0.0,0.0,0.0,0.0,0.0,0.0,0.0,0.0,0.0,0.0,0.0,0.0,0.0,0.0,0.0,0.0,-1.2543,-1.2229,-1.1218,-1.1634,-1.1868,-1.1837,-1.2882,-1.3239,-1.2951,-1.3796,-1.3658,-1.2766,-1.2519,-1.2472,-1.2429,0.0,0.0,-1.1827,-1.2265,0.0,0.0,0.0,0.0,0.0,0.0,0.0,0.0,-1.2692,-1.2628,-1.2593,-1.2887,0.0,0.0,0.0,0.0,0.0,-1.2865,-1.3202,-1.349,-1.3507,-1.3167,-1.2802,-1.2631,0.0,0.0,0.0,0.0,0.0,0.0,-1.2843,-1.2862,0.0,0.0,-1.4332,0.0,0.0,-1.4618,-1.4638,0.0,-1.3544,-1.3253,-1.3062,-1.2898,0.0,0.0,-1.2609,-1.2209,-1.2168,-1.2069,-1.1957,-1.1837,-1.1897,-1.2078,-1.2078,-1.2018,-1.1957,-1.1957,-1.1799,-1.15,-1.1533,-1.1362,-1.1062,0.0,-1.1224,-1.1151,-1.1062,-1.111,-1.1029,-1.0842,-1.0761,-1.0737,-1.0737,-1.0712,-1.0696,0.0,0.0,0.0,0.0,0.0,0.0,0.0,0.0,0.0,0.0,0.0,0.0,0.0,0.0,0.0,0.0,0.0,0.0,0.0,0.0,0.0,-1.2369,-1.2156,-1.1731,-1.1028,-1.1445,-1.1661,-1.1784,-1.2536,-1.2853,-1.271,-1.3011,-1.2838,-1.2256,-1.2039,-1.1886,-1.1907,-1.1707,-1.1561,-1.1414,0.0,0.0,0.0,0.0,0.0,0.0,0.0,0.0,0.0,0.0,-1.2126,-1.1946,-1.1973,0.0,0.0,0.0,0.0,0.0,-1.2194,-1.211,-1.1954,-1.2293,-1.2561,-1.2672,-1.2482,-1.2063,0.0,0.0,0.0,0.0,0.0,0.0,-1.2273,-1.2952,0.0,-1.3488,-1.3661,-1.3473,-1.3343,0.0,0.0,-1.2848,-1.2962,-1.28,0.0,0.0,0.0,0.0,-1.2036,-1.1947,-1.1857,-1.1776,-1.1776,-1.1776,-1.1776,-1.1776,-1.1776,-1.1776,-1.1671,-1.1533,-1.1354,-1.1354,-1.1208,-1.1037,0.0,-1.1175,-1.1094,-1.1005,-1.1028,-1.1004,-1.0761,-1.0641,-1.0366,-0.9526,-0.8803,-0.8244,0.0,0.0,0.0,0.0,0.0,0.0,0.0,0.0,0.0,0.0,0.0,0.0,0.0,0.0,0.0,0.0,0.0,0.0,0.0,0.0,-1.2231,-1.2136,-1.1753,-1.1395,-1.1159,-1.1386,-1.1671,-1.2028,-1.2385,-1.2678,-1.2889,-1.258,-1.2288,-1.202,-1.1703,-1.1492,-1.1362,-1.1126,-1.1078,-1.1143,0.0,0.0,0.0,0.0,0.0,0.0,0.0,0.0,0.0,0.0,0.0,0.0,0.0,0.0,0.0,-1.1218,-1.1149,-1.1141,-1.1519,-1.1218,-1.0863,-1.1359,0.0,-1.2225,-1.2327,-1.1737,0.0,0.0,0.0,0.0,0.0,-1.1508,0.0,-1.2418,-1.2759,-1.2946,-1.2905,-1.2775,-1.2791,-1.3059,-1.2816,-1.2718,-1.2946,0.0,0.0,0.0,0.0,0.0,-1.1971,-1.1849,-1.176,-1.1711,-1.1711,-1.1695,-1.1646,-1.1467,-1.1483,-1.1711,-1.1565,-1.1378,-1.1159,-1.1159,-1.107,-1.0907,-1.081,-1.0752,-1.0744,-1.0273,-1.0107,-1.0044,-0.9743,-0.9526,-0.9196,-0.8029,-0.6972,-0.6084,0.0,0.0,0.0,0.0,0.0,0.0,0.0,0.0,0.0,0.0,0.0,0.0,0.0,0.0,0.0,0.0,0.0,0.0,0.0,0.0,-1.1412,-1.1134,-1.138,-1.1565,-1.1711,-1.1573,-1.1671,-1.2028,-1.2385,-1.2743,-1.3068,-1.2889,-1.2459,-1.202,-1.1841,-1.1476,-1.1013,-1.1151,-1.1118,-1.0988,-1.102,0.0,0.0,0.0,0.0,0.0,0.0,0.0,0.0,0.0,0.0,0.0,0.0,0.0,-1.0743,-1.0735,-1.0612,-1.0522,-1.0724,-1.0849,-1.1004,-1.1004,-1.0914,0.0,-1.1725,-1.1535,0.0,-1.2077,0.0,0.0,0.0,-1.2247,-1.245,-1.2345,-1.2889,-1.3271,-1.31,0.0,-1.3068,-1.3092,-1.2929,-1.2759,-1.2677,0.0,0.0,0.0,0.0,0.0,-1.1801,-1.1784,-1.1695,-1.1524,-1.1516,-1.1435,-1.1265,-1.0446,-1.0522,-1.1516,-1.1508,-1.1321,-1.0988,-1.0988,-1.0883,-1.0657,-0.9894,-0.9507,-0.9396,-0.7986,-0.7376,-0.7315,-0.675,-0.6528,-0.6473,-0.6362,-0.6139,-0.581,0.0,0.0,0.0,0.0,0.0,0.0,0.0,0.0,0.0,0.0,0.0,0.0,0.0,0.0,0.0,0.0,0.0,0.0,0.0,-1.0995,-1.1037,-1.1126,-1.1256,-1.1411,-1.1598,-1.1646,-1.1849,-1.2199,-1.2442,-1.2694,-1.2929,-1.2645,-1.2337,-1.202,-1.1727,-1.1427,-1.1135,-1.1191,-1.1126,-1.1028,-1.1028,-1.0955,0.0,0.0,0.0,0.0,0.0,0.0,0.0,0.0,-1.0558,-1.059,0.0,-1.0607,-1.0672,-1.0566,-1.0404,-1.0257,-1.0201,-1.0412,-1.0639,-1.0639,-1.0664,0.0,0.0,-1.1914,-1.1971,-1.2247,-1.2337,0.0,0.0,0.0,-1.258,-1.2629,-1.2954,-1.3173,-1.3108,-1.3092,-1.3011,-1.2791,-1.271,-1.2596,0.0,0.0,0.0,0.0,0.0,0.0,-1.0861,-0.9937,-0.9357,-0.9245,-0.8791,-0.8722,-0.9026,-0.8703,-0.8878,-0.9486,-0.9486,-0.9252,-0.8741,-0.865,-0.8356,-0.7858,-0.7526,-0.7415,-0.736,-0.6805,-0.6528,-0.6528,-0.6084,-0.5472,-0.4801,-0.4637,-0.4027,-0.3304,0.0,0.0,0.0,0.0,0.0,0.0,0.0,0.0,0.0,0.0,0.0,0.0,0.0,0.0,0.0,0.0,0.0,0.0,-1.042,-1.0599,-1.0777,-1.0964,-1.1135,-1.1281,-1.1411,-1.1589,-1.1866,-1.2223,-1.2393,-1.2572,-1.2743,-1.2385,-1.2182,-1.2101,-1.1744,-1.1484,-1.1313,-1.1313,-1.1175,-1.1028,-1.1028,-1.0891,0.0,0.0,0.0,0.0,0.0,0.0,0.0,0.0,-1.0558,0.0,0.0,0.0,0.0,0.0,-1.0347,-1.0209,-1.0022,-1.0201,-1.0391,-1.0501,0.0,0.0,-1.1922,-1.2166,-1.232,-1.2661,-1.2686,0.0,0.0,0.0,0.0,0.0,-1.264,-1.2598,-1.2476,-1.2201,-1.1895,-1.1618,-1.1652,-1.1434,0.0,0.0,0.0,0.0,0.0,0.0,0.0,-0.8425,-0.7725,-0.7448,-0.6951,-0.6896,-0.7211,-0.696,-0.6925,-0.7209,-0.6929,-0.695,-0.7319,-0.6953,-0.6584,-0.6195,-0.5917,-0.5806,-0.575,-0.5306,-0.4972,-0.4804,-0.4585,-0.4027,-0.3299,-0.3078,-0.252,-0.1795,0.0,0.0,0.0,0.0,0.0,0.0,0.0,0.0,0.0,0.0,0.0,0.0,0.0,0.0,0.0,0.0,0.0,0.0,-0.9884,-1.0387,-1.0607,-1.0391,-1.0932,-1.1216,-1.1224,-1.1403,-1.1671,-1.2028,-1.2215,-1.2393,-1.2612,-1.2199,-1.2125,-1.228,-1.1931,-1.1671,-1.1492,-1.1492,-1.1289,-1.102,-1.1028,-1.1028,-1.1004,0.0,0.0,0.0,0.0,0.0,0.0,0.0,-1.0582,-1.0415,0.0,0.0,0.0,0.0,-1.0383,-1.0396,-1.0261,-1.0298,-1.0477,-1.0647,0.0,0.0,-1.2142,-1.2166,-1.2337,-1.3348,0.0,-1.2661,-1.2314,0.0,0.0,-1.2273,-1.1826,-1.1411,-1.1181,-1.0306,-0.9594,-0.9518,-0.95,0.0,0.0,0.0,0.0,0.0,0.0,0.0,0.0,-0.7679,-0.7264,-0.6517,-0.6455,-0.6351,-0.6195,-0.531,-0.4878,-0.485,-0.3929,-0.4731,-0.7022,-0.6412,-0.6135,-0.6135,-0.5254,-0.4864,-0.4752,-0.3306,-0.2356,-0.1795,-0.1795,-0.1795,-0.1795,-0.1795,-0.1795,-0.1795,0.0,0.0,0.0,0.0,0.0,0.0,0.0,0.0,0.0,0.0,0.0,0.0,0.0,0.0,0.0,0.0,0.0,0.0,-1.0122,-1.0111,-1.0217,-1.0375,-1.0528,-1.0785,-1.1037,-1.1346,-1.1671,-1.2028,-1.1963,-1.202,-1.2182,-1.2077,-1.1857,-1.1549,0.0,-1.1338,-1.094,-1.107,-1.0988,-1.0794,-1.1045,-1.0997,-1.0785,0.0,0.0,0.0,0.0,0.0,0.0,0.0,0.0,0.0,0.0,0.0,0.0,-1.0526,-1.0383,-1.0396,-1.0261,-1.0253,-1.0347,-1.0777,0.0,0.0,0.0,-1.2361,0.0,0.0,-1.2417,-1.1439,-1.0711,0.0,0.0,-0.9509,-0.9341,-0.9407,-0.996,-0.9764,-0.9281,-0.8603,-0.8506,0.0,0.0,0.0,0.0,0.0,0.0,0.0,0.0,-0.4943,-0.422,-0.3966,-0.3462,-0.3377,-0.3757,-0.3493,-0.3578,-0.4003,-0.3243,-0.3265,-0.3943,-0.3774,-0.3466,-0.3081,-0.2841,-0.2744,-0.269,-0.2244,-0.1964,-0.1795,-0.1795,-0.1795,-0.1795,-0.1795,-0.1795,-0.1795,0.0,0.0,0.0,0.0,0.0,0.0,0.0,0.0,0.0,0.0,0.0,0.0,0.0,0.0,0.0,0.0,0.0,0.0,0.0,-0.9949,-1.0014,-1.0314,-1.0461,-1.0737,-1.1167,-1.1313,-1.1533,-1.1817,-1.1719,-1.176,-1.1931,-1.1931,-1.1752,-1.1451,0.0,-1.1411,-1.0907,-1.1021,-1.0883,-1.0623,-1.0811,-1.0779,-1.0547,0.0,0.0,0.0,0.0,0.0,0.0,0.0,0.0,0.0,0.0,0.0,0.0,-1.0037,-0.9959,-1.0004,-0.9957,-0.9625,-0.9406,-0.9838,-0.9832,-0.9795,-1.0186,0.0,0.0,0.0,0.0,-0.9522,-0.8932,-0.8323,0.0,-0.7871,-0.7577,-0.7527,-0.7941,-0.7871,-0.7483,-0.6616,-0.6699,0.0,0.0,0.0,0.0,0.0,0.0,0.0,0.0,-0.3359,-0.2714,-0.2484,-0.206,-0.1992,-0.2333,-0.2367,-0.2517,-0.2886,-0.2455,-0.2252,-0.2217,-0.2272,-0.2133,-0.1807,-0.1782,-0.1795,-0.1795,-0.1795,-0.1795,-0.1795,-0.1795,-0.1795,-0.1795,-0.1795,-0.1795,-0.1795,0.0,0.0,0.0,0.0,0.0,0.0,0.0,0.0,0.0,0.0,0.0,0.0,0.0,0.0,0.0,0.0,0.0,0.0,0.0,0.0,-0.9973,-1.0228,-1.0558,-1.0988,-1.1459,-1.1338,-1.1338,-1.1476,-1.1459,-1.1541,-1.1703,-1.1752,-1.1752,-1.1711,0.0,-1.1679,-1.1167,-1.1143,-1.0803,-1.0415,-1.0477,-1.0397,-1.0272,-1.01,0.0,0.0,0.0,0.0,0.0,0.0,0.0,0.0,-0.9345,-0.9302,-0.928,-0.9039,-0.9055,-0.9099,-0.9176,-0.8451,-0.7774,-0.8184,-0.7633,0.0,-0.6983,-0.8496,-0.9452,-0.8033,0.0,-0.7265,-0.7046,-0.6888,-0.6857,-0.6828,-0.6174,-0.5674,-0.5653,-0.533,-0.4795,-0.4098,0.0,0.0,0.0,0.0,0.0,0.0,0.0,0.0,0.0,-0.2658,-0.2356,-0.1795,-0.1795,-0.1795,-0.1795,-0.1793,-0.1776,-0.1804,-0.1716,-0.1688,-0.1717,-0.1774,-0.1804,-0.1809,-0.178,-0.1791,-0.1791,-0.1791,-0.1791,-0.1791,-0.1794,-0.1795,-0.1795,-0.1795,-0.1795,-0.1795,0.0,0.0,0.0,0.0,0.0,0.0,0.0,0.0,0.0,0.0,0.0,0.0,0.0,0.0,0.0,0.0,0.0,0.0,0.0,0.0,-1.003,-1.0363,-1.0988,-1.1313,-1.1281,-1.1533,-1.1533,-1.1281,-1.1151,-1.1102,-1.1151,0.0,0.0,-1.1159,0.0,-1.1313,-1.0785,-1.0509,-1.0404,-1.0399,-1.0335,-1.0343,-1.0264,-1.0027,-0.9286,0.0,0.0,0.0,0.0,0.0,0.0,0.0,-0.6942,-0.7018,-0.7089,-0.6725,-0.6755,-0.6837,-0.6701,-0.647,0.0,-0.708,-0.7307,-0.7008,-0.5793,-0.5782,-0.6225,-0.7144,-0.673,-0.6027,-0.5412,-0.4634,-0.4073,-0.406,-0.3836,-0.386,-0.4377,-0.4371,-0.4033,-0.3353,0.0,0.0,0.0,0.0,0.0,0.0,0.0,0.0,-0.203,-0.2023,-0.1908,-0.1795,-0.1795,-0.1795,-0.1795,-0.1826,-0.1811,0.0,-0.1749,-0.1721,-0.1715,-0.1699,-0.174,-0.1785,-0.1822,-0.1815,-0.1815,-0.1815,-0.1815,-0.1816,-0.1786,-0.1795,-0.1795,-0.1795,-0.1795,-0.1795,0.0,0.0,0.0,0.0,0.0,0.0,0.0,0.0,0.0,0.0,0.0,0.0,0.0,0.0,0.0,0.0,0.0,0.0,0.0,0.0,0.0,-1.0672,-1.1126,-1.1362,-1.1354,-1.1342,-1.1261,-1.1102,-1.0643,-1.0643,-1.1094,0.0,0.0,-1.1001,0.0,-1.0983,-1.0249,-1.0202,-1.0015,-0.9861,-0.9966,-0.9894,-0.9704,-0.8954,-0.8175,-0.7396,-0.6792,0.0,0.0,0.0,0.0,0.0,0.0,0.0,-0.5786,-0.5582,-0.5559,-0.557,-0.5612,-0.5142,0.0,-0.4626,0.0,-0.4754,-0.3794,-0.3569,-0.3743,-0.4559,-0.4384,-0.395,-0.3555,-0.3077,-0.2667,-0.2648,-0.2628,-0.2666,-0.3066,-0.3371,-0.3289,-0.2569,0.0,0.0,0.0,0.0,0.0,0.0,0.0,-0.1789,-0.1774,-0.1774,-0.1767,-0.1752,-0.1752,-0.1752,-0.1752,-0.1735,-0.1727,-0.1727,-0.1736,-0.1714,-0.1715,-0.1677,-0.1716,-0.1772,-0.1741,-0.1727,-0.1727,-0.1727,-0.1791,-0.1807,-0.1822,-0.1782,-0.1795,-0.1795,-0.1795,-0.1795,0.0,0.0,0.0,0.0,0.0,0.0,0.0,0.0,0.0,0.0,0.0,0.0,0.0,0.0,0.0,0.0,0.0,0.0,0.0,0.0,0.0,0.0,-1.0963,-1.1123,-1.1275,-1.0957,0.0,0.0,-1.0206,-1.025,-1.1099,0.0,0.0,-1.0909,0.0,-1.0623,-0.9861,-0.9876,-0.9559,-0.9039,-0.9126,-0.8914,-0.8461,-0.7345,-0.6673,-0.6205,-0.529,-0.482,-0.4684,-0.4701,0.0,0.0,0.0,0.0,-0.4534,-0.4501,-0.4428,-0.4405,-0.4611,-0.3907,-0.2995,-0.228,-0.2168,0.0,-0.2108,-0.2097,-0.2086,-0.2056,-0.2121,-0.2128,-0.2128,-0.206,-0.2048,-0.2023,-0.2014,-0.2001,-0.1973,-0.2459,-0.2567,-0.1986,0.0,0.0,0.0,0.0,0.0,0.0,0.0,-0.1782,-0.1807,-0.1804,-0.179,-0.1705,-0.1704,-0.1704,-0.1704,-0.1699,-0.1697,-0.1696,-0.1669,-0.1708,-0.1714,-0.1708,-0.1739,-0.1794,-0.171,-0.1697,-0.1697,-0.1697,-0.1715,-0.1797,-0.1802,-0.1823,-0.1795,-0.1795,-0.1795,-0.1795,0.0,0.0,0.0,0.0,0.0,0.0,0.0,0.0,0.0,0.0,0.0,0.0,0.0,0.0,0.0,0.0,0.0,0.0,0.0,0.0,0.0,-1.0216,-1.0326,-1.0431,-1.0446,-1.0663,0.0,0.0,-1.0089,-1.0246,-1.0576,-1.0665,0.0,-1.0547,0.0,0.0,-0.9939,-0.9444,-0.8723,-0.7882,-0.7565,-0.6904,-0.6109,-0.5618,-0.4789,-0.3928,-0.3659,-0.2993,-0.2183,-0.2188,-0.219,0.0,0.0,0.0,-0.2129,-0.2089,-0.2078,-0.2036,-0.2132,0.0,-0.2087,0.0,-0.2135,-0.214,0.0,0.0,-0.2023,0.0,-0.2029,-0.2128,-0.2128,-0.2042,-0.2023,-0.2019,-0.1999,-0.1971,-0.1941,-0.1998,-0.1986,-0.1895,0.0,0.0,0.0,0.0,0.0,0.0,-0.1795,-0.1782,-0.1807,-0.1804,-0.179,-0.1705,-0.1704,-0.1704,-0.1704,-0.168,-0.1719,-0.1719,-0.1637,-0.1637,-0.1714,-0.1635,-0.1655,-0.1708,-0.168,-0.1719,-0.1719,-0.1719,-0.1685,-0.1712,-0.1794,-0.1823,-0.1795,-0.1795,-0.1795,-0.1795,0.0,0.0,0.0,0.0,0.0,0.0,0.0,0.0,0.0,0.0,0.0,0.0,0.0,0.0,0.0,-0.9575,0.0,0.0,0.0,0.0,0.0,-0.9969,-1.0044,-1.0126,-1.0216,-1.0159,-1.0085,-0.9921,-0.9493,-0.9652,-1.0199,-1.0046,-1.0146,0.0,0.0,0.0,0.0,0.0,-0.7703,-0.7194,-0.6349,-0.5761,-0.527,-0.4464,-0.3792,-0.3248,-0.256,-0.2055,-0.1658,-0.1675,-0.1681,-0.1678,-0.1718,0.0,0.0,0.0,-0.1603,-0.163,-0.1747,-0.1785,-0.1885,0.0,-0.2027,-0.2038,-0.2038,-0.2029,-0.2011,-0.1982,-0.1997,-0.2015,-0.2015,-0.2004,-0.1994,-0.1994,-0.197,-0.1947,-0.1933,-0.1917,-0.1895,-0.1864,0.0,0.0,0.0,0.0,0.0,0.0,-0.1795,-0.1775,-0.1726,-0.1725,-0.1703,-0.1656,-0.1655,-0.1655,-0.1655,-0.1643,-0.1431,-0.0971,-0.0922,-0.0716,-0.0307,-0.0256,-0.0775,-0.168,-0.165,-0.138,-0.0971,-0.0971,-0.0723,-0.0315,-0.0267,-0.0326,-0.0332,-0.0279,-0.028,-0.0281,0.0,0.0,0.0,0.0,0.0,0.0,0.0,0.0,0.0,0.0,0.0,0.0,0.0,0.0,0.0,0.0,-0.945,0.0,0.0,0.0,0.0,-0.9519,-0.957,-0.9644,-0.9761,-0.9637,-0.9545,-0.9596,-0.9098,-0.9244,-0.9958,-0.9628,-0.9799,0.0,-1.0158,-0.9548,0.0,0.0,0.0,0.0,-0.5033,-0.4508,-0.4129,-0.3288,-0.2864,-0.2704,-0.1865,-0.1617,-0.1621,-0.1643,0.0,-0.1651,-0.1651,-0.1697,0.0,0.0,0.0,-0.1158,0.0,0.0,-0.1543,-0.186,-0.1963,-0.1989,0.0,0.0,-0.1984,0.0,-0.197,-0.1967,-0.1975,-0.1977,-0.1974,-0.1966,-0.1945,-0.1866,-0.185,-0.1888,-0.1864,-0.1832,0.0,0.0,0.0,0.0,0.0,0.0,-0.1795,-0.1768,-0.1707,-0.1491,-0.1363,-0.1315,-0.1111,-0.101,-0.101,-0.101,-0.0707,-0.0101,-0.0102,0.0204,0.0806,0.0818,0.0103,-0.1082,-0.1016,-0.0656,-0.0101,-0.0101,0.0308,0.0836,0.0905,0.0866,0.0826,0.0893,0.0897,0.0899,0.0,0.0,0.0,0.0,0.0,0.0,0.0,0.0,0.0,0.0,0.0,0.0,0.0,-1.0222,-0.9521,-0.9521,-0.9114,-0.88,-0.8765,-0.8612,0.0,-0.8559,-0.8702,0.0,-0.8784,-0.9201,-0.9279,-0.894,-0.9203,-0.9517,-0.9808,-0.9666,-0.9836,-1.032,-0.9944,-0.8982,-0.747,0.0,0.0,0.0,0.0,0.0,0.0,0.0,0.0,0.0,-0.1606,-0.1617,-0.1617,0.0,0.0,0.0,0.0,0.0,0.0,0.0,0.0,0.0,0.0,-0.1145,0.0,-0.1596,-0.187,-0.1907,0.0,0.0,-0.1909,-0.1964,-0.1954,-0.1943,-0.1971,-0.1977,-0.1967,-0.1939,-0.1932,-0.1852,-0.1795,-0.1786,-0.1831,-0.1801,0.0,0.0,0.0,0.0,0.0,0.0,-0.1795,-0.1768,-0.1707,-0.0959,-0.0524,-0.0455,0.0252,0.0655,0.0655,0.0655,0.0706,0.0756,0.0757,0.0757,0.0806,0.0807,0.0757,0.0656,0.0655,0.0706,0.0757,0.0822,0.0837,0.0905,0.0921,0.0883,0.0896,0.0897,0.0897,0.0899,0.0,0.0,0.0,0.0,0.0,0.0,0.0,0.0,0.0,0.0,0.0,0.0,0.0,-1.0078,-0.9186,-0.9072,-0.8858,-0.8664,-0.8521,-0.8505,0.0,-0.8479,-0.8628,-0.8757,-0.8797,-0.892,-0.89,-0.8791,-0.8707,-0.892,-0.9388,-0.9245,-0.9367,-0.97,-0.9693,-0.9334,-0.8588,-0.6735,0.0,0.0,0.0,0.0,0.0,0.0,0.0,0.0,0.0,0.0,0.0,0.0,0.0,0.0,0.0,0.0,0.0,0.0,0.0,0.0,0.0,0.0,0.0,-0.011,-0.062,-0.0921,-0.0357,-0.0594,-0.0827,-0.0299,-0.0179,-0.0179,-0.0121,-0.1165,-0.1966,-0.1936,-0.1914,-0.1888,-0.1788,-0.1824,-0.1808,0.0,0.0,0.0,0.0,0.0,0.0,0.0,0.0,-0.0109,-0.0053,0.0211,0.0517,0.0857,0.1158,0.1309,0.1309,0.0957,0.1058,0.1562,0.1562,0.1866,0.232,0.232,0.232,0.2322,0.24,0.2104,0.1643,0.1654,0.1991,0.2508,0.255,0.2578,0.2594,0.2624,0.2634,0.2644,0.0,0.0,0.0,0.0,0.0,0.0,0.0,0.0,0.0,0.0,0.0,0.0,0.0,0.0,-0.9425,-0.8751,-0.8634,-0.8552,-0.8447,-0.8474,-0.8479,-0.8479,-0.8628,-0.8757,-0.8804,-0.8811,-0.8547,-0.817,-0.7986,-0.7946,-0.7995,-0.787,-0.7947,-0.8205,-0.8199,-0.8141,0.0,0.0,0.0,-0.3996,0.0,0.0,-0.167,0.0,0.0,0.0,0.0,0.0,0.0,0.0,0.0,0.0,0.0,0.0,0.0,0.0,0.0,0.0,0.0809,0.0,0.0,0.0,0.0437,0.0222,0.0689,0.0346,0.0115,0.0641,0.082,0.0827,0.0901,-0.0122,-0.0981,-0.0961,-0.0945,-0.093,-0.0914,-0.0904,-0.0897,0.0,0.0,0.0,0.0,0.0,0.0,0.0,0.0,0.0,0.1109,0.1356,0.1848,0.2668,0.2666,0.2567,0.2416,0.2064,0.2066,0.2421,0.2421,0.2675,0.3232,0.338,0.338,0.3234,0.3654,0.3371,0.2492,0.2573,0.2923,0.3447,0.3504,0.3526,0.3531,0.3572,0.3589,0.3605,0.0,0.0,0.0,0.0,0.0,0.0,0.0,0.0,0.0,0.0,0.0,0.0,0.0,0.0,0.0,-0.8657,-0.8492,-0.8492,-0.8479,-0.8492,-0.8492,-0.8486,0.0,0.0,0.0,0.0,-0.8249,-0.7083,-0.7072,-0.6582,-0.5686,0.0,-0.5647,-0.5882,-0.5579,-0.5376,-0.5252,0.0,-0.3065,-0.1843,0.0,-0.168,-0.1707,0.0,0.0,0.0,-0.1802,-0.1802,0.0,-0.1684,0.0,0.0,0.0,0.0,0.0,0.0,0.0,0.0,0.0,0.0,0.0,0.0,0.0,0.0,0.1,0.0,0.0827,0.0798,0.0929,0.1002,0.1019,0.1095,0.1096,0.1064,0.0988,0.0916,0.0901,0.0899,0.0899,0.0,0.0,0.0,0.0,0.0,0.0,0.0,0.0861,0.1057,0.1658,0.2432,0.3488,0.4788,0.4834,0.4583,0.4034,0.4034,0.3732,0.3181,0.3181,0.3232,0.3229,0.3783,0.3732,0.3335,0.4471,0.4353,0.3384,0.3503,0.3496,0.3504,0.3564,0.3589,0.3589,0.3589,0.3589,0.3608,0.0,0.0,0.0,0.0,0.0,0.0,0.0,0.0,0.0,0.0,0.0,0.0,-1.3257,-1.083,-0.9119,-0.8702,-0.875,-0.8716,-0.8499,-0.8689,-0.8764,-0.8655,-0.8798,-0.8817,0.0,0.0,0.0,0.0,0.0,0.0,0.0,0.0,0.0,0.0,-0.4463,-0.4,-0.3947,-0.3676,0.0,-0.3008,-0.2038,-0.1685,0.0,0.0,0.0,0.0,0.0,-0.1609,-0.1287,0.0,0.0054,0.0477,0.0,0.0,0.0,0.0,0.0,0.0,0.3608,0.0,0.0,0.0,0.0,0.0,0.0,0.0,0.2373,0.2647,0.3112,0.3487,0.3588,0.3931,0.4217,0.4279,0.2424,0.1005,0.1048,0.1045,0.1219,0.0,0.0,0.0,0.0,0.0,0.0,0.0,0.3665,0.3603,0.412,0.4582,0.501,0.5386,0.5386,0.5135,0.4583,0.4185,0.3732,0.3181,0.3181,0.338,0.3783,0.3934,0.4131,0.4386,0.4779,0.4802,0.4605,0.4273,0.3905,0.3564,0.358,0.3589,0.3589,0.3589,0.3616,0.3665,0.0,0.0,0.0,0.0,0.0,0.0,0.0,0.0,0.0,0.0,0.0,0.0,-1.2717,-1.0523,-0.915,-0.9089,-0.9049,-0.8954,-0.8825,-0.8872,-0.8844,-0.8811,-0.8838,-0.8885,-0.8885,0.0,0.0,0.0,0.0,0.0,0.0,0.0,0.0,0.0,0.0,0.0,0.0,0.0,0.0,0.0,-0.1937,0.0,0.0,-0.1699,-0.1699,0.0,0.0,0.0,-0.1164,0.0163,0.1288,0.0,0.0,0.0,0.0,0.0,0.0,0.0,0.0,0.0,0.0,0.0,0.0,0.0,0.4412,0.4005,0.3702,0.0,0.4329,0.4629,0.4756,0.5133,0.5407,0.5512,0.4092,0.2992,0.3004,0.2997,0.3173,0.3582,0.0,0.0,0.0,0.4435,0.4487,0.5373,0.4913,0.4785,0.5305,0.5746,0.5982,0.5937,0.5937,0.5687,0.5135,0.4834,0.4383,0.3883,0.3883,0.4034,0.4332,0.4583,0.4754,0.4896,0.5451,0.5501,0.5169,0.52,0.4716,0.3977,0.3698,0.3602,0.3624,0.3624,0.3662,0.3725,0.0,0.0,0.0,0.0,0.0,0.0,0.0,0.0,0.0,0.0,0.0,0.0,0.0,0.0,0.0,0.0,-0.9361,-0.9234,-0.9234,-0.9028,-0.8885,-0.8885,-0.8885,-0.883,-0.8712,-0.7543,0.0,0.0,0.0,0.0,0.0,0.0,0.0,0.0,0.0,0.0,0.0,0.0,0.0,-0.1707,-0.1686,-0.1722,0.0,0.0,-0.1778,-0.1709,-0.1402,-0.1194,-0.0866,0.0706,0.2519,0.0,0.0,0.0,0.0,0.0,0.4974,0.0,0.0,0.0,0.0,0.0,0.0,0.0,0.4956,0.4855,0.4808,0.0,0.4874,0.5014,0.5156,0.5421,0.5593,0.5602,0.5764,0.586,0.573,0.5726,0.573,0.5852,0.0,0.0,0.5881,0.5583,0.5511,0.5631,0.5252,0.5203,0.5706,0.6241,0.65,0.6387,0.6387,0.6137,0.5586,0.5586,0.5336,0.4784,0.4784,0.4834,0.4885,0.5386,0.5441,0.5236,0.6317,0.627,0.5515,0.6042,0.5639,0.4536,0.3921,0.3737,0.3793,0.3793,0.3835,0.3906,-1.9194,0.0,0.0,0.0,0.0,0.0,0.0,0.0,0.0,0.0,0.0,0.0,0.0,0.0,0.0,0.0,-0.9578,-0.934,-0.934,-0.9089,-0.8885,-0.8885,-0.8885,-0.8436,-0.7487,-0.6311,0.0,0.0,0.0,0.0,0.0,0.0,0.0,0.0,0.0,0.0,0.0,0.0,0.0,-0.1643,-0.17,0.0,-0.178,-0.1731,-0.156,-0.1408,-0.1347,-0.0432,0.103,0.3414,0.5035,0.6056,0.0,0.0,0.0,0.0,0.0,0.0,0.0,0.0,0.0,0.0,0.0,0.0,0.5752,0.5676,0.5557,0.0,0.5283,0.5652,0.5753,0.6251,0.6699,0.6842,0.6992,0.6813,0.5864,0.581,0.6037,0.6584,0.0,0.0,0.7125,0.656,0.6354,0.6702,0.6432,0.6277,0.6379,0.6412,0.6414,0.6387,0.6387,0.6137,0.5586,0.5586,0.5336,0.4784,0.4784,0.5035,0.5436,0.5536,0.5845,0.6313,0.654,0.6674,0.666,0.63,0.5804,0.515,0.4536,0.4359,0.4421,0.4478,0.4564,0.4681,-1.8944,0.0,0.0,0.0,0.0,0.0,0.0,0.0,0.0,0.0,0.0,0.0,0.0,0.0,0.0,0.0,0.0,0.0,0.0,0.0,-0.9015,-0.8885,-0.8325,-0.7709,-0.7099,-0.5421,-0.4191,0.0,0.0,0.0,0.0,0.0,0.0,0.0,0.0,0.0,0.0,0.0,-0.1603,-0.1672,-0.1666,0.0,-0.1707,-0.1546,-0.1432,-0.121,-0.0368,0.126,0.3202,0.4446,0.5702,0.0,0.0,0.6698,0.6774,0.0,0.6709,0.679,0.0,0.0,0.0,0.6877,0.0,0.0,0.0,0.6205,0.6087,0.5727,0.5876,0.6093,0.6209,0.66,0.691,0.697,0.723,0.7217,0.6574,0.676,0.7011,0.7378,0.0,0.0,0.7563,0.7101,0.6811,0.691,0.6834,0.6747,0.6627,0.6562,0.6452,0.6387,0.6387,0.6287,0.5987,0.5987,0.5887,0.5586,0.5586,0.5737,0.5987,0.6042,0.6338,0.6714,0.6774,0.6904,0.7067,0.6793,0.6493,0.6214,0.5366,0.5096,0.5118,0.5218,0.5312,0.5418,-1.8532,0.0,0.0,0.0,0.0,0.0,0.0,0.0,0.0,0.0,0.0,0.0,0.0,0.0,0.0,0.0,0.0,0.0,0.0,0.0,-0.9062,-0.8892,-0.7765,-0.6972,-0.6729,-0.4689,-0.3469,-0.3245,0.0,0.0,0.0,0.0,0.0,0.0,0.0,0.0,0.0,0.0,0.0,-0.1613,0.0,-0.1563,-0.1529,-0.1312,-0.1158,-0.0883,0.0933,0.2993,0.4846,0.5091,0.5865,0.6741,0.6589,0.679,0.0,0.0,0.0,0.0,0.0,0.0,0.0,0.0,0.0,0.6899,0.0,0.0,0.0,0.6715,0.6681,0.6675,0.0,0.0,0.0,0.0,0.0,0.0,0.0,0.7589,0.0,0.7801,0.0,0.0,0.7633,0.7323,0.7089,0.6817,0.6893,0.6855,0.6632,0.6622,0.6562,0.6392,0.6387,0.6387,0.6387,0.6387,0.6387,0.6387,0.6387,0.6398,0.6425,0.6573,0.6698,0.6844,0.6942,0.7051,0.721,0.721,0.7226,0.7142,0.6162,0.5739,0.5773,0.5928,0.6016,0.6092,-1.8437,-1.8758,0.0,0.0,0.0,0.0,0.0,0.0,0.0,0.0,0.0,0.0,0.0,0.0,0.0,0.0,0.0,0.0,-1.0331,0.0,0.0,0.0,-0.7765,-0.6548,-0.536,-0.4218,-0.308,-0.2018,0.0,0.0,0.0,0.0,0.0,0.0,-0.1649,0.0,0.0,0.0,-0.1305,0.0,-0.1092,-0.1143,0.0,-0.104,-0.078,-0.0208,0.2124,0.3738,0.4964,0.0,0.6483,0.6671,0.0,0.6883,0.6877,0.71,0.0,0.0,0.0,0.0,0.0,0.0,0.7366,0.0,0.0,0.0,0.8208,0.7954,0.0,0.0,0.0,0.0,0.0,0.0,0.0,0.0,0.7232,0.7399,0.7557,0.7557,0.7453,0.0,0.0,0.7149,0.6948,0.6812,0.6817,0.6763,0.6627,0.6622,0.6562,0.6392,0.6387,0.6387,0.6387,0.6387,0.6387,0.6387,0.6387,0.6441,0.66,0.6611,0.6747,0.6964,0.698,0.7051,0.721,0.721,0.722,0.7204,0.6588,0.6369,0.6418,0.6643,0.6742,0.6888,-1.817,-1.8611,0.0,0.0,0.0,0.0,0.0,0.0,0.0,0.0,0.0,0.0,0.0,0.0,0.0,0.0,0.0,-1.0249,0.0,0.0,0.0,0.0,0.0,-0.6016,-0.5524,-0.357,-0.2319,-0.1823,-0.1776,0.0,0.0,0.0,0.0,0.0,-0.1632,0.0,-0.1607,0.0,-0.1197,0.0,0.0,0.0,0.0,-0.0672,0.0361,0.1887,0.3516,0.4813,0.5792,0.0,0.6605,0.0,0.0,0.0,0.0,0.0,0.0,0.0,0.0,0.0,0.0,0.0,0.0,0.0,0.7889,0.0,0.9082,0.0,0.0,0.0,0.0,0.0,0.0,0.0,0.8567,0.0,0.0,0.0,0.7844,0.0,0.0,0.0,0.0,0.0,0.0,0.0,0.6866,0.6855,0.673,0.666,0.6594,0.6495,0.6425,0.6387,0.6387,0.6387,0.6387,0.6387,0.6457,0.6567,0.6622,0.6768,0.6888,0.6991,0.7111,0.7166,0.721,0.721,0.7225,0.7288,0.7127,0.7105,0.7223,0.7391,0.7464,0.75,-1.7876,0.0,0.0,0.0,0.0,0.0,-1.9655,-1.9962,-1.972,-1.8483,0.0,0.0,-1.4631,-1.373,0.0,0.0,-1.105,-1.0704,0.0,0.0,-0.9768,0.0,0.0,0.0,0.0,-0.3087,-0.1826,-0.1818,0.0,0.0,0.0,0.0,0.0,0.0,0.0,-0.139,-0.1396,0.0,-0.1,-0.0916,-0.0456,-0.0303,-0.0253,0.0051,0.1428,0.3324,0.4433,0.5486,0.6392,0.6425,0.6605,0.0,0.6584,0.0,0.0,0.0,0.0,0.0,0.7193,0.0,0.0,0.0,0.0,0.0,0.0,0.0,0.0,0.0,0.0,0.0,0.0,0.0,0.0,0.0,0.0,0.9742,0.0,0.9019,0.0,0.0,0.0,0.0,0.0,0.0,0.0,0.6866,0.6937,0.6931,0.6812,0.6719,0.6671,0.6671,0.6584,0.6484,0.6484,0.6484,0.6484,0.6489,0.6627,0.6687,0.6725,0.6904,0.7002,0.7035,0.7177,0.721,0.7215,0.7248,0.7274,0.7342,0.7524,0.7644,0.7758,0.7839,0.7872,0.7872,-1.7595,-1.7849,0.0,0.0,0.0,0.0,-1.9334,-1.9261,-1.9236,-1.91,-1.8192,-1.7265,-1.6215,-1.4911,0.0,0.0,0.0,-1.1214,-1.1124,0.0,-0.9625,0.0,0.0,-0.5451,0.0,0.0,0.0,0.0,0.0,0.0,0.0,0.0,0.0,0.0,0.0,-0.0866,-0.088,-0.056,-0.0408,-0.0415,-0.0102,0.0,0.0101,0.0,0.2219,0.3324,0.4433,0.0,0.0,0.6573,0.6622,0.0,0.0,0.0,0.0,0.0,0.0,0.0,0.0,0.0,0.0,0.8097,0.0,0.0,0.0,0.0,1.1063,0.0,0.0,0.0,0.0,0.0,0.0,0.0,0.0,0.0,0.0,0.0,0.0,0.0,0.0,0.0,0.0,0.0,0.7161,0.6986,0.698,0.6931,0.6812,0.6796,0.6796,0.6796,0.679,0.679,0.679,0.679,0.679,0.679,0.6796,0.6861,0.6975,0.698,0.7046,0.7204,0.721,0.721,0.7221,0.7279,0.7404,0.7524,0.7649,0.7763,0.7867,0.7872,0.7872,0.7872,0.0,0.0,0.0,0.0,0.0,-1.9092,-1.9257,-1.9361,-1.9157,-1.8496,-1.8237,-1.7417,-1.5701,-1.4898,-1.3877,0.0,0.0,-1.1436,-1.105,-1.0643,0.0,0.0,0.0,-0.549,0.0,0.0,0.0,0.0,0.0,0.0,0.0,0.0,0.0,0.0,0.0,-0.0802,0.0,0.0,0.0,0.0,0.0,0.0,0.0206,0.0,0.0,0.3425,0.5231,0.6087,0.0,0.6435,0.6551,0.6611,0.6573,0.6671,0.6785,0.6703,0.6741,0.0,0.0,0.0,0.6996,0.7345,0.0,0.0,0.0,0.0,0.0,0.0,0.0,0.0,0.0,0.0,0.0,0.0,0.0,0.0,0.0,0.0,0.0,0.0,0.0,0.0,0.0,0.0,0.0,0.7596,0.7135,0.6812,0.6687,0.6757,0.6763,0.6681,0.6757,0.6763,0.6681,0.6763,0.6801,0.6801,0.6883,0.6942,0.6986,0.7117,0.7172,0.721,0.721,0.7198,0.7279,0.7317,0.7453,0.7644,0.7687,0.7769,0.7872,0.7872,0.7872,0.7944,-1.7978,0.0,0.0,0.0,-1.848,-1.892,-1.9043,-1.8896,-1.8602,-1.8157,-1.7867,-1.7085,-1.5398,-1.4907,-1.4183,0.0,-1.2203,-1.1742,-1.1145,-1.0435,0.0,-0.8388,-0.6442,-0.4946,0.0,0.0,0.0,0.0,0.0,-0.1721,0.0,0.0,0.0,0.0,0.0,-0.0502,-0.0505,-0.0351,-0.0251,0.0,0.0,0.0,0.0,0.0,0.2884,0.3456,0.0,0.6087,0.6387,0.6387,0.6435,0.6489,0.6414,0.6495,0.666,0.6578,0.6611,0.6681,0.6725,0.6736,0.0,0.7205,0.8085,0.0,0.9716,0.0,0.0,0.0,0.0,0.0,0.0,0.0,0.0,0.0,0.0,0.0,0.0,1.1358,0.0,0.0,0.0,0.0,0.0,0.0,0.8043,0.7461,0.7004,0.6703,0.0,0.0,0.6785,0.6752,0.6866,0.7048,0.7287,0.7369,0.757,0.7892,0.7979,0.7804,0.7537,0.7619,0.7654,0.7654,0.7756,0.7989,0.8306,0.8399,0.8605,0.8712,0.8408,0.8533,0.8848,0.8228,0.7964,0.8013,-1.7978,-1.7563,0.0,-1.8721,-1.8829,-1.8731,-1.8741,-1.7942,-1.7465,-1.7959,-1.7165,-1.6142,-1.5209,-1.4956,-1.4357,-1.3089,-1.2535,-1.2026,-1.143,-0.9796,0.0,0.0,-0.5364,-0.3862,-0.363,0.0,0.0,0.0,0.0,0.0,0.0,0.0,0.0,0.0,-0.0105,0.0,0.0,0.0,0.0,0.0,0.0,0.0,0.0101,0.111,0.2243,0.3357,0.4412,0.5486,0.6387,0.6387,0.6387,0.6387,0.6387,0.6387,0.6387,0.6387,0.6387,0.6414,0.6578,0.6611,0.6765,0.7539,0.0,0.0,0.0,0.0,1.1087,0.0,0.0,0.0,0.0,0.0,0.0,0.0,0.0,0.0,0.0,0.0,0.0,0.0,0.0,0.0,0.0,0.8427,0.7883,0.6798,0.6673,0.6667,0.0,0.0,0.6914,0.7018,0.7205,0.7715,0.8527,0.8546,0.8982,0.9794,0.9794,0.9361,0.8608,0.854,0.8602,0.8621,0.8802,0.932,1.0156,1.0471,1.0606,1.051,0.9707,0.995,1.0587,0.8815,0.8196,0.8306,-1.7751,-1.8091,-1.8458,-1.8693,-1.8411,-1.8342,-1.8902,-1.8044,-1.7169,-1.6735,-1.592,-1.5035,-1.3977,-1.3715,-1.3415,-1.2722,-1.2311,0.0,0.0,0.0,0.0,-0.704,-0.5245,-0.3672,-0.2514,-0.1985,0.0,-0.1577,0.0,0.0,-0.1009,0.0,0.0,0.0,0.0,0.0,0.0,0.0,0.0,0.0,0.0,0.0,0.0,0.0,0.1581,0.3357,0.4412,0.5486,0.6387,0.6387,0.6387,0.6387,0.6387,0.6387,0.6387,0.6387,0.6387,0.6392,0.6425,0.643,0.6502,0.685,0.7337,0.787,0.0,0.0,0.0,0.0,0.0,0.0,0.0,0.0,0.0,0.0,0.0,0.0,0.0,0.0,0.0,1.2212,0.0,0.0,1.1313,0.9998,0.8972,0.8685,0.8007,0.0,0.0,0.0,0.0,0.7657,0.8127,0.8703,0.9305,0.9591,0.9698,0.9794,0.9794,0.9758,0.97,0.9521,0.9657,0.9931,0.9801,1.0017,1.0478,1.0561,1.0673,1.0726,1.0528,1.0689,1.1018,0.963,0.9323,0.9404,-1.7975,-1.8264,-1.8629,-1.8717,-1.7919,-1.7545,-1.8076,-1.6711,-1.5547,-1.5241,-1.4465,0.0,-1.307,-1.2929,-1.2779,-1.2522,-1.2169,0.0,-1.1416,0.0,0.0,-0.6584,-0.4492,-0.2922,-0.2109,-0.1743,0.0,-0.1482,0.0,0.0,-0.0672,0.0,0.0,0.0,0.0,0.0,0.0,0.0,0.0,0.0,0.0,0.0,0.0,0.0,0.1067,0.2657,0.3742,0.5081,0.6387,0.6387,0.6387,0.6387,0.6387,0.6387,0.6387,0.6387,0.6387,0.6387,0.6387,0.6387,0.6403,0.6473,0.6788,0.7216,0.7712,0.8204,0.8962,0.0,0.0,0.0,0.0,0.0,0.0,0.0,0.0,0.0,0.0,0.0,0.0,0.0,1.201,0.0,1.2337,1.0184,0.8924,0.9362,0.8446,0.0,0.0,0.0,0.0,0.8668,0.9182,0.9807,1.0382,1.0651,1.0924,1.1134,1.1134,1.1011,1.0785,1.0683,1.0738,1.0985,1.0962,1.1297,1.1846,1.1929,1.2021,1.207,1.2153,1.2106,1.1909,1.1247,1.0955,1.0647,-1.8309,-1.835,0.0,0.0,0.0,-1.6488,-1.6782,-1.4982,0.0,-1.3954,0.0,-1.2549,-1.2508,-1.2501,-1.2481,-1.242,0.0,-1.1687,-1.1409,-0.8568,-0.6756,-0.646,-0.3656,-0.2116,-0.2048,-0.1731,-0.1505,0.0,0.0,0.0,0.0,0.0,0.0,0.0,0.0,0.0,0.0,0.0,0.0,0.0,0.0,0.0,0.0,0.0,0.0656,0.1713,0.267,0.4379,0.6237,0.6337,0.6387,0.6387,0.6387,0.6387,0.6387,0.6387,0.6387,0.6387,0.6387,0.6387,0.6387,0.6387,0.6387,0.6614,0.749,0.7718,0.8166,0.988,1.0451,1.0887,0.0,0.0,0.0,0.0,0.0,0.0,0.0,0.0,0.0,0.0,0.0,0.0,1.2457,0.9981,0.8723,0.9549,0.0,0.0,0.0,0.0,0.0,0.9747,1.0306,1.0906,1.1608,0.0,1.2214,1.2908,1.288,1.2513,1.1891,1.1923,1.1882,1.1992,1.2197,1.2745,1.3438,1.3618,1.3703,1.375,1.3967,1.3678,1.3113,1.3046,1.2686,1.2025,-1.8289,0.0,0.0,0.0,0.0,-1.5615,-1.5834,-1.4731,-1.3982,-1.4255,-1.3523,-1.2786,-1.2528,-1.2501,-1.2352,-1.1979,-1.1769,0.0,0.0,0.0,0.0,-0.6617,-0.3777,-0.2012,-0.1677,-0.1355,-0.1009,0.0,0.0,0.0,0.0,0.0,0.0,0.0,0.0,0.0,0.0,0.0,0.0,0.0,0.0,0.0,0.0,0.0,0.0656,0.1613,0.1814,0.3274,0.5236,0.6087,0.6387,0.6387,0.6387,0.6387,0.6387,0.6387,0.6387,0.6387,0.6387,0.6387,0.6387,0.6387,0.6387,0.6442,0.6614,0.667,0.7006,0.8115,0.8925,0.9697,1.0655,0.0,0.0,0.0,0.0,0.0,0.0,0.0,0.0,0.0,0.0,1.1926,0.0,1.1658,1.0874,0.0,0.0,0.0,0.0,0.0,0.0,0.0,1.109,0.0,0.0,0.0,1.3199,1.3277,1.3155,1.3069,1.3091,1.2915,1.3017,1.3333,1.3203,1.3367,1.3636,1.3674,1.3797,1.3977,1.4175,1.4266,1.4217,1.3492,1.3718,1.4071,-1.8469,0.0,0.0,0.0,0.0,0.0,0.0,-1.3759,-1.2985,-1.2971,-1.2641,-1.2291,-1.2067,-1.2108,-1.204,-1.1748,-1.1586,-1.1402,-1.1179,-0.9023,-0.7432,-0.6568,-0.4448,-0.2749,-0.1598,-0.1287,-0.0881,-0.0499,0.0,0.0,0.0,0.0,0.0,0.0,0.0,0.0,0.0,0.0,0.0,0.0,0.0,0.0,0.0,0.0,0.0303,0.0858,0.1412,0.2267,0.3374,0.5031,0.5937,0.6387,0.6387,0.6387,0.6387,0.6387,0.6387,0.6387,0.6387,0.6387,0.6387,0.6387,0.6387,0.6387,0.6387,0.6387,0.6653,0.7573,0.8032,0.8809,1.031,1.1495,0.0,0.0,0.0,0.0,0.0,0.0,0.0,0.0,0.0,0.0,0.0,0.0,0.0,0.0,0.0,0.0,0.0,0.0,0.0,0.0,0.0,0.0,0.0,0.0,0.0,1.3391,1.3287,1.3343,1.3542,1.3438,1.3504,1.3684,1.3589,1.3665,1.3863,1.3967,1.4071,1.4185,1.4402,1.4544,1.4529,1.427,1.4464,1.467,0.0,-1.8297,0.0,0.0,-1.601,-1.4877,-1.3993,-1.2868,-1.1979,-1.1742,-1.1809,-1.1823,-1.1681,-1.1735,-1.1728,-1.1586,-1.1402,-1.1199,-1.0894,-0.9549,-0.8065,-0.6502,-0.5034,-0.3406,-0.1516,-0.1218,-0.0876,0.0,0.0,0.0,0.0,0.0,0.0,0.0,0.0,0.0,0.0,0.0,0.0,0.0,0.0,0.0,0.0,0.0,0.0,0.0101,0.0958,0.1562,0.2217,0.3877,0.5181,0.6087,0.6337,0.6387,0.6387,0.6387,0.6387,0.6387,0.6387,0.6387,0.6387,0.6387,0.6387,0.6387,0.6387,0.6387,0.6587,0.7229,0.7653,0.8456,1.025,1.1576,0.0,0.0,0.0,0.0,0.0,0.0,0.0,0.0,0.0,0.0,1.2394,0.0,0.0,0.0,0.0,0.0,1.1554,0.0,0.0,0.0,0.0,1.3136,1.3136,0.0,1.3627,1.3523,1.3476,1.3532,1.3693,1.3693,1.3712,1.3759,1.3759,1.3882,1.409,1.4241,1.4336,1.4392,1.4563,1.4657,1.4649,1.4809,1.4866,1.48,0.0,0.0,0.0,0.0,0.0,-1.3807,-1.3544,-1.2729,-1.2128,-1.2026,-1.2033,-1.1979,-1.183,-1.1708,-1.1579,-1.1423,-1.1151,-1.0907,-1.088,-0.9466,-0.7984,-0.6431,-0.5034,-0.3339,-0.1186,-0.109,-0.0748,0.0,0.0,0.0,0.0,0.0,0.0,0.0,0.0,0.0,0.0,0.0,0.0,0.0,0.0,0.0,0.0,0.0,0.0,0.0,0.0101,0.1412,0.3073,0.3274,0.4078,0.5135,0.6087,0.6387,0.6387,0.6387,0.6387,0.6387,0.6387,0.6387,0.6387,0.6387,0.6387,0.6387,0.6387,0.6387,0.6437,0.6487,0.7831,0.9297,1.0379,1.1576,1.2512,0.0,0.0,0.0,0.0,0.0,0.0,0.0,0.0,0.0,0.0,1.284,0.0,0.0,1.1925,0.0,0.0,0.0,0.0,1.186,0.0,1.3362,1.3362,1.358,1.3778,1.3948,1.3759,1.3674,1.3693,1.3693,1.3797,1.3986,1.3986,1.4099,1.4279,1.4307,1.443,1.4546,1.4565,1.4678,1.4838,1.4856,1.4866,1.4866,0.0,0.0,0.0,0.0,0.0,0.0,0.0,-1.2042,-1.1728,-1.1545,-1.1755,-1.183,-1.1592,-1.1518,-1.1382,-1.1145,-1.0948,-1.084,-1.0819,-1.0212,-0.8839,-0.6498,-0.5834,-0.4184,-0.1171,-0.1094,-0.075,0.0,0.0,0.0,0.0,0.0,0.0,0.0,0.0,0.0,0.0,0.0,0.0,0.0,0.0,0.0,0.0,0.0,0.0,0.0,0.0,0.0958,0.2318,0.2972,0.4329,0.5837,0.6287,0.6387,0.6387,0.6387,0.6387,0.6387,0.6387,0.6387,0.6387,0.6387,0.6387,0.6387,0.6387,0.6387,0.6387,0.6387,0.796,0.9451,1.0099,1.15,1.2748,0.0,0.0,0.0,0.0,0.0,0.0,0.0,0.0,0.0,0.0,0.0,0.0,0.0,0.0,0.0,0.0,0.0,0.0,1.2137,0.0,1.3136,1.3391,1.3721,1.3929,1.4014,1.4043,1.4062,1.4062,1.4062,1.4109,1.4194,1.4326,1.443,1.4515,1.4638,1.4733,1.4753,1.4753,1.48,1.4866,1.4866,1.4866,1.4866,-1.4436,0.0,-1.368,0.0,-1.292,-1.254,-1.1612,-1.1484,-1.1409,-1.1192,-1.1436,-1.1552,-1.1348,-1.1287,-1.1179,-1.09,-1.084,-1.0766,-1.0724,-1.0717,-0.9377,-0.6368,-0.6273,0.0,-0.0973,-0.0901,-0.0627,0.0,0.0,0.0,0.0,0.0,0.0,0.0,0.0,0.0,0.0,0.0,0.0,0.0,0.0,0.0,0.0,0.0,0.0,0.0,0.0,0.0908,0.2167,0.2922,0.463,0.6387,0.6387,0.6387,0.6387,0.6387,0.6387,0.6387,0.6387,0.6387,0.6387,0.6387,0.6414,0.643,0.6392,0.6414,0.6441,0.6441,0.7865,0.9154,0.9421,1.0986,1.2454,1.315,0.0,0.0,0.0,0.0,0.0,0.0,1.4002,1.4071,1.2991,1.3029,0.0,0.0,0.0,0.0,0.0,0.0,0.0,0.0,0.0,0.0,0.0,1.3952,1.4099,1.4099,1.4241,1.4307,1.4317,1.4374,1.4402,1.4421,1.4629,1.4723,1.4668,1.4809,1.4866,1.4866,1.4866,1.4866,1.4866,1.4866,1.4969,1.5016,-1.2968,-1.194,-1.0995,-1.1214,-1.1234,-1.1234,-1.1234,-1.1165,-1.1165,-1.1234,-1.1165,-1.1241,-1.1165,-1.1036,-1.0887,-1.088,-1.0812,-1.0724,-1.0717,-1.0717,-0.9244,0.0,0.0,-0.4204,-0.0593,-0.0513,-0.0313,0.0,0.0,0.0,0.0,0.0,0.0,0.0,0.0,0.0,0.0,0.0,0.0,0.0,0.0,0.0,0.0,0.0,0.0,0.0,0.0,0.1361,0.3173,0.3173,0.463,0.6387,0.6387,0.6387,0.6387,0.6387,0.6387,0.6387,0.6387,0.6387,0.6387,0.6387,0.6478,0.6584,0.6414,0.6478,0.6616,0.6616,0.7492,0.8365,0.8514,0.9794,1.1281,1.2682,0.0,0.0,0.0,0.0,0.0,0.0,1.4977,1.4779,1.4327,1.4195,0.0,0.0,0.0,0.0,0.0,0.0,0.0,1.4288,1.4463,0.0,1.457,1.4398,1.4307,1.4307,1.4307,1.4307,1.4317,1.4534,1.4629,1.4638,1.4781,1.4931,1.4931,1.4866,1.4866,1.4866,1.4866,1.4866,1.4866,1.4866,1.5054,1.5233,-1.1514,-1.1212,-1.0995,-1.1138,-1.1234,-1.1131,-1.1029,-1.1097,-1.109,-1.0887,-1.0948,-1.0975,-1.0873,-1.0914,-1.084,0.0,-1.0751,-1.0717,0.0,-0.9576,-0.7969,-0.5967,-0.4742,-0.2922,-0.0527,-0.0523,-0.032,0.0,0.0,0.0,0.0,0.0,0.0,0.0,0.0,0.0,0.0,0.0,0.0,0.0,0.0,0.0,0.0,0.0,0.0,0.0101,0.0807,0.2016,0.3324,0.4028,0.5231,0.6387,0.6387,0.6387,0.6387,0.6387,0.6387,0.6387,0.6387,0.6446,0.6562,0.6562,0.6654,0.6736,0.6698,0.6779,0.6915,0.7073,0.7887,0.8665,0.9007,1.0406,1.1795,1.2466,1.3361,0.0,0.0,0.0,0.0,0.0,1.4188,1.4451,1.364,1.4275,0.0,0.0,0.0,0.0,0.0,0.0,0.0,0.0,1.4758,0.0,1.5084,1.4697,1.4534,1.4534,1.4666,1.4733,1.4733,1.4808,1.4772,1.4837,1.4838,1.4866,1.4866,1.4866,1.4866,1.4866,1.4866,1.4866,1.495,1.5016,1.5177,1.5252,-1.0846,-1.0793,-1.0894,-1.0982,-1.0995,-1.0968,-1.0806,-1.0941,-1.0928,-1.0744,-1.0331,-0.9942,-0.9715,-0.9314,0.0,-0.9649,-0.9576,-0.9244,-0.8773,-0.7636,-0.6297,-0.4763,-0.3606,-0.219,-0.033,-0.0326,0.0,0.0,0.0,0.0,0.0,0.0,0.0,0.0,0.0,0.0,0.0,0.0,0.0259,0.0675,0.0675,0.0931,0.1338,0.1338,0.1338,0.144,0.2041,0.2951,0.3967,0.4626,0.5592,0.6462,0.6556,0.6573,0.6505,0.6414,0.6419,0.6457,0.6457,0.6594,0.6687,0.6687,0.6812,0.6948,0.6991,0.7062,0.716,0.725,0.7829,0.8375,0.8848,1.0395,1.1875,1.2794,1.3854,1.4449,1.4039,0.0,0.0,0.0,0.0,0.0,0.0,1.4551,1.5085,0.0,0.0,0.0,0.0,0.0,0.0,1.5572,1.5336,0.0,1.5428,1.4958,1.4678,1.4687,1.4809,1.4866,1.4866,1.4866,1.4866,1.4866,1.4866,1.4866,1.4866,1.4866,1.4866,1.4941,1.495,1.4979,1.5073,1.5281,1.5404,1.5489,-1.0717,-1.0717,-1.0717,0.0,-1.0717,0.0,-1.0658,-1.0585,-1.0518,-1.0452,-0.9244,-0.8235,-0.7831,-0.6635,-0.6301,-0.7498,0.0,0.0,0.0,-0.5295,-0.4492,-0.2752,-0.2585,-0.1713,-0.0066,0.0,0.0,0.0,0.0,0.0,0.0,0.0,0.0,0.0,0.0,0.0053,0.0104,0.0104,0.0833,0.1924,0.1924,0.2624,0.3613,0.3613,0.3613,0.3604,0.3543,0.4143,0.5021,0.5124,0.5798,0.6649,0.6763,0.6801,0.6757,0.6478,0.6489,0.6632,0.6632,0.6719,0.6817,0.6823,0.7008,0.727,0.7334,0.7304,0.7309,0.7315,0.747,0.7746,0.8471,0.9971,1.1699,1.3519,1.4295,1.4844,1.5246,0.0,0.0,0.0,0.0,0.0,0.0,1.4955,1.5523,0.0,0.0,0.0,0.0,0.0,1.6356,1.6217,1.621,1.6066,1.5724,1.5161,1.4866,1.4866,1.4866,1.4866,1.4866,1.4866,1.4866,1.4866,1.4866,1.4866,1.4866,1.4866,1.4866,1.495,1.5092,1.5233,1.5262,1.5498,1.5765,1.5936,0.0,0.0,-1.0717,-1.0717,-1.0717,-1.0591,-1.0392,-0.9377,-0.8568,-0.8302,-0.7036,-0.6097,-0.603,-0.5429,-0.476,-0.4024,-0.5162,-0.5763,-0.5429,-0.4091,-0.3155,-0.2752,-0.1407,-0.0469,0.0,0.0,0.0,0.0,0.0,0.0,0.0,0.0,0.0,0.0,0.0,0.0488,0.1348,0.1348,0.2048,0.3178,0.3178,0.3321,0.3613,0.3613,0.3613,0.3716,0.4492,0.4962,0.5277,0.6123,0.6548,0.6763,0.679,0.6801,0.679,0.6736,0.6736,0.6757,0.6757,0.685,0.6964,0.7106,0.7252,0.7464,0.7589,0.7616,0.7638,0.7725,0.7839,0.8464,0.9988,1.1205,1.2416,1.3573,1.5094,1.5616,1.4401,1.4869,0.0,0.0,1.4193,1.4546,1.3938,1.4876,1.5726,0.0,0.0,0.0,0.0,1.7817,1.7936,1.7458,1.6848,1.6562,1.6668,1.5489,1.4866,1.4866,1.4866,1.4866,1.4866,1.4866,1.4866,1.4866,1.4866,1.4866,1.4866,1.4866,1.4866,1.495,1.5092,1.5233,1.5281,1.5649,1.5889,1.5955,-1.0717,-1.0717,-1.0518,-0.9848,-0.9715,-0.9377,-0.8379,-0.7569,-0.6898,-0.6569,-0.5295,-0.4359,-0.4158,-0.3354,-0.2484,-0.1545,-0.2954,-0.3624,-0.2954,-0.2016,-0.1478,-0.1478,-0.0535,0.0,0.0,0.0,0.0,0.0,0.0,0.0,0.0,0.0,0.0288,0.0849,0.0836,0.1485,0.2617,0.2617,0.3327,0.4416,0.4416,0.4738,0.5272,0.5272,0.5272,0.5322,0.5822,0.6022,0.6129,0.6669,0.6883,0.6893,0.6948,0.7002,0.7046,0.7046,0.7008,0.6975,0.7029,0.7133,0.7269,0.7495,0.7702,0.7954,0.8016,0.8273,0.8441,0.8447,0.8551,0.9052,1.0267,1.1632,1.2775,1.3412,1.5073,1.5881,1.4593,1.512,0.0,1.4193,1.4859,1.5226,1.4808,1.5455,1.6112,1.672,1.7051,0.0,1.7865,1.8493,1.8488,1.7584,1.7074,1.6679,1.6548,1.5453,1.4866,1.4866,1.4866,1.4866,1.4866,1.4866,1.4866,1.4941,1.5026,1.495,1.4941,1.5035,1.5073,1.5092,1.53,1.5441,1.5555,1.5886,1.6008,1.6027,-1.0617,-1.0432,-0.9915,-0.864,-0.8307,-0.7636,-0.5967,-0.5566,-0.5366,-0.4961,-0.3624,-0.262,-0.235,-0.1143,-0.0337,0.0,-0.1076,-0.1277,-0.0067,0.0,0.0,0.0,0.0,0.0,0.0,0.0,0.0,0.0,0.0,0.0123,0.0303,0.0298,0.0937,0.2129,0.2095,0.2781,0.3887,0.3887,0.4542,0.5691,0.5691,0.6294,0.721,0.721,0.721,0.7199,0.7067,0.704,0.704,0.7062,0.7067,0.7084,0.7237,0.7279,0.7309,0.7325,0.7317,0.7258,0.7339,0.7464,0.7687,0.7967,0.8284,0.8576,0.8619,0.8977,0.9285,0.9174,0.9254,0.9511,1.0207,1.178,1.3069,1.333,1.4991,1.5977,1.5148,0.0,1.5545,1.5207,1.5653,1.5981,1.5932,1.6169,1.66,1.7154,1.7462,1.7862,1.8481,1.8855,1.8613,1.7541,1.7243,1.6807,1.6039,1.5257,1.4866,1.4866,1.4866,1.4866,1.4866,1.4866,1.495,1.4922,1.5158,1.5158,1.5044,1.5215,1.5281,1.53,1.5517,1.5775,1.5886,1.6103,1.6178,1.6178,-1.0136,-0.9168,-0.8235,-0.7769,-0.6902,-0.6034,-0.5095,-0.4227,-0.3358,-0.2687,-0.1345,-0.0471,-0.0404,-0.0202,-0.0067,0.0,-0.0202,-0.0202,0.0,0.0,0.0,0.0,0.0,0.0,0.0,0.0,0.0,0.0,0.0,0.0555,0.172,0.1693,0.2321,0.3513,0.3512,0.4076,0.5127,0.5127,0.5793,0.6906,0.6906,0.7027,0.721,0.721,0.721,0.7221,0.7252,0.7279,0.7296,0.7399,0.7437,0.7437,0.7459,0.7475,0.7508,0.7616,0.7633,0.76,0.7513,0.7833,0.8282,0.8426,0.8854,0.9133,0.9151,0.9233,0.9309,0.9291,0.9395,0.9948,1.1508,1.29,1.3961,1.4298,1.5828,1.6506,1.525,0.0,1.6641,1.5988,1.6744,1.711,1.6621,1.6623,1.7072,1.8083,1.7862,1.8157,1.9265,1.9157,1.9036,1.8824,1.8192,1.726,1.6039,1.5257,1.4866,1.4866,1.4866,1.4866,1.4866,1.4866,1.496,1.5186,1.5224,1.5319,1.546,1.5498,1.5508,1.5526,1.5803,1.5898,1.5886,1.6103,1.6178,1.6178,-0.802,-0.727,-0.6498,-0.5362,-0.4763,-0.4026,-0.2685,-0.2083,-0.1546,-0.1009,-0.0404,0.0,0.0,0.0,0.0,0.0,0.0,0.0,0.0,0.0,0.0,0.0,0.0,0.0,0.0,0.0,0.0376,0.1049,0.1049,0.1726,0.3016,0.303,0.3639,0.4695,0.4735,0.5338,0.6371,0.6371,0.671,0.721,0.721,0.7248,0.7252,0.7252,0.729,0.7355,0.7415,0.7432,0.7442,0.7497,0.7519,0.7519,0.7519,0.7562,0.7627,0.7687,0.779,0.7939,0.806,0.8368,0.8666,0.8979,0.9377,0.9684,0.9684,0.987,1.0032,0.9954,1.0058,1.0609,1.2172,1.3186,1.4043,1.4828,1.5883,0.0,0.0,1.6599,1.7134,1.7268,1.7796,1.8167,1.7989,1.7731,1.7965,1.8923,1.8526,1.8645,1.9458,1.935,1.9217,1.9084,1.8366,1.7518,1.6558,1.6224,1.5844,1.5518,1.557,1.5373,1.4941,1.5167,1.5252,1.5176,1.547,1.5564,1.5632,1.5746,1.5794,1.5803,1.5898,1.6002,1.6046,1.615,1.6178,1.6178,-0.6129,-0.5556,-0.483,-0.3358,-0.2821,-0.2083,-0.0606,-0.0471,-0.0404,-0.0067,0.0,0.0,0.0,0.0,0.0,0.0,0.0,0.0,0.0,0.0,0.0,0.0,0.0,0.0,0.0,0.0312,0.0999,0.1973,0.2281,0.3079,0.4367,0.4373,0.4973,0.6016,0.6,0.6474,0.7198,0.7198,0.7237,0.7215,0.7243,0.7252,0.7282,0.7309,0.7437,0.7524,0.7551,0.7562,0.7568,0.7589,0.76,0.7606,0.7633,0.7709,0.779,0.7818,0.8037,0.8328,0.8575,0.884,0.9202,0.9537,0.9895,1.0156,1.0156,1.0438,1.0683,1.0568,1.0927,1.1615,1.2626,1.3678,1.461,1.5332,0.0,0.0,0.0,1.7091,1.7599,1.8215,1.8577,1.8855,1.906,1.88,1.8799,1.9458,1.9142,1.9022,1.947,1.941,1.9314,1.9169,1.839,1.7776,1.726,1.7066,1.6709,1.6055,1.6237,1.585,1.5092,1.5413,1.5498,1.5394,1.5715,1.587,1.5715,1.5946,1.6002,1.6002,1.6002,1.6037,1.6178,1.6178,1.6178,1.6188,-0.5726,-0.4458,-0.3291,-0.2823,-0.1615,-0.0538,-0.0135,-0.0269,-0.0404,-0.0067,0.0,0.0,0.0,0.0,0.0,0.0,0.0,0.0,0.0,0.0,0.0,0.0,0.0,0.0,0.0,0.1235,0.1914,0.1973,0.3202,0.4429,0.5782,0.5778,0.6397,0.7568,0.7557,0.7423,0.7266,0.7266,0.7258,0.7221,0.7279,0.7271,0.7293,0.7464,0.7508,0.7535,0.7649,0.7687,0.7703,0.7807,0.7845,0.7867,0.8043,0.8081,0.8114,0.816,0.8478,0.8844,0.8844,0.937,0.9928,1.0141,1.0373,1.0638,1.0638,1.0711,1.0717,1.0704,1.1947,1.2944,1.2848,1.4949,1.656,1.6033,0.0,0.0,1.72,1.7786,1.8227,1.8287,1.8746,1.9048,1.9072,1.9096,1.914,1.9446,1.9253,1.9229,1.9458,1.9229,1.9205,1.9434,1.8483,1.7969,1.7905,1.7324,1.6729,1.6287,1.6308,1.6017,1.5585,1.5613,1.5718,1.5879,1.5848,1.6031,1.6141,1.615,1.616,1.616,1.616,1.6169,1.6178,1.6178,1.6178,1.6207,-0.2661,-0.1942,-0.1412,-0.1076,-0.0538,-0.0135,0.0,-0.0135,-0.0135,0.0,0.0,0.0,0.0,0.0,0.0,0.0,0.0,0.0,0.0,0.0,0.0,0.0,0.0,0.037,0.1234,0.1726,0.2773,0.4432,0.4923,0.5843,0.7133,0.7133,0.7322,0.7703,0.7703,0.7606,0.7442,0.7309,0.735,0.7377,0.7345,0.7426,0.7568,0.7616,0.7676,0.7741,0.779,0.7807,0.7812,0.7856,0.7982,0.8054,0.8103,0.8106,0.8193,0.8312,0.8768,0.9282,0.9366,0.978,1.0188,1.0445,1.0591,1.0717,1.0717,1.1372,1.2056,1.2229,1.3428,1.4721,1.5507,1.6664,1.7599,1.7885,0.0,1.8407,1.8356,1.8306,1.8408,1.8746,1.8951,1.9072,1.9072,1.9217,1.9362,1.9458,1.9531,1.9615,1.9724,1.9627,1.9543,1.947,1.9268,1.9172,1.9172,1.8447,1.7763,1.7191,1.6855,1.6284,1.5642,1.5829,1.5984,1.5936,1.5999,1.6103,1.6178,1.6178,1.6178,1.6178,1.6178,1.6178,1.6178,1.6178,1.6264,1.6449,-0.0873,-0.0606,-0.0404,-0.0202,-0.0067,0.0,0.0,0.0,0.0,0.0,0.0,0.0,0.0,0.0,0.0,0.0,0.0,0.0,0.0,0.0397,0.0453,0.0,0.0373,0.1049,0.1973,0.2835,0.4125,0.5908,0.6337,0.7011,0.7872,0.7872,0.7828,0.7758,0.7758,0.7747,0.7685,0.7602,0.7649,0.7805,0.7754,0.7844,0.8002,0.8042,0.811,0.8238,0.8238,0.8238,0.8183,0.81,0.8166,0.8193,0.8207,0.8253,0.8361,0.8448,0.8996,0.967,1.022,1.0644,1.1049,1.1306,1.174,1.2109,1.2109,1.2938,1.3744,1.394,1.5155,1.6469,1.7342,1.8128,1.8764,1.9268,1.9181,1.912,1.9301,1.9024,1.8891,1.9169,1.9277,1.9301,1.9205,1.9434,1.9603,1.9603,1.9772,1.9881,1.9881,1.9881,1.9833,1.9724,1.9905,2.005,2.0134,1.9417,1.8631,1.7762,1.7433,1.6718,1.5832,1.6056,1.6103,1.5971,1.6122,1.6178,1.6178,1.6178,1.6178,1.6178,1.6178,1.6178,1.6188,1.6254,1.6367,1.6644,-0.101,-0.0741,-0.0471,-0.0471,-0.0202,0.0,0.0,0.0,0.0,0.0,0.0,0.0,0.0,0.0,0.0,0.0,0.0,0.0,0.0,0.1244,0.1409,0.0063,0.1306,0.2034,0.2034,0.4555,0.5908,0.5908,0.7255,0.7872,0.7872,0.7872,0.7872,0.7872,0.7872,0.7988,0.8176,0.8176,0.8337,0.8515,0.8651,0.8706,0.8725,0.8866,0.8915,0.8915,0.8915,0.8915,0.8873,0.8573,0.8489,0.8472,0.8404,0.8497,0.8651,0.8651,0.9123,1.0054,1.1351,1.2281,1.2816,1.2816,1.4073,1.5281,1.5281,1.551,1.5721,1.5721,1.7056,1.8118,1.7879,1.9207,2.0195,1.9929,1.9893,1.9893,1.9881,1.9881,1.9784,1.9507,1.9712,1.9772,1.956,1.9724,1.9881,1.9881,1.9893,1.9893,1.9881,1.9893,2.0014,2.0267,2.0279,2.04,2.0665,2.0158,1.9273,1.7998,1.7998,1.7364,1.6178,1.6178,1.6178,1.6178,1.6188,1.6188,1.6178,1.6188,1.6188,1.6178,1.6178,1.6178,1.6207,1.6405,1.6481,1.6692,-0.0336,-0.0202,-0.0135,-0.0135,-0.0067,0.0,0.0,0.0,0.0,0.0,0.0,0.0,0.0,0.0,0.0,0.0,0.0,0.0404,0.1412,0.185,0.2339,0.2881,0.3184,0.3756,0.4739,0.5475,0.6337,0.7317,0.7689,0.7872,0.7872,0.7872,0.7872,0.7872,0.7872,0.8039,0.8308,0.8216,0.8444,0.8786,0.8731,0.8768,0.886,0.8897,0.8915,0.8928,0.902,0.9057,0.9019,0.9085,0.8933,0.8787,0.8881,0.9738,1.0756,1.0756,1.1805,1.3119,1.3513,1.48,1.5791,1.4789,1.4902,1.5319,1.5529,1.6425,1.7203,1.7428,1.8629,1.9677,1.9783,2.0221,2.046,2.0207,2.0158,2.0098,1.9917,1.9881,1.9857,1.9772,1.9833,1.9857,1.9772,1.9833,1.9881,1.9881,2.005,2.0086,1.9893,2.0231,2.0388,2.0279,2.046,2.0593,2.0665,1.9945,1.9427,1.9069,1.8513,1.7788,1.6956,1.6956,1.6673,1.6188,1.633,1.6311,1.6188,1.633,1.6311,1.6178,1.6178,1.6178,1.6207,1.6405,1.6938,1.7676,0.0,0.0,0.0,0.0,0.0,0.0,0.0,0.0,0.0,0.0,0.0,0.0,0.0,0.0,0.0,0.0,0.0538,0.1412,0.2888,0.3446,0.4125,0.4933,0.5389,0.5667,0.5908,0.65,0.714,0.8004,0.7992,0.7992,0.8004,0.8004,0.7977,0.7933,0.8055,0.8305,0.8604,0.8648,0.8896,0.9268,0.9185,0.9198,0.9281,0.9281,0.9313,0.9432,1.0067,0.9955,0.9664,1.024,1.0252,0.9992,1.0075,1.1212,1.2521,1.2521,1.3439,1.4567,1.5175,1.6363,1.74,1.7315,1.729,1.7322,1.7459,1.8257,1.9016,1.9265,1.9945,2.0545,2.0919,2.081,2.0653,2.0593,2.0496,2.0376,2.0219,2.0195,2.0158,2.005,2.0134,2.0158,2.005,2.0134,2.0195,2.0195,2.034,2.0364,2.0207,2.0496,2.0593,2.0436,2.0593,2.0714,2.0892,2.0391,1.997,1.9678,1.9086,1.8466,1.7866,1.749,1.7076,1.6729,1.6492,1.6339,1.6311,1.6434,1.6405,1.6311,1.6396,1.6424,1.6453,1.6651,1.7316,1.8275,0.0,0.0,0.0,0.0,0.0,0.0,0.0,0.0,0.0,0.0,0.0,0.0,0.0,0.0135,0.0202,0.0202,0.1479,0.2888,0.4361,0.5635,0.6382,0.6505,0.7592,0.7569,0.6122,0.7448,0.8136,0.8136,0.8182,0.8176,0.8136,0.8136,0.8065,0.7949,0.8261,0.8622,0.8976,0.922,0.9518,0.9822,0.9822,0.9822,0.9822,0.9957,1.0108,1.0356,1.1805,1.1611,1.0891,1.1929,1.2141,1.2003,1.1937,1.2914,1.4092,1.411,1.4446,1.5211,1.6755,1.7389,1.8062,1.9876,2.0291,2.0315,2.0315,2.0496,2.0807,2.1074,2.0941,2.0871,2.1414,2.1088,2.0822,2.1135,2.0871,2.0759,2.0665,2.0665,2.0581,2.034,2.0545,2.0605,2.0376,2.0581,2.0738,2.0738,2.0738,2.0726,2.0771,2.0771,2.069,2.0665,2.069,2.0822,2.1122,2.1159,2.0734,2.0012,1.9783,1.9442,1.8882,1.7957,1.7612,1.7724,1.6829,1.6573,1.6654,1.6673,1.6673,1.6673,1.6873,1.6949,1.7042,1.7252,1.7852,1.8628,0.0,0.0,0.0,0.0,0.0,0.0,0.0,0.0,0.0,0.0,0.0,0.0,0.0,0.1009,0.1614,0.1614,0.2956,0.4428,0.5837,0.6223,0.685,0.7893,0.8193,0.8178,0.7711,0.7991,0.8198,0.8198,0.822,0.822,0.8198,0.8198,0.8254,0.8381,0.8448,0.8761,0.9214,0.9275,0.9518,0.9822,0.9822,0.9822,0.9957,1.1111,1.161,1.1867,1.3528,1.3979,1.3724,1.3846,1.4074,1.4175,1.3905,1.4949,1.6353,1.655,1.7456,1.8507,1.9104,1.9472,1.9784,2.0175,2.0436,2.0581,2.0581,2.0629,2.0807,2.1074,2.1086,2.1207,2.1679,2.1523,2.1329,2.1378,2.116,2.0977,2.0702,2.0665,2.0653,2.0593,2.088,2.1026,2.0895,2.1136,2.1305,2.1305,2.1305,2.1209,2.0991,2.105,2.0953,2.0747,2.0871,2.1074,2.1135,2.1281,2.1318,2.1162,2.1114,2.0672,1.9998,1.9726,1.9365,1.884,1.8822,1.8362,1.7686,1.7856,1.7826,1.7666,1.7716,1.8112,1.8728,1.8875,1.9478,2.0336,0.0,0.0,0.0,0.0,0.0,0.0,0.0,0.0,0.0,0.0,0.0606,0.1009,0.1009,0.2284,0.3425,0.4096,0.483,0.5904,0.7379,0.7445,0.7759,0.8437,0.8497,0.847,0.8405,0.8405,0.8378,0.8323,0.8508,0.8567,0.8511,0.8705,0.8829,0.889,0.8955,0.9199,0.9439,0.949,0.964,0.9822,0.9822,1.0229,1.0973,1.1795,1.2614,1.3546,1.5149,1.5745,1.5653,1.492,1.5219,1.5879,1.5674,1.6785,1.8228,1.8365,1.9029,1.9724,2.0002,2.0171,2.0303,2.0436,2.0569,2.0702,2.0892,2.0929,2.0967,2.1437,2.1341,2.1426,2.1957,2.174,2.1523,2.1643,2.1329,2.1086,2.0941,2.0929,2.0929,2.0929,2.1171,2.1257,2.1257,2.139,2.1474,2.1474,2.1474,2.1414,2.1269,2.1207,2.1064,2.1052,2.1064,2.1256,2.151,2.1595,2.1728,2.1848,2.1595,2.133,2.1061,2.0497,2.0145,1.9892,1.9526,1.9085,1.8707,1.8832,1.8811,1.8717,1.8832,1.9096,1.9478,1.9607,2.0173,2.1015,0.0,0.0,0.0067,0.0336,0.0336,0.0471,0.0672,0.074,0.074,0.074,0.1748,0.2486,0.2486,0.3758,0.5232,0.6644,0.6777,0.7312,0.8523,0.859,0.859,0.859,0.859,0.859,0.859,0.8656,0.8607,0.8514,0.8938,0.9065,0.9032,0.9359,0.9481,0.941,0.9588,0.9656,0.9705,0.9801,0.9992,1.0257,1.0257,1.1133,1.2555,1.2775,1.3797,1.5238,1.6689,1.7277,1.7173,1.6009,1.6398,1.7367,1.7367,1.8323,1.9536,1.9519,1.9736,2.0014,2.0279,2.0352,2.0412,2.0665,2.0738,2.088,2.1195,2.1195,2.1209,2.1752,2.1691,2.1691,2.2174,2.1909,2.1667,2.1836,2.1558,2.1256,2.1136,2.1207,2.1207,2.1207,2.1378,2.1559,2.1607,2.1619,2.1619,2.1619,2.1619,2.1595,2.1547,2.1329,2.1281,2.1474,2.1293,2.1486,2.1873,2.1921,2.2042,2.2259,2.1824,2.1728,2.1933,2.1047,2.0766,2.095,2.0072,1.9727,1.9754,1.9711,1.9722,1.9776,1.9864,2.0102,2.0221,2.0221,2.0661,2.1337,0.0,0.0,0.0404,0.1614,0.1815,0.2217,0.3557,0.3691,0.3691,0.3691,0.3892,0.4026,0.4026,0.5235,0.6711,0.8184,0.8318,0.8384,0.859,0.859,0.859,0.859,0.859,0.859,0.859,0.8851,0.9045,0.9027,0.9039,0.9244,0.957,0.9637,0.9761,0.9877,0.9729,0.9862,1.0179,1.0024,1.0772,1.2073,1.2073,1.2903,1.4323,1.5647,1.6329,1.6731,1.8227,1.878,1.8816,1.8623,1.8688,1.8816,1.8816,1.9124,1.9584,1.976,2.0014,2.0279,2.0545,2.0617,2.0678,2.1013,2.1074,2.1207,2.1643,2.1402,2.1209,2.1752,2.1836,2.1909,2.2211,2.2273,2.2164,2.1897,2.1812,2.1679,2.145,2.1426,2.1426,2.1426,2.1655,2.1909,2.2138,2.2162,2.2162,2.2162,2.2162,2.2054,2.1824,2.1788,2.1679,2.1486,2.1667,2.18,2.1873,2.209,2.2223,2.2334,2.2261,2.2174,2.2211,2.21,2.2025,2.2049,2.1939,2.1492,2.0807,2.0603,2.0637,2.0807,2.0637,2.1152,2.196,2.196,2.2035,2.2109,0.1006,0.1143,0.1614,0.309,0.3356,0.3557,0.4227,0.4294,0.4294,0.4294,0.4964,0.5503,0.5503,0.6777,0.7917,0.8523,0.859,0.859,0.859,0.859,0.859,0.859,0.8784,0.8851,0.8851,0.9256,0.9522,0.9721,0.9721,0.9788,0.9994,1.0109,1.0163,1.0285,0.9996,1.0503,1.1452,1.1285,1.2109,1.3582,1.3582,1.4471,1.5856,1.654,1.7304,1.8163,1.8999,1.9205,1.9096,1.9241,1.9193,1.9072,1.9072,1.9362,1.9724,1.9857,2.0183,2.0557,2.088,2.0883,2.1026,2.1233,2.1293,2.139,2.1788,2.1691,2.1692,2.2005,2.209,2.2126,2.2309,2.2334,2.2297,2.2102,2.1969,2.1836,2.1716,2.1691,2.1752,2.1897,2.2017,2.2138,2.2321,2.2334,2.2334,2.2334,2.2334,2.2285,2.209,2.1945,2.1885,2.1921,2.1885,2.1945,2.209,2.2273,2.2334,2.2334,2.2334,2.2334,2.2334,2.2334,2.2334,2.2334,2.2334,2.2109,2.1712,2.1605,2.1617,2.1712,2.1605,2.1853,2.2334,2.2334,2.2334,2.2334]},{"header":{"parameterUnit":"m.s-1","parameterCategory":1,"la1":30.6,"la2":28.766,"lo1":-90.7593,"lo2":-88.6598,"dy":0.0162,"dx":0.0183,"nx":116,"ny":114,"refTime":"2023-08-19T06:00:00:Z","depth":0,"parameterNumber":3,"parameterNumberName":"V-component_of_WINDS"},"data":[0.0,0.0,0.0,0.0,0.0,0.0,0.0,0.0,0.0,0.0,0.0,0.0,0.0,0.0,0.0,0.0,0.0,0.0,0.0,0.0,0.0,0.0,0.0,0.0,0.0,0.0,0.0,0.0,0.0,0.0,0.0,0.0,0.0,0.0,0.0,0.0,0.0,0.0,0.0,0.0,0.0,0.0,0.0,0.0,0.0,0.0,0.0,0.0,0.0,0.0,0.0,0.0,0.0,0.0,0.0,0.0,0.0,0.0,0.0,0.0,0.0,0.0,0.0,0.0,0.0,0.0,0.0,0.0,0.0,0.0,0.0,0.0,0.0,0.0,0.0,0.0,0.0,0.0,0.0,0.0,0.0,0.0,0.0,0.0,0.0,0.0,0.0,0.0,0.0,0.0,0.0,0.0,0.0,0.0,0.0,0.0,0.0,0.0,0.0,0.0,0.0,0.0,0.0,0.0,0.0,0.0,0.0,0.0,0.0,0.0,0.0,0.0,0.0,0.0,0.0,0.0,0.0,0.0,0.0,0.0,0.0,0.0,0.0,0.0,0.0,0.0,0.0,0.0,0.0,0.0,0.0,0.0,0.0,0.0,0.0,0.0,0.0,0.0,0.0,0.0,0.0,0.0,0.0,0.0,0.0,0.0,0.0,0.0,0.0,0.0,0.0,0.0,0.0,0.0,0.0,0.0,0.0,0.0,0.0,0.0,0.0,0.0,0.0,0.0,0.0,0.0,0.0,0.0,0.0,0.0,0.0,0.0,0.0,0.0,0.0,0.0,0.0,0.0,0.0,0.0,0.0,0.0,0.0,0.0,0.0,0.0,0.0,0.0,0.0,0.0,0.0,0.0,0.0,0.0,0.0,0.0,0.0,0.0,0.0,0.0,0.0,0.0,0.0,0.0,0.0,0.0,0.0,0.0,0.0,0.0,0.0,0.0,0.0,0.0,0.0,0.0,0.0,0.0,0.0,0.0,0.0,0.0,0.0,0.0,0.0,0.0,0.0,0.0,0.0,0.0,0.0,0.0,0.0,0.0,0.0,0.0,0.0,0.0,0.0,0.0,0.0,0.0,0.0,0.0,0.0,0.0,0.0,0.0,0.0,0.0,0.0,0.0,0.0,0.0,0.0,0.0,0.0,0.0,0.0,0.0,0.0,0.0,0.0,0.0,0.0,0.0,0.0,0.0,0.0,0.0,0.0,0.0,0.0,0.0,0.0,0.0,0.0,0.0,0.0,0.0,0.0,0.0,0.0,0.0,0.0,0.0,0.0,0.0,0.0,0.0,0.0,0.0,0.0,0.0,0.0,0.0,0.0,0.0,0.0,0.0,0.0,0.0,0.0,0.0,0.0,0.0,0.0,0.0,0.0,0.0,0.0,0.0,0.0,0.0,0.0,0.0,0.0,0.0,0.0,0.0,0.0,0.0,0.0,0.0,0.0,0.0,0.0,0.0,0.0,0.0,0.0,0.0,0.0,0.0,0.0,0.0,0.0,0.0,0.0,0.0,0.0,0.0,0.0,0.0,0.0,0.0,0.0,0.0,0.0,0.0,0.0,0.0,0.0,0.0,0.0,0.0,0.0,0.0,0.0,0.0,0.0,0.0,0.0,0.0,0.0,0.0,0.0,0.0,0.0,0.0,0.0,0.0,0.0,0.0,0.0,0.0,0.0,0.0,0.0,0.0,0.0,0.0,0.0,0.0,0.0,0.0,0.0,0.0,0.0,0.0,0.0,0.0,0.0,0.0,0.0,0.0,0.0,0.0,0.0,0.0,0.0,0.0,0.0,0.0,0.0,0.0,0.0,0.0,0.0,0.0,0.0,0.0,0.0,0.0,0.0,0.0,0.0,0.0,0.0,0.0,0.0,0.0,0.0,0.0,0.0,0.0,0.0,0.0,0.0,0.0,0.0,0.0,0.0,0.0,0.0,0.0,0.0,0.0,0.0,0.0,0.0,0.0,0.0,0.0,0.0,0.0,0.0,0.0,0.0,0.0,0.0,0.0,0.0,0.0,0.0,0.0,0.0,0.0,0.0,0.0,0.0,0.0,0.0,0.0,0.0,0.0,0.0,0.0,0.0,0.0,0.0,0.0,0.0,0.0,0.0,0.0,0.0,0.0,0.0,0.0,0.0,0.0,0.0,0.0,0.0,0.0,0.0,0.0,0.0,0.0,0.0,0.0,0.0,0.0,0.0,0.0,0.0,0.0,0.0,0.0,0.0,0.0,0.0,0.0,0.0,0.0,0.0,0.0,0.0,0.0,0.0,0.0,0.0,0.0,0.0,0.0,0.0,0.0,0.0,0.0,0.0,0.0,0.0,0.0,0.0,0.0,0.0,0.0,0.0,0.0,0.0,0.0,0.0,0.0,0.0,0.0,0.0,0.0,0.0,0.0,0.0,0.0,0.0,0.0,0.0,0.0,0.0,0.0,0.0,0.0,0.0,0.0,0.0,0.0,0.0,0.0,0.0,0.0,0.0,0.0,0.0,0.0,0.0,0.0,0.0,0.0,0.0,0.0,0.0,0.0,0.0,0.0,0.0,0.0,0.0,0.0,0.0,0.0,0.0,0.0,0.0,0.0,0.0,0.0,0.0,0.0,0.0,0.0,0.0,0.0,0.0,0.0,0.0,0.0,0.0,0.0,0.0,0.0,0.0,0.0,0.0,0.0,0.0,0.0,0.0,0.0,0.0,0.0,0.0,0.0,0.0,0.0,0.0,0.0,0.0,0.0,0.0,0.0,0.0,0.0,0.0,0.0,0.0,0.0,0.0,0.0,0.0,0.0,0.0,0.0,0.0,0.0,0.0,0.0,0.0,0.0,0.0,0.0,0.0,0.0,0.0,0.0,0.0,0.0,0.0,0.0,0.0,0.0,0.0,0.0,0.0,0.0,0.0,0.0,0.0,0.0,0.0,0.0,0.0,0.0,0.0,0.0,0.0,0.0,0.0,0.0,0.0,0.0,0.0,0.0,0.0,0.0,0.0,0.0,0.0,0.0,0.0,0.0,0.0,0.0,0.0,0.0,0.0,0.0,0.0,0.0,0.0,0.0,0.0,0.0,0.0,0.0,0.0,0.0,0.0,0.0,0.0,0.0,0.0,0.0,0.0,0.0,0.0,0.0,0.0,0.0,0.0,0.0,0.0,0.0,0.0,0.0,0.0,0.0,0.0,0.0,0.0,0.0,0.0,0.0,0.0,0.0,0.0,0.0,0.0,0.0,0.0,0.0,0.0,0.0,0.0,0.0,0.0,0.0,0.0,0.0,0.0,0.0,0.0,0.0,0.0,0.0,0.0,0.0,0.0,0.0,0.0,0.0,0.0,0.0,0.0,0.0,0.0,0.0,0.0,0.0,0.0,0.0,0.0,0.0,0.0,0.0,0.0,0.0,0.0,0.0,0.0,0.0,0.0,0.0,0.0,0.0,0.0,0.0,0.0,0.0,0.0,0.0,0.0,0.0,0.0,0.0,0.0,0.0,0.0,0.0,0.0,0.0,0.0,0.0,0.0,0.0,0.0,0.0,0.0,0.0,0.0,0.0,0.0,0.0,0.0,0.0,0.0,0.0,0.0,0.0,0.0,0.0,0.0,0.0,0.0,0.0,0.0,0.0,0.0,0.0,0.0,0.0,0.0,0.0,0.0,0.0,0.0,0.0,0.0,0.0,0.0,0.0,0.0,0.0,0.0,0.0,0.0,0.0,0.0,0.0,0.0,0.0,0.0,0.0,0.0,0.0,0.0,0.0,0.0,0.0,0.0,0.0,0.0,0.0,0.0,0.0,0.0,0.0,0.0,0.0,0.0,0.0,0.0,0.0,0.0,0.0,0.0,0.0,0.0,0.0,0.0,0.0,0.0,0.0,0.0,0.0,0.0,0.0,0.0,0.0,0.0,0.0,0.0,0.0,0.0,0.0,0.0,0.0,0.0,0.0,0.0,0.0,0.0,0.0,0.0,0.0,0.0,0.0,0.0,0.0,0.0,0.0,0.0,0.0,0.0,0.0,0.0,0.0,0.0,0.0,0.0,0.0,0.0,0.0,0.0,0.0,0.0,0.0,0.0,0.0,0.0,0.0,0.0,0.0,0.0,0.0,0.0,0.0,0.0,0.0,0.0,0.0,0.0,0.0,0.0,0.0,0.0,0.0,0.0,0.0,0.0,0.0,0.0,0.0,0.0,0.0,0.0,0.0,0.0,0.0,0.0,0.0,0.0,0.0,0.0,0.0,0.0,0.0,0.0,0.0,0.0,0.0,0.0,0.0,0.0,0.0,0.0,0.0,0.0,0.0,0.0,0.0,0.0,0.0,0.0,0.0,0.0,0.0,0.0,0.0,0.0,0.0,0.0,0.0,0.0,0.0,0.0,0.0,0.0,0.0,0.0,0.0,0.0,0.0,0.0,0.0,0.0,0.0,0.0,0.0,0.0,0.0,0.0,0.0,0.0,0.0,0.0,0.0,0.0,0.0,0.0,0.0,0.0,0.0,0.0,0.0,0.0,0.0,0.0,0.0,0.0,0.0,0.0,0.0,0.0,0.0,0.0,0.0,0.0,0.0,0.0,0.0,0.0,0.0,0.0,0.0,0.0,0.0,0.0,0.0,0.0,0.0,0.0,0.0,0.0,0.0,0.0,0.0,0.0,0.0,0.0,0.0,0.0,0.0,0.0,0.0,0.0,0.0,0.0,0.0,0.0,0.0,0.0,0.0,0.0,0.0,0.0,0.0,0.0,0.0,0.0,0.0,0.0,0.0,0.0,0.0,0.0,0.0,0.0,0.0,0.0,0.0,0.0,0.0,0.0,0.0,0.0,0.0,0.0,0.0,0.0,0.0,0.0,0.0,0.0,0.0,0.0,0.0,0.0,0.0,0.0,0.0,0.0,0.0,0.0,0.0,0.0,0.0,0.0,0.0,0.0,0.0,0.0,0.0,0.0,0.0,0.0,0.0,0.0,0.0,0.0,0.0,0.0,0.0,0.0,0.0,0.0,0.0,0.0,0.0,0.0,0.0,0.0,0.0,0.0,0.0,0.0,0.0,0.0,0.0,0.0,0.0,0.0,0.0,0.0,0.0,0.0,0.0,0.0,0.0,0.0,0.0,0.0,0.0,0.0,0.0,0.0,0.0,0.0,0.0,0.0,0.0,0.0,0.0,0.0,0.0,0.0,0.0,0.0,0.0,0.0,0.0,0.0,0.0,0.0,0.0,0.0,0.0,0.0,0.0,0.0,0.0,0.0,0.0,0.0,0.0,0.0,0.0,0.0,0.0,0.0,0.0,0.0,0.0,0.0,0.0,0.0,0.0,0.0,0.0,0.0,0.0,0.0,0.0,0.0,0.0,0.0,0.0,0.0,0.0,0.0,0.0,0.0,0.0,0.0,0.0,0.0,0.0,0.0,0.0,0.0,0.0,0.0,0.0,0.0,0.0,0.0,0.0,0.0,0.0,0.0,0.0,0.0,0.0,0.0,0.0,0.0,0.0,0.0,0.0,0.0,0.0,0.0,0.0,0.0,0.0,0.0,0.0,0.0,0.0,0.0,0.0,0.0,0.0,0.0,0.0,0.0,0.0,0.0,0.0,0.0,0.0,0.0,0.0,0.0,0.0,0.0,0.0,0.0,0.0,0.0,0.0,0.0,0.0,0.0,0.0,0.0,0.0,0.0,0.0,0.0,0.0,0.0,0.0,0.0,0.0,0.0,0.0,0.0,0.0,0.0,0.0,0.0,0.0,0.0,0.0,0.0,0.0,0.0,0.0,0.0,0.0,0.0,0.0,0.0,0.0,0.0,0.0,0.0,0.0,0.0,0.0,0.0,0.0,0.0,0.0,0.0,0.0,0.0,0.0,0.0,0.0,0.0,0.0,0.0,0.0,0.0,0.0,0.0,0.0,0.0,0.0,0.0,0.0,0.0,0.0,0.0,0.0,0.0,0.0,0.0,0.0,0.0,0.0,0.0,0.0,0.0,0.0,0.0,0.0,0.0,0.0,0.0,0.0,0.0,0.0,0.0,0.0,0.0,0.0,0.0,0.0,0.0,0.0,0.0,0.0,0.0,0.0,0.0,0.0,0.0,0.0,0.0,0.0,0.0,0.0,0.0,0.0,0.0,0.0,0.0,0.0,0.0,0.0,3.033,0.0,0.0,0.0,0.0,0.0,0.0,0.0,0.0,0.0,0.0,0.0,0.0,0.0,0.0,0.0,0.0,0.0,0.0,0.0,0.0,0.0,0.0,0.0,0.0,0.0,0.0,0.0,0.0,0.0,0.0,0.0,0.0,0.0,0.0,0.0,0.0,0.0,0.0,0.0,0.0,0.0,0.0,0.0,0.0,0.0,0.0,0.0,0.0,0.0,0.0,0.0,0.0,0.0,0.0,0.0,0.0,0.0,0.0,0.0,0.0,0.0,0.0,0.0,0.0,0.0,0.0,0.0,0.0,0.0,0.0,0.0,0.0,0.0,0.0,0.0,0.0,0.0,0.0,0.0,0.0,0.0,0.0,0.0,0.0,0.0,0.0,0.0,0.0,0.0,0.0,0.0,0.0,0.0,0.0,0.0,0.0,0.0,0.0,0.0,0.0,0.0,0.0,0.0,0.0,0.0,0.0,0.0,0.0,0.0,0.0,0.0,0.0,0.0,0.0,0.0,0.0,3.1787,0.0,0.0,0.0,0.0,0.0,0.0,0.0,0.0,0.0,0.0,0.0,0.0,0.0,0.0,0.0,0.0,0.0,0.0,0.0,0.0,0.0,0.0,0.0,0.0,0.0,0.0,0.0,0.0,0.0,0.0,0.0,0.0,0.0,0.0,0.0,0.0,0.0,0.0,0.0,0.0,0.0,0.0,0.0,0.0,0.0,0.0,0.0,0.0,0.0,0.0,0.0,0.0,0.0,0.0,0.0,0.0,0.0,0.0,0.0,0.0,0.0,0.0,0.0,0.0,0.0,0.0,0.0,0.0,0.0,0.0,0.0,0.0,0.0,0.0,0.0,0.0,0.0,0.0,0.0,0.0,0.0,0.0,0.0,0.0,0.0,0.0,0.0,0.0,0.0,0.0,0.0,0.0,0.0,0.0,0.0,0.0,0.0,0.0,0.0,0.0,0.0,0.0,0.0,0.0,0.0,0.0,0.0,0.0,3.7461,3.8018,3.8364,3.8521,3.8691,3.8704,3.6636,3.5494,3.4836,3.3039,0.0,0.0,0.0,0.0,0.0,0.0,0.0,0.0,0.0,0.0,0.0,0.0,0.0,0.0,0.0,0.0,0.0,0.0,0.0,0.0,0.0,0.0,0.0,0.0,0.0,0.0,0.0,0.0,0.0,0.0,0.0,0.0,0.0,0.0,0.0,0.0,0.0,0.0,4.3077,4.176,4.0912,4.0334,3.8074,0.0,0.0,0.0,0.0,0.0,0.0,0.0,0.0,0.0,0.0,0.0,0.0,0.0,0.0,0.0,0.0,0.0,0.0,0.0,0.0,0.0,0.0,0.0,0.0,0.0,0.0,0.0,0.0,0.0,0.0,0.0,0.0,0.0,0.0,0.0,0.0,0.0,0.0,0.0,0.0,0.0,0.0,0.0,3.5497,3.5444,0.0,0.0,0.0,0.0,0.0,0.0,0.0,0.0,0.0,0.0,0.0,0.0,0.0,3.9905,4.074,4.1331,4.1775,4.2012,4.2911,4.3202,4.2936,4.3764,4.3955,4.3678,4.3348,0.0,3.6174,3.607,0.0,0.0,0.0,0.0,0.0,0.0,0.0,0.0,0.0,0.0,0.0,0.0,0.0,0.0,0.0,0.0,0.0,0.0,0.0,0.0,0.0,0.0,0.0,0.0,0.0,0.0,0.0,0.0,0.0,0.0,0.0,0.0,0.0,0.0,0.0,0.0,4.6076,4.6932,4.6989,4.6089,4.5288,4.4541,4.3243,4.0972,3.8007,3.7165,0.0,0.0,0.0,0.0,0.0,0.0,0.0,0.0,0.0,0.0,0.0,0.0,0.0,0.0,0.0,0.0,0.0,0.0,0.0,0.0,0.0,0.0,0.0,0.0,0.0,0.0,0.0,0.0,0.0,0.0,0.0,0.0,0.0,0.0,0.0,0.0,0.0,0.0,0.0,3.5516,3.6536,3.6515,3.6191,3.5338,0.0,0.0,0.0,0.0,0.0,0.0,0.0,0.0,0.0,4.1332,4.1994,4.3026,4.4462,4.4776,4.5106,4.5406,4.5833,4.5915,4.5696,4.6072,4.6283,4.6311,4.6311,4.4615,4.1726,3.9878,3.8222,3.6734,0.0,0.0,0.0,0.0,3.6168,3.7368,0.0,0.0,0.0,0.0,0.0,0.0,0.0,0.0,0.0,0.0,0.0,0.0,0.0,0.0,0.0,4.5436,0.0,0.0,0.0,0.0,0.0,0.0,0.0,0.0,0.0,0.0,0.0,0.0,4.9872,5.0692,5.0184,5.0035,4.9233,4.7994,4.7972,4.5076,4.0207,3.9555,3.806,0.0,0.0,0.0,0.0,0.0,0.0,0.0,0.0,0.0,0.0,0.0,0.0,0.0,0.0,0.0,0.0,0.0,0.0,0.0,0.0,0.0,0.0,0.0,0.0,0.0,0.0,0.0,0.0,0.0,0.0,0.0,0.0,0.0,0.0,0.0,0.0,0.0,0.0,3.7358,3.8337,3.7997,3.8667,3.8046,0.0,0.0,0.0,0.0,0.0,0.0,4.0237,4.1057,4.2516,4.4856,4.5551,4.6607,4.8162,4.7941,4.8032,4.8572,4.8218,4.8055,4.8139,4.8258,4.8274,4.829,4.829,4.7629,4.6434,4.3443,4.1387,3.9927,3.8339,3.7833,3.8036,3.8422,3.9129,4.005,0.0,0.0,0.0,0.0,0.0,0.0,0.0,0.0,0.0,0.0,0.0,0.0,0.0,0.0,4.7264,4.8729,4.8949,4.8624,0.0,0.0,0.0,0.0,0.0,0.0,0.0,0.0,0.0,4.9757,5.1204,5.1891,5.1818,5.2471,5.2061,5.0727,5.143,4.9293,4.5079,4.2677,4.1204,4.0283,0.0,0.0,0.0,0.0,0.0,0.0,0.0,0.0,0.0,0.0,0.0,0.0,0.0,0.0,0.0,0.0,0.0,0.0,0.0,0.0,0.0,0.0,0.0,0.0,0.0,0.0,0.0,0.0,0.0,0.0,0.0,0.0,0.0,0.0,0.0,0.0,0.0,0.0,0.0,4.1036,4.3817,0.0,0.0,0.0,0.0,3.911,4.0423,4.2177,4.428,4.5761,4.7827,5.0573,5.1493,5.2122,5.2487,5.1461,5.132,5.1935,5.0639,5.0368,5.1041,5.138,5.1042,5.0087,5.0087,4.9342,4.8045,4.6236,4.4285,4.2326,4.127,4.0884,4.0884,4.0942,4.1067,4.1406,0.0,0.0,0.0,0.0,0.0,0.0,0.0,0.0,0.0,0.0,0.0,0.0,0.0,4.7612,4.9331,5.0354,5.0851,5.0608,4.939,0.0,0.0,0.0,0.0,0.0,0.0,0.0,5.0147,5.1659,5.2495,5.282,5.2725,5.2381,5.1723,5.0848,5.1101,5.016,4.8204,4.6834,4.478,4.2326,4.0396,3.8305,0.0,0.0,0.0,0.0,0.0,0.0,0.0,0.0,0.0,0.0,0.0,0.0,0.0,0.0,0.0,0.0,0.0,0.0,0.0,0.0,0.0,0.0,0.0,0.0,0.0,0.0,0.0,0.0,0.0,0.0,0.0,0.0,0.0,0.0,0.0,0.0,0.0,4.3303,4.5786,0.0,4.3561,4.4174,4.4602,4.4091,4.5734,4.7409,4.9,4.9543,5.0593,5.2132,5.2467,5.2783,5.3028,5.2684,5.2407,5.2187,5.1706,5.1143,5.0554,5.07,5.0359,4.9613,4.9613,4.9105,4.8267,4.76,4.6432,4.492,4.411,4.3553,4.3167,4.3167,4.3209,4.3299,0.0,0.0,0.0,0.0,0.0,0.0,0.0,0.0,0.0,0.0,0.0,4.502,4.7826,4.9889,5.1398,5.2155,5.2669,5.2087,5.0035,0.0,0.0,0.0,0.0,0.0,0.0,5.0895,5.2396,5.3687,5.4053,5.4039,5.3691,5.2999,5.2348,5.1713,5.1938,5.162,5.0929,5.0159,4.7663,4.4043,4.2841,4.0855,3.837,0.0,0.0,0.0,0.0,0.0,0.0,0.0,0.0,0.0,0.0,0.0,0.0,0.0,0.0,0.0,0.0,0.0,0.0,0.0,0.0,0.0,0.0,0.0,0.0,0.0,0.0,0.0,0.0,0.0,0.0,0.0,0.0,0.0,0.0,0.0,4.5215,4.4582,4.7182,4.8172,4.5793,4.7303,4.8324,4.8088,4.9799,5.1227,5.2112,5.2427,5.2902,5.3466,5.3565,5.3625,5.3533,5.3084,5.2636,5.2187,5.1738,5.1079,5.0196,5.0196,4.9763,4.897,4.897,4.8566,4.7967,4.7967,4.7429,4.6591,4.5903,4.5394,4.4975,4.4736,4.4646,4.4616,0.0,0.0,0.0,0.0,0.0,0.0,0.0,0.0,0.0,0.0,4.4648,4.6509,5.0303,5.2067,5.3302,5.4109,5.4144,5.2811,4.9732,4.8776,0.0,0.0,0.0,0.0,5.055,5.2787,5.455,5.59,5.5788,5.5383,5.4669,5.4537,5.41,5.3404,5.4129,5.3977,5.3142,5.2507,4.9726,4.5727,4.5106,4.3557,4.1302,0.0,0.0,0.0,0.0,0.0,0.0,0.0,0.0,0.0,0.0,0.0,0.0,0.0,0.0,0.0,0.0,0.0,0.0,0.0,0.0,0.0,0.0,0.0,0.0,0.0,0.0,0.0,0.0,0.0,0.0,0.0,0.0,0.0,4.1634,4.4549,4.627,4.5043,4.8445,4.9872,4.7435,5.002,5.1624,5.0941,5.2477,5.347,5.347,5.4345,5.4803,5.4773,5.4997,5.482,5.4162,5.2845,5.2157,5.2127,5.0794,5.0166,5.0136,5.0136,4.9494,4.8267,4.8267,4.7908,4.7309,4.7309,4.7309,4.7249,4.6548,4.6352,4.619,4.5574,4.5304,4.5185,0.0,0.0,0.0,0.0,0.0,0.0,0.0,0.0,0.0,0.0,4.5834,4.7779,5.0541,5.2232,5.3444,5.4138,5.2712,5.1403,5.0433,0.0,0.0,0.0,0.0,0.0,5.2264,5.3519,5.4519,5.5318,5.5282,5.4814,5.3898,5.3886,5.3416,5.2674,5.289,5.2861,5.2609,5.2448,5.1271,4.9463,4.7728,4.5777,4.3751,0.0,0.0,0.0,0.0,0.0,0.0,0.0,0.0,0.0,0.0,0.0,0.0,0.0,0.0,0.0,0.0,0.0,0.0,0.0,0.0,0.0,0.0,0.0,0.0,0.0,0.0,0.0,0.0,0.0,0.0,0.0,0.0,4.4881,4.3962,4.6639,4.8824,4.9172,5.103,5.2077,5.1523,5.2748,5.3495,5.3286,5.4142,5.4708,5.4708,5.4938,5.4869,5.4391,5.3933,5.3414,5.2755,5.1917,5.1259,5.0734,5.0375,4.9687,4.8835,4.8835,4.8356,4.7578,4.7578,4.7489,4.7309,4.7309,4.7309,4.7279,4.71,4.6741,4.6249,4.6112,4.5507,4.479,0.0,0.0,0.0,0.0,0.0,0.0,0.0,0.0,0.0,0.0,4.6651,4.8578,5.0927,5.2298,5.3177,5.3485,5.235,5.0994,4.955,0.0,0.0,0.0,0.0,5.1582,5.3264,5.4082,5.4802,5.5502,5.4811,5.4161,5.3589,5.3583,5.3286,5.275,5.3077,5.3179,5.3008,5.3008,5.2626,5.1816,5.0569,4.8808,4.6792,4.5594,4.4633,4.3654,4.2016,4.1909,4.2275,4.0337,0.0,0.0,0.0,0.0,0.0,0.0,0.0,0.0,0.0,0.0,0.0,0.0,0.0,0.0,0.0,0.0,0.0,0.0,0.0,0.0,0.0,0.0,0.0,0.0,4.7056,4.8354,4.821,4.9359,5.0614,5.1757,5.2293,5.2849,5.3563,5.3982,5.4311,5.461,5.497,5.5179,5.5179,5.494,5.461,5.4221,5.3533,5.2875,5.2217,5.1289,5.0584,5.0196,4.9628,4.9015,4.8297,4.8297,4.7938,4.7309,4.7309,4.7309,4.7352,4.7709,4.7849,0.0,0.0,0.0,0.0,0.0,4.5503,4.4987,0.0,0.0,0.0,0.0,0.0,0.0,0.0,0.0,0.0,0.0,0.0,4.9009,5.1307,5.2346,5.2755,5.2526,5.2504,5.1223,0.0,0.0,0.0,4.9191,5.1344,5.2902,5.3722,5.4496,5.5233,5.5884,5.446,5.3691,5.362,5.3583,5.3435,5.3134,5.3967,5.4126,5.3808,5.3943,5.3682,5.3179,5.3179,5.1891,4.9776,4.8123,4.74,4.7021,4.5043,4.4471,4.4437,4.3472,0.0,0.0,0.0,0.0,0.0,0.0,0.0,0.0,0.0,0.0,0.0,0.0,0.0,0.0,0.0,0.0,0.0,0.0,0.0,0.0,0.0,0.0,0.0,0.0,5.0031,5.1724,5.3174,5.2267,5.1961,5.3098,5.2678,5.278,5.4072,5.4132,5.4371,5.5029,5.5089,5.5029,5.497,0.0,0.0,0.0,0.0,5.2785,5.2217,5.0853,5.0166,5.0076,4.8865,4.8325,4.8323,4.8323,4.8066,4.7581,4.7581,4.7581,4.7666,4.8407,4.8718,4.8574,4.777,4.7069,4.6364,4.5755,4.5574,4.5688,0.0,0.0,0.0,0.0,0.0,0.0,0.0,0.0,0.0,4.6479,4.8028,4.952,5.1043,5.2501,5.2929,5.1872,5.1901,5.1332,0.0,0.0,4.9565,5.1177,5.2059,5.2981,5.3981,5.4615,5.4979,5.5124,5.4796,5.4314,5.3676,5.3646,5.3207,5.2596,5.3399,5.361,5.3404,5.4055,5.4072,5.3748,0.0,0.0,5.0991,5.0608,5.0111,4.9376,4.7777,4.7887,4.8454,4.6092,4.5596,4.5592,4.3751,0.0,0.0,0.0,0.0,0.0,0.0,0.0,0.0,0.0,0.0,0.0,0.0,0.0,0.0,0.0,0.0,0.0,0.0,0.0,0.0,5.1092,5.22,5.3375,5.5371,5.4347,5.3406,5.3484,5.2948,5.2992,5.4061,5.3713,5.3653,5.4341,5.4401,5.4162,5.3593,5.3443,5.3384,5.3384,5.2725,5.2336,5.2187,5.0853,4.9972,4.9434,0.0,0.0,4.8508,4.8508,4.8831,4.9318,4.9318,4.9318,4.9327,4.9487,4.9332,4.8906,4.8553,4.7997,4.7309,4.6812,4.6728,4.6907,0.0,0.0,0.0,0.0,0.0,0.0,0.0,0.0,0.0,0.0,4.7905,4.9033,5.0104,5.0517,5.0433,4.9711,4.9306,0.0,0.0,5.0174,5.0636,5.2685,5.2982,5.3503,5.4354,5.4217,5.4259,5.4514,5.4136,5.3681,5.3132,5.3493,5.3555,5.3437,5.4232,5.4556,5.4575,5.4989,5.483,0.0,0.0,0.0,5.2034,5.2132,5.1823,5.1212,5.0467,5.0618,5.0939,4.9183,4.8589,4.8326,4.69,4.5731,4.4432,0.0,0.0,0.0,0.0,0.0,0.0,0.0,0.0,0.0,0.0,0.0,0.0,0.0,0.0,4.6245,0.0,0.0,5.0916,5.3102,5.4251,5.5162,5.5843,5.558,5.5323,5.5291,5.4082,5.3903,5.5438,5.5315,5.4894,5.443,5.5136,5.5109,5.3945,5.358,5.3633,5.4068,5.2963,5.2475,5.2561,5.1546,5.0685,5.0008,4.9374,4.9089,4.9197,4.9197,4.9447,4.9931,4.9844,4.9923,5.0126,5.0159,5.0256,5.0304,4.9479,4.8421,4.7342,4.6757,4.6859,4.7283,0.0,0.0,0.0,0.0,0.0,0.0,0.0,0.0,0.0,0.0,0.0,4.8242,4.8837,4.8416,4.7978,0.0,0.0,0.0,0.0,5.0912,5.1551,5.3739,5.3758,5.398,5.4509,5.382,5.3601,5.3983,5.336,5.301,5.2963,5.3595,5.4072,5.4422,5.5216,5.5568,5.5644,5.5786,5.5501,0.0,0.0,0.0,5.2948,5.3141,5.2875,5.2494,5.2494,5.2324,5.2053,5.1587,5.0887,5.0088,4.9326,4.8398,4.704,4.4556,4.4224,0.0,0.0,0.0,0.0,0.0,0.0,0.0,0.0,0.0,4.4691,4.5582,4.6941,4.8564,5.0485,5.191,5.3268,5.4692,5.5918,5.6481,5.5918,5.6216,5.6625,5.7073,5.5387,5.4865,5.6618,5.6681,5.6144,5.4946,5.5945,5.6081,5.4761,5.4049,5.4037,5.4786,5.3396,5.2729,5.2892,5.2112,5.1417,5.0808,5.0113,4.9884,5.0041,5.0041,5.0236,5.055,5.0467,5.0486,5.0629,5.0906,5.1284,5.1531,5.0524,4.9258,4.7858,4.702,4.7104,4.7572,0.0,0.0,0.0,0.0,0.0,0.0,0.0,0.0,0.0,0.0,0.0,0.0,0.0,0.0,0.0,0.0,0.0,0.0,5.1432,5.1503,5.2298,5.4234,5.4048,5.3979,5.4237,5.387,5.3585,5.3494,5.3383,5.3752,5.4449,5.4559,5.4464,5.4245,5.5071,5.5123,5.4625,5.5307,0.0,0.0,0.0,0.0,5.341,5.3449,5.3175,5.2762,5.2762,5.2061,5.1227,5.1732,5.1161,5.0088,4.9326,4.9458,4.916,4.5616,0.0,4.4056,4.1105,4.0475,4.1404,4.4522,4.439,4.4492,0.0,0.0,4.7901,4.9326,5.075,5.2042,5.2904,5.3732,5.4759,5.6216,5.6581,5.6647,5.6581,5.6084,5.6239,5.7529,5.6189,5.5397,5.5955,5.5544,5.5418,5.5789,5.5437,5.5165,5.5058,5.4352,5.4017,5.4103,5.328,5.2902,5.2892,5.1565,5.0871,5.0808,5.0113,5.0229,5.0951,5.0951,5.1438,5.2307,5.2485,5.2119,5.145,5.25,5.2169,5.1159,5.1729,5.1494,5.0555,4.905,4.8547,4.8642,0.0,0.0,0.0,0.0,0.0,0.0,0.0,0.0,0.0,0.0,0.0,0.0,0.0,0.0,0.0,0.0,0.0,0.0,5.2077,5.2788,5.3987,5.6171,5.6138,5.5832,5.533,5.5549,5.5321,5.4541,5.4947,5.4976,5.472,5.5163,5.5581,5.5911,5.6742,5.6736,5.6125,5.6982,0.0,0.0,0.0,0.0,5.3323,5.3323,5.2648,5.1691,5.1504,5.1128,0.0,0.0,4.9687,4.9191,4.863,4.8067,4.7239,4.5284,4.439,0.0,4.2601,4.2899,4.3893,4.5417,4.6311,4.7305,4.916,4.9425,4.9591,5.0618,5.1645,5.2738,5.3864,5.4258,5.4821,0.0,5.6415,5.6547,5.6117,5.6183,5.6316,5.6514,5.627,5.6374,5.6945,5.6782,5.6349,5.5644,5.6233,5.6219,5.5268,5.4938,5.5026,5.5547,5.4349,5.3729,5.3818,5.285,5.2135,5.1745,5.1452,5.1508,5.1871,5.1911,5.2272,5.2799,5.3109,5.2942,5.2469,5.2135,5.2201,5.2369,5.1388,5.1082,5.105,4.997,4.9567,4.9432,0.0,0.0,0.0,0.0,0.0,0.0,0.0,0.0,0.0,0.0,0.0,0.0,0.0,0.0,0.0,0.0,0.0,0.0,0.0,5.3127,5.4814,5.7034,5.7273,5.7128,5.6654,5.6989,5.6786,5.5956,5.635,5.6236,5.5649,5.6226,5.6759,5.727,5.7862,5.7781,5.729,5.7838,0.0,0.0,0.0,0.0,5.3296,5.3001,5.1786,5.0266,5.0299,4.9914,0.0,0.0,4.7973,4.7787,4.728,4.6655,4.5951,4.5046,4.4244,4.3714,4.4001,4.487,4.5804,4.6277,4.7934,4.9458,4.9657,5.0286,5.0949,5.1514,5.2175,5.297,5.403,5.4523,5.5019,5.5786,5.668,5.7044,5.6316,5.6481,5.6481,5.5984,5.5852,5.6249,5.7376,5.7475,5.7074,5.6075,5.6962,5.7074,5.6042,5.5806,5.5889,5.6382,5.5077,5.4317,5.4192,5.35,5.287,5.2409,5.2445,5.2445,5.248,5.2659,5.2799,5.2903,5.3314,5.3146,5.2539,5.2065,5.2266,5.2739,5.1251,5.1048,5.1386,5.0439,4.9965,4.9627,0.0,0.0,0.0,0.0,0.0,0.0,0.0,0.0,0.0,0.0,0.0,0.0,0.0,0.0,0.0,0.0,0.0,0.0,0.0,5.1866,5.4024,5.5769,5.6489,5.7201,5.8011,5.7596,5.7377,5.7354,5.7037,5.7282,5.8015,5.8015,5.7866,5.7595,5.7595,5.7414,5.7116,0.0,0.0,0.0,0.0,0.0,5.3474,5.2459,5.0662,4.8766,4.9477,0.0,0.0,0.0,4.6467,4.5942,4.5165,4.5852,0.0,4.5295,4.436,4.4034,4.5053,4.5408,4.5827,4.7501,4.9061,5.0353,5.1083,5.1812,5.2343,5.234,5.2904,5.34,5.3434,5.4589,5.5819,5.6547,5.7873,5.8568,5.7839,5.7144,5.668,5.6647,5.4792,5.4361,0.0,5.6713,5.7011,5.7668,5.7111,5.7011,5.7668,5.7039,5.631,5.5648,5.4887,5.4158,5.3467,5.2771,5.2442,5.2409,5.2551,5.2589,5.2589,5.3007,5.3076,5.2903,5.3314,5.2572,5.1192,5.2774,5.2604,5.1352,5.1995,5.2266,5.2097,5.0642,4.9627,4.9018,0.0,0.0,0.0,0.0,0.0,0.0,0.0,0.0,0.0,0.0,0.0,0.0,0.0,0.0,0.0,0.0,0.0,0.0,0.0,5.153,5.3107,5.4783,5.6143,5.6747,5.6511,5.7864,5.832,5.7786,5.847,5.8682,5.8455,5.8723,5.8822,5.8728,5.9327,5.9395,5.909,0.0,0.0,0.0,0.0,0.0,5.5248,5.3139,5.0989,4.8884,0.0,0.0,0.0,0.0,4.4454,4.4113,4.3526,4.372,4.4053,4.3621,4.4841,4.6261,4.6004,4.7724,4.9705,5.0297,5.1554,5.2706,5.2976,5.2943,5.287,5.287,5.2023,5.1446,5.191,5.2407,5.3301,5.499,5.6481,5.7508,5.7773,5.8005,5.7608,5.615,5.6183,0.0,0.0,0.0,0.0,5.7011,5.7276,5.7309,5.7077,5.7432,5.7271,5.654,5.5343,5.4652,5.4531,5.3188,5.2589,5.2729,5.2764,5.2868,5.3007,5.3144,5.3246,5.3314,5.3416,5.318,5.2673,5.2672,5.2706,5.2672,5.1894,5.1589,5.1454,5.0439,4.9627,4.8951,0.0,0.0,0.0,0.0,0.0,0.0,0.0,0.0,0.0,0.0,0.0,0.0,0.0,0.0,0.0,0.0,0.0,0.0,0.0,0.0,5.1865,5.359,5.4641,5.5257,5.5413,5.6433,5.6865,5.6729,5.7662,5.8015,5.7825,5.8627,5.9,5.9058,5.9797,6.019,6.0275,0.0,0.0,0.0,0.0,0.0,5.4338,5.2177,5.0169,0.0,0.0,0.0,0.0,0.0,4.329,4.3544,4.2901,4.3153,4.3737,4.4054,4.6098,4.819,4.7966,5.0045,5.2274,5.2276,5.3272,5.41,5.3603,5.3307,5.2974,5.2404,5.1095,5.0125,5.0453,5.0717,5.1446,5.3102,5.4792,5.6349,5.7608,5.8051,5.7991,5.736,5.7737,5.7742,0.0,0.0,0.0,5.6796,5.7647,5.7819,5.6977,5.7648,5.7658,5.6734,5.5532,5.4834,5.4711,5.3365,5.2799,5.3007,5.3007,5.311,5.3314,5.3314,5.3382,5.3518,5.3518,5.3348,5.3044,5.2841,5.2706,5.2604,5.1589,5.1176,5.1057,5.0274,4.9676,4.9105,0.0,0.0,0.0,0.0,0.0,0.0,0.0,0.0,0.0,0.0,0.0,0.0,0.0,0.0,0.0,0.0,0.0,0.0,0.0,0.0,0.0,5.2024,5.202,5.2793,5.4597,5.3474,5.3344,5.4341,5.4827,5.5504,5.6382,5.7696,5.8299,5.8321,5.8776,5.9478,6.0248,0.0,0.0,0.0,0.0,0.0,5.1288,4.9828,0.0,0.0,0.0,0.0,0.0,0.0,4.312,4.4279,4.3369,4.4235,4.5787,4.6625,4.82,4.9899,5.0883,5.2305,5.3514,5.345,5.414,5.4483,5.321,5.3032,5.2726,5.122,5.025,4.9551,0.0,0.0,5.0353,5.1149,5.3135,5.5388,5.7647,5.7537,5.8058,0.0,0.0,0.0,0.0,0.0,0.0,5.7296,0.0,5.8435,5.7423,5.7873,5.7568,5.6318,5.5515,5.4781,5.4077,5.334,5.3041,5.3247,5.3247,5.3382,5.3584,5.3584,5.3584,5.3584,5.3584,5.3144,5.2466,5.3212,5.2669,5.1314,5.1246,5.1182,5.0971,5.0207,4.9785,4.9476,0.0,0.0,0.0,0.0,0.0,0.0,0.0,0.0,0.0,0.0,0.0,0.0,0.0,0.0,0.0,0.0,0.0,0.0,0.0,0.0,0.0,0.0,0.0,0.0,0.0,0.0,0.0,0.0,0.0,5.4956,5.5788,5.5746,5.5724,0.0,5.5049,5.5535,5.6794,0.0,0.0,0.0,0.0,0.0,5.3061,0.0,0.0,0.0,0.0,0.0,0.0,0.0,4.4871,4.6164,4.6694,4.7686,4.8898,5.0055,5.1714,5.3139,5.3226,5.4821,5.6367,5.5745,5.5355,5.4945,5.44,5.3556,5.2572,5.1369,4.9535,4.7796,0.0,0.0,0.0,5.0491,5.3884,0.0,5.9577,6.0685,0.0,6.1401,0.0,6.1616,6.1247,6.1013,0.0,0.0,5.9092,5.8413,5.8127,5.837,5.8182,5.7278,5.5967,5.5299,5.5272,5.399,5.3617,5.4072,5.4072,5.4359,5.4922,5.4922,5.4922,5.4922,5.4922,5.447,5.3744,5.3952,5.3435,5.2497,5.1941,5.1708,5.157,5.0794,5.0422,5.0338,0.0,0.0,0.0,0.0,0.0,0.0,0.0,0.0,0.0,0.0,0.0,0.0,0.0,0.0,0.0,0.0,0.0,0.0,0.0,0.0,0.0,0.0,0.0,0.0,0.0,0.0,0.0,0.0,0.0,0.0,0.0,5.3175,5.3238,5.3162,5.2806,5.332,5.4446,0.0,0.0,0.0,0.0,0.0,0.0,0.0,0.0,0.0,0.0,0.0,0.0,0.0,0.0,4.8164,4.9769,5.0988,5.2054,5.3128,5.4475,5.5671,5.5877,5.693,5.781,5.7236,5.6321,5.5255,5.4154,5.3185,5.2023,5.041,4.8646,4.6965,4.5719,4.6566,0.0,0.0,0.0,0.0,6.0178,6.1709,6.2696,0.0,6.3792,0.0,6.2649,6.2787,6.2744,0.0,6.0685,5.951,5.8728,5.8997,5.8736,5.7769,5.6622,5.5887,5.5621,5.4756,5.4488,5.4826,5.4826,5.5039,5.5402,5.5402,5.5402,5.5367,0.0,5.463,5.418,5.3829,5.3204,5.2467,5.2074,5.1852,5.1715,5.1281,5.1047,5.0909,0.0,0.0,0.0,0.0,0.0,0.0,0.0,0.0,0.0,0.0,0.0,0.0,0.0,0.0,0.0,0.0,0.0,0.0,0.0,0.0,0.0,0.0,0.0,0.0,0.0,0.0,0.0,0.0,0.0,0.0,0.0,0.0,0.0,0.0,0.0,0.0,0.0,0.0,0.0,0.0,0.0,0.0,0.0,0.0,0.0,0.0,0.0,0.0,0.0,0.0,5.0433,5.0605,5.267,5.4076,5.5188,5.598,5.6927,5.7804,5.8383,5.8709,5.8766,5.8204,5.7082,5.558,5.3361,5.2397,5.1286,4.9008,0.0,4.6704,4.5724,4.6275,4.7223,4.8377,0.0,5.5781,6.0559,6.1903,6.3285,6.5627,6.5949,6.5475,6.4092,6.4358,6.425,6.3443,6.2398,6.1052,5.9358,5.9516,5.9075,5.7763,5.7083,5.6372,5.5487,5.5418,5.5461,5.5519,5.5519,5.5543,5.5629,5.5524,5.5488,5.5453,5.4649,0.0,5.4056,5.3387,5.2647,5.1977,5.1977,5.1873,5.1736,5.1736,5.1598,5.1357,0.0,0.0,0.0,0.0,0.0,0.0,0.0,0.0,0.0,0.0,4.5568,4.4632,0.0,0.0,0.0,0.0,0.0,0.0,0.0,0.0,0.0,0.0,0.0,0.0,0.0,0.0,0.0,0.0,0.0,0.0,0.0,0.0,0.0,0.0,0.0,0.0,0.0,0.0,0.0,0.0,0.0,0.0,0.0,0.0,0.0,0.0,0.0,0.0,0.0,0.0,5.3761,5.4716,5.5277,5.6472,5.7898,5.8668,5.9516,6.0086,5.9542,6.0375,6.0892,5.8838,5.767,5.6317,5.3792,5.2114,0.0,0.0,4.725,4.6196,4.541,4.6577,4.837,5.0704,5.3147,5.6871,6.3065,6.4044,6.5197,0.0,6.7961,6.7226,6.6317,6.5198,0.0,0.0,6.2578,6.1708,6.0799,5.9617,5.8293,5.6788,5.6613,5.6187,5.5399,5.5413,5.5665,5.6146,5.6146,5.642,5.6871,5.6186,5.5898,5.5862,5.5105,0.0,5.3783,5.3639,5.3098,5.2402,5.2402,5.2377,5.2364,5.2364,5.2338,5.2263,0.0,0.0,0.0,0.0,0.0,0.0,0.0,0.0,4.6378,4.7261,4.7069,4.6613,0.0,0.0,0.0,0.0,0.0,0.0,0.0,0.0,0.0,0.0,0.0,0.0,0.0,0.0,0.0,0.0,0.0,0.0,0.0,0.0,0.0,0.0,0.0,0.0,0.0,0.0,0.0,0.0,0.0,0.0,0.0,0.0,0.0,0.0,0.0,0.0,0.0,0.0,5.4,5.6321,5.7503,5.8709,5.9832,6.0629,6.1426,6.2041,6.2078,6.2041,6.1616,6.005,5.8094,5.5932,5.346,0.0,0.0,0.0,4.6646,4.5503,4.5287,4.6283,0.0,4.9431,5.1996,5.5899,6.1884,6.3374,0.0,6.7689,6.8008,6.7372,0.0,6.5294,6.459,6.3346,6.2913,6.2036,6.0531,5.9026,5.7833,5.7097,5.7005,5.6821,5.6432,5.638,5.6501,5.6767,5.6767,5.6933,5.7152,5.6355,5.5993,5.5921,5.4762,0.0,5.3675,5.3241,5.2842,5.248,5.248,5.248,5.248,5.248,5.248,5.2394,0.0,0.0,0.0,0.0,0.0,0.0,0.0,4.5579,4.7083,4.8266,4.9029,4.9062,4.8116,4.7766,4.7155,0.0,0.0,0.0,0.0,0.0,0.0,0.0,0.0,0.0,0.0,0.0,0.0,0.0,0.0,0.0,0.0,0.0,0.0,0.0,0.0,0.0,0.0,0.0,0.0,0.0,0.0,0.0,0.0,0.0,0.0,0.0,0.0,0.0,0.0,0.0,5.3198,5.5702,5.785,5.9538,6.0883,6.1136,6.2295,6.3563,6.3997,6.3345,6.2259,6.11,5.8637,5.5812,5.3096,5.0633,0.0,4.788,4.6251,4.5106,4.5486,4.6054,4.6931,0.0,5.0378,5.4066,6.0118,6.2099,6.3995,0.0,6.7816,0.0,6.4956,6.5118,0.0,6.2802,6.2367,6.1479,5.9915,5.8512,5.7664,5.7523,5.7412,5.7342,5.7342,5.7247,5.7188,5.7188,5.7188,5.7188,5.7152,5.621,5.574,5.5667,5.411,0.0,0.0,5.277,5.248,5.248,5.2503,5.2526,5.2526,5.2549,5.2549,5.2354,0.0,0.0,0.0,0.0,0.0,0.0,0.0,4.6405,4.8348,5.0746,5.1103,5.1115,5.1009,4.988,4.8544,0.0,0.0,0.0,0.0,0.0,0.0,0.0,0.0,0.0,0.0,0.0,0.0,0.0,0.0,0.0,0.0,0.0,0.0,0.0,0.0,0.0,0.0,0.0,0.0,0.0,0.0,0.0,0.0,0.0,0.0,0.0,0.0,0.0,0.0,0.0,0.0,5.1905,5.4239,5.7655,6.0557,5.9144,0.0,0.0,6.349,6.3744,6.3635,6.139,5.947,5.7188,5.3349,0.0,4.8656,4.788,4.6411,4.5506,4.625,4.6442,4.7253,4.9517,0.0,5.1953,5.9753,6.1534,6.3558,6.7457,0.0,0.0,6.5721,6.491,0.0,6.1208,5.9687,5.9056,5.96,5.8806,5.8011,5.7253,5.7232,5.7221,5.7221,5.7199,5.7188,5.7188,5.7188,5.7188,5.7152,5.5667,5.5015,5.4907,5.3313,0.0,0.0,5.2516,5.248,5.2503,5.2581,5.2568,5.2627,5.2739,5.2761,5.2652,0.0,0.0,0.0,0.0,0.0,0.0,0.0,4.5003,4.6992,5.0525,5.1002,5.14,5.2531,5.1738,5.0118,0.0,0.0,0.0,0.0,0.0,0.0,0.0,0.0,0.0,0.0,0.0,0.0,0.0,0.0,0.0,0.0,0.0,0.0,0.0,0.0,0.0,0.0,0.0,0.0,0.0,0.0,0.0,0.0,0.0,0.0,0.0,0.0,0.0,0.0,0.0,0.0,0.0,5.1213,5.3875,0.0,0.0,6.0685,6.291,6.4567,6.4729,6.3925,6.1978,5.9216,5.6174,5.3168,0.0,4.8098,4.7772,4.6033,4.4802,4.5635,4.578,4.6106,0.0,0.0,0.0,5.5088,5.6935,5.9371,6.3889,6.5518,0.0,0.0,0.0,6.3382,6.0991,5.9325,5.8528,5.8854,5.8094,5.7514,5.7188,5.7188,5.7188,5.7188,5.7188,5.7188,5.7188,5.7188,5.7188,5.7152,5.5595,5.4907,5.4798,5.3204,0.0,0.0,5.2559,5.2604,5.2694,5.2987,5.3078,5.3046,5.2816,5.2729,5.2564,0.0,0.0,0.0,0.0,0.0,4.1965,4.3106,4.397,4.5923,4.9828,5.0353,5.1049,5.2832,5.2311,5.0946,4.8783,0.0,0.0,0.0,0.0,0.0,0.0,0.0,0.0,0.0,0.0,0.0,4.6717,4.7535,4.774,0.0,0.0,0.0,0.0,0.0,0.0,0.0,0.0,0.0,0.0,0.0,0.0,0.0,0.0,0.0,0.0,0.0,0.0,0.0,0.0,0.0,0.0,0.0,0.0,0.0,0.0,5.9265,6.1629,6.4077,6.4485,6.3875,6.2395,5.8999,5.545,0.0,0.0,4.7699,4.7699,4.6178,4.4983,4.5562,4.5635,4.5635,0.0,0.0,4.8568,5.2009,5.3892,5.6391,0.0,0.0,6.3345,0.0,6.3128,6.2295,6.0593,5.8963,5.8058,5.8058,5.7514,5.7188,5.7188,5.7188,5.7188,5.7188,5.7188,5.7188,5.7188,5.6971,5.6826,5.679,5.5269,5.4568,5.4484,5.3106,0.0,0.0,5.2857,5.295,5.3162,5.3469,5.3438,5.318,5.288,5.2612,5.22,0.0,0.0,0.0,0.0,0.0,0.0,0.0,4.397,4.5721,4.9077,4.9527,5.0128,5.1743,5.1196,5.0707,5.067,0.0,0.0,0.0,0.0,0.0,0.0,0.0,0.0,0.0,0.0,4.6538,4.8191,4.9039,4.9039,4.8213,4.9077,4.8138,0.0,0.0,0.0,0.0,0.0,0.0,0.0,0.0,0.0,0.0,0.0,0.0,0.0,0.0,0.0,0.0,0.0,0.0,0.0,0.0,0.0,0.0,0.0,5.6851,6.0719,6.1238,6.2552,6.3497,6.2305,5.8999,5.5595,0.0,5.0597,4.7699,4.7699,4.7047,4.6468,4.6504,4.6504,4.6504,4.6504,0.0,0.0,5.1937,5.3892,5.5776,0.0,0.0,6.0846,6.0846,6.0122,5.9651,5.9615,5.813,0.0,5.7224,5.7188,5.7188,5.7188,5.7188,5.7188,5.7188,5.7188,5.7188,5.7188,5.6391,5.5993,5.5957,5.4399,5.3746,5.379,0.0,0.0,0.0,5.3387,5.3606,5.3904,5.4048,5.3579,5.2813,5.2953,5.2461,5.1581,0.0,0.0,0.0,0.0,0.0,0.0,0.0,4.2567,4.4008,4.6752,4.7993,4.9227,5.0879,5.0857,5.0707,5.0707,0.0,0.0,0.0,0.0,0.0,0.0,0.0,0.0,0.0,0.0,4.7124,4.8176,4.9077,4.9903,5.0729,4.9903,4.9077,4.8288,4.765,0.0,0.0,0.0,0.0,0.0,0.0,0.0,0.0,0.0,0.0,0.0,0.0,0.0,0.0,0.0,0.0,0.0,0.0,0.0,0.0,0.0,0.0,0.0,5.8206,5.8895,5.8887,5.7927,5.5386,5.2783,5.1763,4.9552,4.7699,4.7699,4.7083,4.6504,4.6504,4.6504,4.6685,4.7228,4.7772,0.0,0.0,0.0,0.0,5.7297,6.0448,6.2223,0.0,0.0,5.9361,5.8818,5.7804,0.0,5.7583,5.7607,5.7461,5.7188,5.7188,5.7188,5.7188,5.7461,5.7291,5.6708,5.6867,5.6602,5.6049,5.509,5.4674,0.0,0.0,0.0,0.0,5.3906,5.3997,5.419,5.4474,5.4078,5.3301,5.2982,5.2344,5.1494,0.0,0.0,0.0,0.0,0.0,0.0,0.0,4.1901,4.2957,4.4839,4.6355,4.7875,4.958,4.9753,5.0031,5.0632,0.0,0.0,0.0,0.0,0.0,0.0,0.0,0.0,0.0,4.6486,4.7838,4.9602,5.0466,5.1405,5.2381,5.1668,5.0691,4.949,4.8927,0.0,0.0,0.0,0.0,0.0,0.0,0.0,5.1442,0.0,0.0,0.0,0.0,0.0,0.0,0.0,0.0,0.0,0.0,0.0,0.0,0.0,5.1407,5.2769,0.0,5.6368,5.6515,5.5849,5.3771,5.1773,5.1259,4.9541,4.8032,4.8032,4.763,4.7265,4.7265,4.7265,4.7448,4.7959,4.8368,4.8992,0.0,0.0,0.0,5.7085,0.0,0.0,0.0,6.0187,5.9432,5.892,5.8176,0.0,5.7618,5.7618,5.7359,5.6799,5.7034,5.6987,5.6695,5.6928,5.683,5.6345,5.6376,5.6172,5.5693,5.4969,5.4689,0.0,0.0,0.0,0.0,5.4376,5.449,5.4738,5.4933,5.4334,5.3245,5.2933,5.2079,5.1047,0.0,0.0,0.0,0.0,0.0,0.0,0.0,0.0,0.0,4.3412,4.4772,4.6298,4.795,4.8176,4.8852,0.0,0.0,0.0,0.0,0.0,0.0,0.0,0.0,0.0,0.0,4.7139,4.8754,5.1925,5.279,5.3316,5.352,5.4142,5.279,4.9859,4.9746,0.0,0.0,0.0,0.0,0.0,5.1142,5.133,0.0,0.0,0.0,0.0,0.0,0.0,0.0,0.0,0.0,0.0,0.0,0.0,0.0,0.0,0.0,0.0,0.0,5.4633,5.5728,5.5348,5.3625,5.1964,5.1964,5.0212,0.0,4.8624,4.8624,4.8624,4.8661,4.8661,4.8661,4.8753,4.8529,4.8866,0.0,5.1974,0.0,0.0,5.8747,0.0,5.9509,5.9668,5.9701,5.9664,5.9016,0.0,5.7401,5.7381,5.6972,5.6137,5.6698,5.6647,5.5845,5.5866,5.5932,5.606,5.5339,5.5025,5.5061,5.435,5.4046,0.0,0.0,0.0,0.0,5.476,5.4957,5.5288,5.525,5.418,5.269,5.269,5.1697,5.0283,0.0,0.0,0.0,0.0,0.0,0.0,0.0,0.0,0.0,0.0,4.4395,4.611,4.7162,4.7838,4.8852,0.0,0.0,0.0,0.0,0.0,0.0,0.0,0.0,0.0,0.0,4.8475,5.0136,5.2279,5.299,5.4387,5.6381,5.5179,5.4289,5.3581,5.2175,0.0,0.0,0.0,0.0,0.0,5.0213,5.0394,0.0,0.0,0.0,0.0,5.0482,5.0707,0.0,0.0,0.0,0.0,0.0,0.0,0.0,0.0,5.0128,4.9662,5.0333,0.0,5.1087,5.0966,5.0348,4.9762,0.0,4.9157,4.8624,4.8624,4.8624,4.8808,4.94,4.903,4.8975,5.0231,5.0376,5.0669,5.1664,5.4921,0.0,5.9945,6.1047,6.1177,5.9996,5.9926,5.9668,5.9054,0.0,5.8518,5.7959,5.7921,5.7354,5.6144,5.6262,5.6286,5.6178,5.6444,5.6292,5.5728,5.5896,5.567,5.5087,5.5052,5.4704,0.0,0.0,0.0,5.4268,5.4268,5.4307,5.4333,5.3683,5.2766,5.1888,5.1888,5.12,5.0283,0.0,0.0,0.0,0.0,0.0,0.0,0.0,0.0,0.0,0.0,0.0,0.0,0.0,0.0,0.0,0.0,0.0,0.0,0.0,0.0,0.0,0.0,0.0,0.0,4.7959,4.9181,5.1022,5.357,5.4277,5.5791,5.793,5.6964,5.5904,5.4821,5.2664,0.0,0.0,0.0,0.0,0.0,5.0462,0.0,0.0,0.0,0.0,0.0,5.004,5.019,0.0,5.1099,5.0867,5.044,0.0,0.0,0.0,0.0,5.0199,4.9582,4.9505,4.9753,5.0053,5.0053,4.9968,4.9883,4.9883,0.0,0.0,0.0,0.0,4.9316,4.9765,4.9765,5.0027,5.0908,5.1272,0.0,0.0,0.0,5.8621,6.1525,6.1364,6.1053,0.0,6.0471,5.9885,5.9412,0.0,5.8559,5.7916,5.75,5.6769,5.5669,5.5741,5.5731,5.5642,5.5831,5.5756,5.5381,5.5645,5.5369,5.465,5.5173,5.4906,0.0,0.0,0.0,5.4677,5.4256,5.4104,5.4027,5.3148,5.2308,5.1608,5.1608,5.1047,5.0283,0.0,0.0,0.0,0.0,0.0,0.0,0.0,0.0,0.0,0.0,0.0,0.0,0.0,0.0,0.0,0.0,0.0,0.0,0.0,0.0,0.0,0.0,0.0,4.8194,4.9035,4.9743,5.1678,5.4766,5.5814,5.7142,5.8675,5.8925,5.7544,5.4828,5.2537,5.1309,0.0,0.0,0.0,0.0,5.094,0.0,0.0,0.0,0.0,0.0,0.0,0.0,0.0,5.0402,5.0184,5.0,5.1496,0.0,0.0,0.0,0.0,0.0,4.9762,5.0431,5.1033,5.0626,5.0734,5.0892,5.0778,0.0,0.0,0.0,0.0,0.0,0.0,5.0727,0.0,0.0,0.0,0.0,5.6572,5.7005,5.8502,6.2316,6.092,0.0,6.1923,6.0928,6.0091,0.0,0.0,5.8491,5.7501,5.674,5.5978,5.5192,5.53,5.5246,5.4994,5.4994,5.5014,5.5154,5.5154,5.4789,5.4142,5.4868,5.4677,5.376,0.0,0.0,5.4753,5.4027,5.3722,5.3645,5.2766,5.2002,5.1391,5.1391,5.0932,5.0283,0.0,0.0,0.0,0.0,0.0,0.0,0.0,0.0,0.0,0.0,0.0,0.0,0.0,0.0,0.0,0.0,0.0,0.0,0.0,0.0,0.0,0.0,5.102,5.0694,5.1127,5.1155,5.2183,5.4231,5.6359,5.792,5.9026,6.0357,5.8866,5.5023,5.3957,5.2202,5.0082,0.0,0.0,5.0228,5.0123,0.0,0.0,0.0,0.0,0.0,0.0,0.0,0.0,4.9976,4.9952,5.0041,5.0974,0.0,0.0,0.0,0.0,0.0,5.0657,5.1982,5.2635,5.0409,5.0459,5.0875,5.0193,0.0,0.0,0.0,0.0,0.0,0.0,5.1509,5.1826,0.0,0.0,5.7217,0.0,0.0,6.0887,6.1565,0.0,6.1095,6.0719,6.048,6.0036,0.0,0.0,5.838,5.6828,5.6637,5.6179,5.5364,5.539,5.5377,5.5338,5.5338,5.5351,5.5364,5.5364,5.4919,5.4104,5.4256,5.3454,5.204,0.0,5.2805,5.2181,5.204,5.199,5.1888,5.1009,5.0627,5.0512,5.0512,5.0397,5.0321,0.0,0.0,0.0,0.0,0.0,0.0,0.0,0.0,0.0,0.0,0.0,0.0,0.0,0.0,0.0,0.0,0.0,0.0,0.0,0.0,0.0,5.331,5.2918,5.2374,5.1608,5.2437,5.3709,5.5441,5.7437,5.8887,5.9797,5.9612,5.821,5.5859,5.4586,5.334,5.2094,5.1218,5.1091,5.1484,0.0,0.0,0.0,0.0,0.0,0.0,0.0,0.0,0.0,0.0,4.9554,4.9999,4.9872,0.0,0.0,0.0,0.0,0.0,4.9134,5.0442,5.1522,5.0236,5.1578,5.3038,5.224,5.1737,0.0,0.0,0.0,0.0,0.0,0.0,5.3693,5.6664,0.0,5.9306,6.0068,6.015,6.0499,0.0,0.0,6.0446,6.0981,6.0217,0.0,0.0,0.0,0.0,5.6625,5.6205,5.5785,5.5403,5.5403,5.5403,5.5403,5.5403,5.5403,5.5403,5.4906,5.4256,5.3416,5.3416,5.2728,5.1646,0.0,5.2575,5.2193,5.1773,5.1608,5.1493,5.0627,5.0333,5.039,5.0476,5.0568,5.0622,0.0,0.0,0.0,0.0,0.0,0.0,0.0,0.0,0.0,0.0,0.0,0.0,0.0,0.0,0.0,0.0,0.0,0.0,0.0,0.0,5.3783,5.3364,5.3849,5.3607,5.2499,5.3569,5.4906,5.6587,5.8268,5.9644,6.0637,5.9185,5.781,5.6549,5.5059,5.4065,5.3454,5.2346,5.2117,5.2422,0.0,0.0,0.0,0.0,0.0,0.0,0.0,0.0,0.0,0.0,0.0,0.0,0.0,0.0,0.0,4.9326,4.9022,4.8743,4.8213,4.9326,5.0565,5.0456,0.0,5.4025,5.4202,5.3493,0.0,0.0,0.0,0.0,0.0,5.4142,0.0,5.8421,6.0026,6.0905,6.0714,6.0102,6.0179,6.144,6.0293,5.9835,6.0905,0.0,0.0,0.0,0.0,0.0,5.632,5.5747,5.5326,5.5097,5.5097,5.5021,5.4791,5.4829,5.4906,5.5097,5.4409,5.3531,5.2499,5.2499,5.2079,5.1314,5.1973,5.2265,5.2226,5.1644,5.1398,5.1371,5.0713,5.0476,5.0537,5.0696,5.0813,5.0927,0.0,0.0,0.0,0.0,0.0,0.0,0.0,0.0,0.0,0.0,0.0,0.0,0.0,0.0,0.0,0.0,0.0,0.0,0.0,0.0,5.3403,5.1825,5.3251,5.4409,5.5097,5.4448,5.4906,5.6587,5.8268,5.995,6.1478,6.0637,5.8932,5.6549,5.5708,5.3989,5.1811,5.2461,5.2308,5.1697,5.157,0.0,0.0,0.0,0.0,0.0,0.0,0.0,0.0,0.0,0.0,0.0,0.0,0.0,5.0271,5.0233,4.966,4.924,4.9916,5.0768,5.1493,5.1493,5.1073,0.0,5.4575,5.3976,0.0,5.6816,0.0,0.0,0.0,5.7619,5.8574,5.8077,6.0637,6.2433,6.1631,0.0,6.1478,6.1593,6.0828,6.0026,5.9324,0.0,0.0,0.0,0.0,0.0,5.5517,5.5441,5.5021,5.4218,5.418,5.3798,5.2996,5.3123,5.3506,5.418,5.4142,5.3263,5.1697,5.1697,5.12,5.0409,5.0604,5.0678,5.0699,5.0782,5.0874,5.0844,5.0843,5.0872,5.0879,5.0893,5.092,5.0998,0.0,0.0,0.0,0.0,0.0,0.0,0.0,0.0,0.0,0.0,0.0,0.0,0.0,0.0,0.0,0.0,0.0,0.0,0.0,5.1176,5.1926,5.2346,5.2957,5.3683,5.4562,5.4791,5.5747,5.739,5.8536,5.972,6.0828,5.9491,5.8039,5.6549,5.5174,5.376,5.2384,5.2652,5.2346,5.1608,5.1608,5.1264,0.0,0.0,0.0,0.0,0.0,0.0,0.0,0.0,4.9671,4.9824,0.0,4.9901,5.0206,4.971,4.8945,4.8258,4.799,4.8984,5.0054,5.0054,5.0168,0.0,0.0,5.6052,5.632,5.7619,5.8039,0.0,0.0,0.0,5.9185,5.9415,6.0943,6.1975,6.1669,6.1593,6.1211,6.0179,5.9797,5.9262,0.0,0.0,0.0,0.0,0.0,0.0,5.555,5.5643,5.5545,5.5247,5.4728,5.4304,5.3937,5.3436,5.3051,5.2787,5.2787,5.2472,5.1886,5.1347,5.096,5.0683,5.0734,5.075,5.0758,5.0835,5.0872,5.0872,5.0927,5.0996,5.1025,5.1079,5.117,5.1261,0.0,0.0,0.0,0.0,0.0,0.0,0.0,0.0,0.0,0.0,0.0,0.0,0.0,0.0,0.0,0.0,0.0,0.0,4.9022,4.9862,5.0703,5.1582,5.2384,5.3072,5.3683,5.4524,5.5823,5.7504,5.8307,5.9147,5.995,5.8268,5.7313,5.6931,5.525,5.4027,5.3225,5.3225,5.2575,5.1608,5.1608,5.1238,0.0,0.0,0.0,0.0,0.0,0.0,0.0,0.0,4.9671,0.0,0.0,0.0,0.0,0.0,4.8678,4.8028,4.715,4.799,4.9148,4.9404,0.0,0.0,5.6091,5.7237,5.7963,5.9568,5.9682,0.0,0.0,0.0,0.0,0.0,6.077,6.1576,6.1322,6.1337,6.084,5.9422,5.9256,5.8821,0.0,0.0,0.0,0.0,0.0,0.0,0.0,5.5141,5.4967,5.473,5.4165,5.3739,5.3422,5.2864,5.2159,5.1293,5.1331,5.1486,5.1672,5.1091,5.0865,5.0913,5.0946,5.0959,5.0966,5.1014,5.1047,5.1063,5.1123,5.117,5.1183,5.1236,5.1305,5.1414,0.0,0.0,0.0,0.0,0.0,0.0,0.0,0.0,0.0,0.0,0.0,0.0,0.0,0.0,0.0,0.0,0.0,0.0,4.65,4.8869,4.9901,4.9148,5.1429,5.2766,5.2805,5.3645,5.4906,5.6587,5.7466,5.8307,5.9019,5.739,5.7046,5.7772,5.6129,5.4906,5.4065,5.4065,5.311,5.157,5.1608,5.1608,5.1493,0.0,0.0,0.0,0.0,0.0,0.0,0.0,4.9786,4.9263,0.0,0.0,0.0,0.0,4.911,4.8907,4.8017,4.8449,4.9289,5.0092,0.0,0.0,5.7122,5.7237,5.8039,6.3136,0.0,5.9887,5.8244,0.0,0.0,5.8053,6.0137,6.1569,6.0697,6.0773,6.0573,5.9675,5.9559,0.0,0.0,0.0,0.0,0.0,0.0,0.0,0.0,5.379,5.2941,5.2133,5.2102,5.1721,5.0913,5.1053,5.0664,4.9803,4.9924,5.0286,5.0767,5.0847,5.0881,5.0881,5.1058,5.1097,5.1108,5.13,5.1391,5.1414,5.1414,5.1414,5.1414,5.1414,5.1414,5.1414,0.0,0.0,0.0,0.0,0.0,0.0,0.0,0.0,0.0,0.0,0.0,0.0,0.0,0.0,0.0,0.0,0.0,0.0,4.7368,4.757,4.8067,4.9071,4.9798,5.0741,5.1926,5.3378,5.4906,5.6587,5.6282,5.6549,5.7313,5.6816,5.5785,5.4333,0.0,5.3339,5.1467,5.2079,5.1697,5.0779,5.1964,5.1735,5.0741,0.0,0.0,0.0,0.0,0.0,0.0,0.0,0.0,0.0,0.0,0.0,0.0,4.9519,4.911,4.8907,4.8017,4.7979,4.8678,5.0703,0.0,0.0,0.0,5.8154,0.0,0.0,6.1374,6.0252,5.9235,0.0,0.0,5.9202,5.9822,6.0246,5.992,5.9952,5.9436,5.7998,5.7341,0.0,0.0,0.0,0.0,0.0,0.0,0.0,0.0,5.3797,5.3623,5.3368,5.2816,5.2391,5.2091,5.1561,5.1164,5.0858,5.0325,4.9815,4.9413,5.0053,5.035,5.0374,5.1015,5.1294,5.1336,5.1396,5.1408,5.1414,5.1414,5.1414,5.1414,5.1414,5.1414,5.1414,0.0,0.0,0.0,0.0,0.0,0.0,0.0,0.0,0.0,0.0,0.0,0.0,0.0,0.0,0.0,0.0,0.0,0.0,0.0,4.6806,4.7111,4.8525,4.9213,5.0512,5.2537,5.3225,5.4256,5.5594,5.5135,5.5326,5.6129,5.6129,5.5288,5.3874,0.0,5.3683,5.1314,5.1849,5.12,4.9977,5.1694,5.1541,5.0432,0.0,0.0,0.0,0.0,0.0,0.0,0.0,0.0,0.0,0.0,0.0,0.0,4.9062,4.8679,4.863,4.84,4.8667,4.9545,5.2127,5.4035,5.5906,5.8138,0.0,0.0,0.0,0.0,6.0545,5.9766,5.9696,0.0,5.9284,5.9559,5.9683,5.9314,5.9284,5.8823,5.7511,5.6597,0.0,0.0,0.0,0.0,0.0,0.0,0.0,0.0,5.3019,5.2899,5.291,5.242,5.2149,5.2135,5.1625,5.1227,5.0816,4.9979,4.9128,4.8348,4.9557,5.0111,5.0163,5.1023,5.1414,5.1414,5.1414,5.1414,5.1414,5.1414,5.1414,5.1414,5.1414,5.1414,5.1414,0.0,0.0,0.0,0.0,0.0,0.0,0.0,0.0,0.0,0.0,0.0,0.0,0.0,0.0,0.0,0.0,0.0,0.0,0.0,0.0,4.692,4.7865,4.9671,5.1697,5.3913,5.3339,5.3339,5.3989,5.3913,5.4295,5.5059,5.5288,5.5288,5.5097,0.0,5.4944,5.2537,5.2422,5.1097,4.9263,5.0926,5.1101,5.0489,5.136,0.0,0.0,0.0,0.0,0.0,0.0,0.0,0.0,4.9516,4.9286,4.9171,4.8183,4.7981,4.8211,4.8912,4.9835,5.125,5.3953,5.6084,0.0,5.9553,6.0934,6.186,6.206,0.0,6.0817,6.0096,5.9878,5.9607,5.8784,5.9367,5.9613,5.8713,5.8704,5.8475,5.7706,0.0,0.0,0.0,0.0,0.0,0.0,0.0,0.0,0.0,5.1807,5.1391,5.1414,5.1414,5.1414,5.1414,5.1336,5.0867,5.0085,4.915,4.833,4.7664,4.9265,5.0085,5.0241,5.0984,5.1297,5.1297,5.1297,5.1297,5.1297,5.1375,5.1414,5.1414,5.1414,5.1414,5.1414,0.0,0.0,0.0,0.0,0.0,0.0,0.0,0.0,0.0,0.0,0.0,0.0,0.0,0.0,0.0,0.0,0.0,0.0,0.0,0.0,4.7188,4.8754,5.1697,5.3225,5.3072,5.4256,5.4256,5.3072,5.2461,5.2231,5.2461,0.0,0.0,5.2499,0.0,5.3225,5.0741,4.9442,4.8945,4.9186,5.0237,5.0554,5.0451,5.0698,5.0719,0.0,0.0,0.0,0.0,0.0,0.0,0.0,4.9792,4.9939,5.0047,4.785,4.7688,4.8268,4.8445,4.9146,0.0,5.47,5.7939,6.0336,6.0858,6.0741,6.0501,6.036,6.084,6.1188,6.1089,6.0565,6.0136,5.9941,5.9525,5.8897,5.8038,5.796,5.7672,5.6854,0.0,0.0,0.0,0.0,0.0,0.0,0.0,0.0,5.1679,5.1484,5.141,5.1414,5.1414,5.1414,5.1414,5.0709,5.028,0.0,4.8562,4.7781,4.7625,4.8642,4.9813,5.1102,5.0592,5.0397,5.0397,5.0397,5.0397,5.0436,5.1141,5.1414,5.1414,5.1414,5.1414,5.1414,0.0,0.0,0.0,0.0,0.0,0.0,0.0,0.0,0.0,0.0,0.0,0.0,0.0,0.0,0.0,0.0,0.0,0.0,0.0,0.0,0.0,5.0206,5.2346,5.3454,5.3416,5.3937,5.3555,5.2231,5.145,5.145,5.2193,0.0,0.0,5.2891,0.0,5.3095,5.0374,4.9865,4.9226,4.8739,5.0391,5.0604,4.9925,5.0462,5.0198,4.9489,4.9103,0.0,0.0,0.0,0.0,0.0,0.0,0.0,4.9349,4.7603,4.7409,4.7959,4.878,4.997,0.0,5.6412,0.0,6.1261,6.0937,6.052,6.0118,5.9591,5.9879,6.0261,6.0286,5.996,5.9589,5.9159,5.873,5.8142,5.7301,5.7166,5.6819,5.6035,0.0,0.0,0.0,0.0,0.0,0.0,0.0,5.1219,5.0789,5.0789,5.0594,5.0165,5.0165,5.0165,5.0165,4.9696,4.9462,4.9462,4.8211,4.7586,4.7625,4.8017,4.915,5.075,4.9852,4.9462,4.9462,4.9462,4.9733,5.0163,5.0592,5.1023,5.1414,5.1414,5.1414,5.1414,0.0,0.0,0.0,0.0,0.0,0.0,0.0,0.0,0.0,0.0,0.0,0.0,0.0,0.0,0.0,0.0,0.0,0.0,0.0,0.0,0.0,0.0,5.242,5.3185,5.3912,5.326,0.0,0.0,5.102,5.1529,5.307,0.0,0.0,5.4226,0.0,5.3407,5.073,5.0807,4.9754,4.8183,5.0153,5.0231,4.9239,4.9892,4.9434,4.8353,4.8305,4.8393,4.8642,4.9386,0.0,0.0,0.0,0.0,4.8186,4.7286,4.7058,4.7374,4.9002,5.1062,5.3784,5.8041,6.0195,0.0,6.0354,6.0041,5.9729,5.887,5.8907,5.9102,5.9102,5.8987,5.8636,5.7933,5.766,5.7309,5.6489,5.6313,5.5996,5.5159,0.0,0.0,0.0,0.0,0.0,0.0,0.0,5.1023,5.0163,5.0085,4.9694,4.8837,4.8798,4.8798,4.8798,4.8642,4.8603,4.8564,4.7783,4.743,4.7586,4.743,4.8289,4.9811,4.8954,4.8603,4.8603,4.8603,4.9111,4.9889,5.0046,5.0631,5.1414,5.1414,5.1414,5.1414,0.0,0.0,0.0,0.0,0.0,0.0,0.0,0.0,0.0,0.0,0.0,0.0,0.0,0.0,0.0,0.0,0.0,0.0,0.0,0.0,0.0,5.1656,5.251,5.3046,5.3123,5.3,0.0,0.0,5.1601,5.2406,5.4093,5.4235,0.0,5.4258,0.0,0.0,5.1431,4.8583,4.7645,4.8069,4.7764,4.7982,4.8444,4.7914,4.8082,4.8552,4.7829,4.8071,4.8779,4.8896,4.8935,0.0,0.0,0.0,4.7569,4.6672,4.6438,4.6635,4.7648,0.0,5.4648,0.0,5.9297,5.9414,0.0,0.0,5.7933,0.0,5.8089,5.9102,5.9102,5.848,5.7933,5.7816,5.7231,5.645,5.5591,5.5472,5.5159,5.4264,0.0,0.0,0.0,0.0,0.0,0.0,5.1414,5.1023,5.0163,5.0085,4.9694,4.8837,4.8798,4.8798,4.8798,4.8096,4.7742,4.7742,4.6885,4.6885,4.7586,4.6807,4.7393,4.8915,4.8096,4.7742,4.7742,4.7742,4.8252,4.9032,4.9811,5.0631,5.1414,5.1414,5.1414,5.1414,0.0,0.0,0.0,0.0,0.0,0.0,0.0,0.0,0.0,0.0,0.0,0.0,0.0,0.0,0.0,4.5288,0.0,0.0,0.0,0.0,0.0,5.0988,5.1371,5.1793,5.2253,5.2264,5.188,5.1037,5.0602,5.1764,5.4364,5.3876,5.4414,0.0,0.0,0.0,0.0,0.0,4.8296,4.8137,4.7428,4.7346,4.7639,4.6897,4.6878,4.7193,4.6883,4.7064,4.7471,4.7978,4.8135,4.8057,4.7703,0.0,0.0,0.0,4.5909,4.669,4.8523,5.1102,5.399,0.0,5.805,5.8363,5.8363,5.8089,5.7582,5.6762,5.7192,5.7699,5.7699,5.7387,5.7113,5.7113,5.6411,5.5747,5.5357,5.4888,5.4264,5.3366,0.0,0.0,0.0,0.0,0.0,0.0,5.1414,5.0828,4.9423,4.9384,4.8759,4.7432,4.7393,4.7393,4.7393,4.7042,4.6853,4.6865,4.6944,4.6908,4.6835,4.6913,4.7376,4.8096,4.7237,4.6855,4.6865,4.6865,4.7338,4.8163,4.9023,4.9882,5.0741,5.121,5.1405,5.1444,0.0,0.0,0.0,0.0,0.0,0.0,0.0,0.0,0.0,0.0,0.0,0.0,0.0,0.0,0.0,0.0,4.5434,0.0,0.0,0.0,0.0,4.9841,5.011,5.0493,5.1107,5.1369,5.1188,5.0542,4.9999,5.1441,5.4726,5.3913,5.4874,0.0,5.5484,5.3808,0.0,0.0,0.0,0.0,4.739,4.6815,4.6614,4.629,4.6005,4.5858,4.6173,4.63,4.6417,4.7042,0.0,4.7276,4.7276,4.7118,0.0,0.0,0.0,4.6157,0.0,0.0,5.236,5.4968,5.6216,5.6957,0.0,0.0,5.6801,0.0,5.6411,5.6333,5.6567,5.6606,5.6528,5.6294,5.5708,5.5164,5.4695,5.4068,5.3366,5.2468,0.0,0.0,0.0,0.0,0.0,0.0,5.1414,5.0633,4.8876,4.8805,4.8027,4.6348,4.6276,4.6278,4.6278,4.6278,4.6284,4.6289,4.6875,4.6835,4.6204,4.6868,4.7187,4.7214,4.6551,4.6284,4.6289,4.6523,4.7108,4.7922,4.8781,4.9641,5.0501,5.1164,5.1398,5.1515,0.0,0.0,0.0,0.0,0.0,0.0,0.0,0.0,0.0,0.0,0.0,0.0,0.0,4.6347,4.6536,4.6536,4.5821,4.5803,4.6724,4.7626,0.0,4.8231,4.9038,0.0,4.95,5.0258,5.0681,5.0702,5.0576,5.2305,5.5626,5.4818,5.578,5.8154,5.6395,5.4776,5.3149,0.0,0.0,0.0,0.0,0.0,0.0,0.0,0.0,0.0,4.5987,4.63,4.63,0.0,0.0,0.0,0.0,0.0,0.0,0.0,0.0,0.0,0.0,4.7721,0.0,5.2241,5.3561,5.4615,0.0,0.0,5.4654,5.6255,5.5942,5.563,5.645,5.6606,5.6333,5.5513,5.5318,5.4734,5.3055,5.2782,5.2429,5.157,0.0,0.0,0.0,0.0,0.0,0.0,5.1414,5.0633,4.8876,4.8819,4.8044,4.6365,4.6249,4.6206,4.6206,4.6206,4.6205,4.6205,4.6244,4.6244,4.6204,4.6243,4.6283,4.6284,4.6206,4.6205,4.6283,4.7102,4.7961,4.882,4.9679,5.0578,5.1359,5.1398,5.1398,5.1515,0.0,0.0,0.0,0.0,0.0,0.0,0.0,0.0,0.0,0.0,0.0,0.0,0.0,4.6418,4.6444,4.5869,4.611,4.6186,4.5975,4.7328,0.0,4.8086,4.8933,4.9663,5.0212,4.9952,4.9836,4.9856,4.876,4.9952,5.3241,5.2433,5.3126,5.5011,5.4972,5.4321,5.3099,5.0727,0.0,0.0,0.0,0.0,0.0,0.0,0.0,0.0,0.0,0.0,0.0,0.0,0.0,0.0,0.0,0.0,0.0,0.0,0.0,0.0,0.0,0.0,0.0,5.0508,5.1676,5.2765,5.4491,5.4411,5.4173,5.4765,5.4609,5.4687,5.5547,5.6199,5.6294,5.5435,5.481,5.4068,5.286,5.2234,5.1765,0.0,0.0,0.0,0.0,0.0,0.0,0.0,0.0,5.0039,4.8867,4.8281,4.7419,4.6203,4.6157,4.6153,4.6153,4.6162,4.6199,4.6184,4.6184,4.6212,4.6192,4.6192,4.6192,4.6231,4.6774,4.7023,4.7042,4.7354,4.8005,4.8881,4.97,5.0246,5.0558,5.1144,5.1339,5.1534,0.0,0.0,0.0,0.0,0.0,0.0,0.0,0.0,0.0,0.0,0.0,0.0,0.0,0.0,4.7113,4.6369,4.6868,4.7002,4.6425,4.7452,4.8086,4.8086,4.8933,4.9663,5.025,4.9971,4.974,4.9486,4.8369,4.9127,5.1571,5.0761,5.1262,5.2922,5.2884,5.2893,0.0,0.0,0.0,5.0075,0.0,0.0,4.7822,0.0,0.0,0.0,0.0,0.0,0.0,0.0,0.0,0.0,0.0,0.0,0.0,0.0,0.0,0.0,4.3625,0.0,0.0,0.0,5.0076,5.0937,5.2652,5.2889,5.2851,5.3394,5.3705,5.4173,5.5032,5.5937,5.6202,5.5031,5.4132,5.3273,5.2375,5.1789,5.1398,0.0,0.0,0.0,0.0,0.0,0.0,0.0,0.0,0.0,4.8386,4.7793,4.7034,4.6095,4.6056,4.61,4.6108,4.6126,4.6165,4.6187,4.6187,4.6212,4.6215,4.6165,4.6165,4.6254,4.7085,4.7458,4.7552,4.8095,4.8662,4.9294,5.0112,5.0424,5.0502,5.1086,5.132,5.1554,0.0,0.0,0.0,0.0,0.0,0.0,0.0,0.0,0.0,0.0,0.0,0.0,0.0,0.0,0.0,4.8174,4.8163,4.8163,4.8086,4.8163,4.8163,4.8125,0.0,0.0,0.0,0.0,5.0305,4.9614,4.9537,4.9998,5.0894,0.0,5.0545,5.213,5.0434,5.0614,5.2158,0.0,5.198,5.1178,0.0,4.8096,4.8876,0.0,0.0,0.0,5.0046,5.0046,0.0,4.8213,0.0,0.0,0.0,0.0,0.0,0.0,0.0,0.0,0.0,0.0,0.0,0.0,0.0,0.0,5.0928,0.0,5.054,5.2259,5.3234,5.4053,5.4951,5.577,5.5809,5.4169,5.3272,5.2453,5.1594,5.1476,5.1476,0.0,0.0,0.0,0.0,0.0,0.0,0.0,4.9328,4.8426,4.7471,4.7398,4.6941,4.6041,4.5997,4.6022,4.6113,4.6113,4.6138,4.6219,4.6219,4.6215,4.6176,4.6134,4.6138,4.6247,4.6975,4.7378,4.7653,4.9329,4.9995,5.0112,5.0969,5.132,5.132,5.132,5.132,5.1593,0.0,0.0,0.0,0.0,0.0,0.0,0.0,0.0,0.0,0.0,0.0,0.0,4.821,4.8853,4.9201,4.9038,4.9625,4.9433,4.8202,4.9279,4.9702,4.9086,4.9894,5.0327,0.0,0.0,0.0,0.0,0.0,0.0,0.0,0.0,0.0,0.0,4.9761,4.9448,4.8786,4.9473,0.0,5.1005,4.7886,4.8252,0.0,0.0,0.0,0.0,0.0,4.9153,4.9163,0.0,4.918,4.863,0.0,0.0,0.0,0.0,0.0,0.0,4.2856,0.0,0.0,0.0,0.0,0.0,0.0,0.0,4.9396,5.0516,5.0881,5.1483,5.2964,5.2901,5.284,5.3618,5.4164,5.4209,5.3349,5.3193,5.3189,0.0,0.0,0.0,0.0,0.0,0.0,0.0,5.0061,4.9204,4.8301,4.7043,4.6213,4.5935,4.5935,4.5964,4.6022,4.6099,4.6138,4.6219,4.6219,4.6165,4.6134,4.6122,4.6065,4.6081,4.6945,4.7688,4.8375,4.9464,5.0317,5.0969,5.1203,5.132,5.132,5.132,5.171,5.2411,0.0,0.0,0.0,0.0,0.0,0.0,0.0,0.0,0.0,0.0,0.0,0.0,5.0534,5.1434,5.1895,5.1548,5.1318,5.0779,4.9731,5.0317,5.0481,4.9971,5.0442,5.0712,5.0712,0.0,0.0,0.0,0.0,0.0,0.0,0.0,0.0,0.0,0.0,0.0,0.0,0.0,0.0,0.0,4.7969,0.0,0.0,4.8642,4.8642,0.0,0.0,0.0,5.0807,4.9804,4.9202,0.0,0.0,0.0,0.0,0.0,0.0,0.0,0.0,0.0,0.0,0.0,0.0,0.0,4.7451,4.7566,4.7708,0.0,4.8871,4.9785,5.1146,5.1542,5.1985,5.2995,5.426,5.4801,5.394,5.3823,5.3813,5.3748,0.0,0.0,0.0,5.1999,5.1288,5.1125,4.9326,4.8043,4.7478,4.6797,4.6216,4.5867,4.5867,4.5899,4.5964,4.5997,4.6042,4.6126,4.6126,4.6113,4.6047,4.6022,4.6201,4.6579,4.7383,4.8281,4.9182,5.0004,5.0719,5.1252,5.1273,5.1515,5.1826,5.1826,5.2372,5.3268,0.0,0.0,0.0,0.0,0.0,0.0,0.0,0.0,0.0,0.0,0.0,0.0,0.0,0.0,0.0,0.0,5.3087,5.2038,5.2038,5.1202,5.0712,5.0712,5.0712,5.0721,5.0702,5.085,0.0,0.0,0.0,0.0,0.0,0.0,0.0,0.0,0.0,0.0,0.0,0.0,0.0,4.7391,4.8291,4.9306,0.0,0.0,5.0906,5.2198,5.1387,5.2096,5.2922,4.9761,4.8059,0.0,0.0,0.0,0.0,0.0,4.496,0.0,0.0,0.0,0.0,0.0,0.0,0.0,4.618,4.6191,4.6235,0.0,4.7367,4.8727,4.9576,5.1041,5.2123,5.22,5.3715,5.4608,5.3954,5.3915,5.3954,5.398,0.0,0.0,5.3702,5.1495,5.0324,5.09,4.7955,4.6114,4.6054,4.6615,4.6619,4.5807,4.5807,4.5841,4.5911,4.5911,4.5941,4.6002,4.6002,4.5997,4.5991,4.5935,4.6401,4.7328,4.7984,4.8857,4.9852,5.0578,5.0978,5.1206,5.1256,5.1818,5.2598,5.2598,5.3182,5.4156,5.1167,0.0,0.0,0.0,0.0,0.0,0.0,0.0,0.0,0.0,0.0,0.0,0.0,0.0,0.0,0.0,5.4318,5.2972,5.2972,5.1548,5.0712,5.0712,5.0712,5.0749,5.0858,5.0939,0.0,0.0,0.0,0.0,0.0,0.0,0.0,0.0,0.0,0.0,0.0,0.0,0.0,4.5634,4.7196,0.0,5.0984,4.9579,4.9311,4.9628,4.9396,4.9529,4.9677,4.8826,4.79,4.7191,0.0,0.0,0.0,0.0,0.0,0.0,0.0,0.0,0.0,0.0,0.0,0.0,4.7268,4.7514,4.7842,0.0,4.7284,4.7753,4.8606,4.9568,5.0456,5.1106,5.2663,5.4025,5.4647,5.5281,5.5689,5.5627,0.0,0.0,5.367,5.2482,5.1287,5.0061,4.8048,4.6886,4.6872,4.6355,4.6,4.5807,4.5807,4.5841,4.5911,4.5911,4.5941,4.6002,4.6002,4.5975,4.5929,4.5917,4.6352,4.7157,4.7284,4.8251,4.9751,4.9956,5.0448,5.1147,5.1206,5.177,5.2509,5.2505,5.3517,5.4879,5.1177,0.0,0.0,0.0,0.0,0.0,0.0,0.0,0.0,0.0,0.0,0.0,0.0,0.0,0.0,0.0,0.0,0.0,0.0,0.0,5.1125,5.0712,5.0767,5.0825,5.0914,5.1041,5.1117,0.0,0.0,0.0,0.0,0.0,0.0,0.0,0.0,0.0,0.0,0.0,4.5909,4.6415,4.7705,0.0,4.8876,4.8843,4.8612,4.8227,4.8163,4.8108,4.8057,4.839,4.8179,0.0,0.0,4.7657,4.8198,0.0,4.7734,4.8314,0.0,0.0,0.0,4.8933,0.0,0.0,0.0,4.7132,4.7029,4.6642,4.619,4.628,4.7565,4.8498,4.9165,4.9591,5.1447,5.3027,5.3543,5.5055,5.6087,5.604,0.0,0.0,5.4241,5.2609,5.0874,4.9165,4.8624,4.8005,4.7154,4.6689,4.6271,4.5807,4.5807,4.5821,4.5861,4.5861,4.5874,4.5911,4.5911,4.5893,4.5861,4.6287,4.6957,4.7773,4.8198,4.9126,5.0287,5.0325,5.0601,5.1069,5.1597,5.233,5.3152,5.3575,5.4546,5.5635,5.0745,0.0,0.0,0.0,0.0,0.0,0.0,0.0,0.0,0.0,0.0,0.0,0.0,0.0,0.0,0.0,0.0,0.0,0.0,0.0,5.1395,5.075,5.0816,5.0813,5.0688,5.1035,5.1211,5.1225,0.0,0.0,0.0,0.0,0.0,0.0,0.0,0.0,0.0,0.0,0.0,4.7668,0.0,4.7748,4.6694,4.8107,4.8228,4.7609,4.7491,4.7249,4.7095,4.7933,4.8199,4.7966,4.6883,4.8314,0.0,0.0,0.0,0.0,0.0,0.0,0.0,0.0,0.0,4.9088,0.0,0.0,0.0,4.6312,4.5725,4.5687,0.0,0.0,0.0,0.0,0.0,0.0,0.0,5.4,0.0,5.5509,0.0,0.0,5.431,5.2105,5.0047,4.8508,4.9049,4.8778,4.7192,4.7115,4.6689,4.5845,4.5807,4.5807,4.5807,4.5807,4.5807,4.5807,4.5807,4.5884,4.6078,4.6767,4.7657,4.8701,4.9397,5.0171,5.0898,5.0898,5.1014,5.1223,5.2058,5.2932,5.3793,5.4679,5.5495,5.6194,5.0655,5.1536,0.0,0.0,0.0,0.0,0.0,0.0,0.0,0.0,0.0,0.0,0.0,0.0,0.0,0.0,0.0,0.0,5.8588,0.0,0.0,0.0,5.0816,5.0593,4.9947,5.0762,5.1275,5.1367,0.0,0.0,0.0,0.0,0.0,0.0,4.5791,0.0,0.0,0.0,4.5997,0.0,4.7683,4.7603,0.0,4.7684,4.7689,4.7578,4.7452,4.6843,4.6258,0.0,4.7253,4.7463,0.0,4.8972,4.8933,5.0124,0.0,0.0,0.0,0.0,0.0,0.0,5.2414,0.0,0.0,0.0,4.9717,4.8176,0.0,0.0,0.0,0.0,0.0,0.0,0.0,0.0,5.1053,5.2647,5.3768,5.3768,5.3033,0.0,0.0,5.0867,4.9436,4.8469,4.8508,4.8121,4.7154,4.7115,4.6689,4.5845,4.5807,4.5807,4.5807,4.5807,4.5807,4.5807,4.5807,4.6194,4.696,4.7038,4.8005,4.9552,4.9668,5.0171,5.0898,5.0898,5.137,5.2082,5.2242,5.282,5.3719,5.4597,5.5411,5.6102,4.9921,5.1132,0.0,0.0,0.0,0.0,0.0,0.0,0.0,0.0,0.0,0.0,0.0,0.0,0.0,0.0,0.0,5.8127,0.0,0.0,0.0,0.0,0.0,5.18,5.2012,5.1047,5.0572,5.0631,4.9304,0.0,0.0,0.0,0.0,0.0,4.5322,0.0,4.6027,0.0,4.5726,0.0,0.0,0.0,0.0,4.7417,4.7225,4.672,4.6625,4.6274,4.5925,0.0,4.6999,0.0,0.0,0.0,0.0,0.0,0.0,0.0,0.0,0.0,0.0,0.0,0.0,0.0,5.052,0.0,4.9605,0.0,0.0,0.0,0.0,0.0,0.0,0.0,4.9855,0.0,0.0,0.0,5.1713,0.0,0.0,0.0,0.0,0.0,0.0,0.0,4.8856,4.8778,4.7889,4.7386,4.6922,4.6581,4.6078,4.5807,4.5807,4.5807,4.5807,4.5807,4.631,4.6728,4.7115,4.8159,4.901,4.9745,5.0202,5.0589,5.0898,5.0898,5.1409,5.2268,5.2802,5.3515,5.4405,5.521,5.5752,5.6024,4.9114,0.0,0.0,0.0,0.0,0.0,5.4742,5.7162,5.8937,5.8845,0.0,0.0,6.4334,6.3573,0.0,0.0,6.2666,6.0704,0.0,0.0,5.5395,0.0,0.0,0.0,0.0,5.1392,5.0709,5.0475,0.0,0.0,0.0,0.0,0.0,0.0,0.0,4.5486,4.5682,0.0,4.5848,4.6632,4.6404,4.6288,4.6366,4.6992,4.6736,4.6091,4.6037,4.5923,4.5845,4.6078,4.6999,0.0,4.6844,0.0,0.0,0.0,0.0,0.0,5.0782,0.0,0.0,0.0,0.0,0.0,0.0,0.0,0.0,0.0,0.0,0.0,0.0,0.0,0.0,0.0,0.0,5.0117,0.0,4.9259,0.0,0.0,0.0,0.0,0.0,0.0,0.0,4.8856,4.9359,4.932,4.8469,4.7811,4.7463,4.7463,4.6844,4.6503,4.6503,4.6503,4.6503,4.6542,4.7154,4.7579,4.785,4.9126,4.9823,5.0055,5.0666,5.0898,5.0937,5.1169,5.1757,5.2655,5.3536,5.4387,5.52,5.578,5.6012,5.6012,4.8343,4.904,0.0,0.0,0.0,0.0,5.556,5.6742,5.7698,5.8566,6.0447,6.2787,6.5644,6.6233,0.0,0.0,0.0,6.3192,6.3089,0.0,5.4587,0.0,0.0,5.2413,0.0,0.0,0.0,0.0,0.0,0.0,0.0,0.0,0.0,0.0,0.0,4.6711,4.7453,4.6637,4.6756,4.7498,4.664,4.6289,4.6289,0.0,4.6197,4.6091,4.6037,0.0,0.0,4.6767,4.7115,0.0,0.0,0.0,0.0,0.0,0.0,0.0,0.0,0.0,0.0,5.0764,0.0,0.0,0.0,0.0,5.0162,0.0,0.0,0.0,0.0,0.0,0.0,0.0,0.0,0.0,0.0,0.0,0.0,0.0,0.0,0.0,0.0,0.0,5.055,4.9707,4.9668,4.932,4.8469,4.8353,4.8353,4.8353,4.8314,4.8314,4.8314,4.8314,4.8314,4.8314,4.8353,4.8817,4.9629,4.9668,5.0132,5.0859,5.0898,5.0898,5.0975,5.1796,5.2685,5.3536,5.4426,5.5238,5.5973,5.6012,5.6012,5.6012,0.0,0.0,0.0,0.0,0.0,5.2994,5.4759,5.6832,5.8958,6.1212,6.3081,6.5861,7.0099,6.9715,6.9368,0.0,0.0,6.4859,6.2666,6.0358,0.0,0.0,0.0,5.5746,0.0,0.0,0.0,0.0,0.0,0.0,0.0,0.0,0.0,0.0,0.0,4.593,0.0,0.0,0.0,0.0,0.0,4.6641,4.7109,0.0,0.0,4.6084,4.5914,4.5848,0.0,4.6155,4.6612,4.7038,4.6767,4.7463,4.8275,4.7695,4.7966,0.0,0.0,0.0,4.939,4.9892,0.0,0.0,0.0,0.0,0.0,0.0,0.0,0.0,0.0,0.0,0.0,0.0,0.0,0.0,0.0,0.0,0.0,0.0,0.0,0.0,0.0,0.0,0.0,4.7957,4.8462,4.8469,4.7579,4.8082,4.8121,4.754,4.8082,4.8121,4.754,4.8121,4.8392,4.8392,4.8972,4.9397,4.9707,5.0241,5.0627,5.0898,5.0898,5.1215,5.1796,5.2066,5.3033,5.4387,5.4697,5.5277,5.6012,5.6012,5.6012,5.6081,5.0073,0.0,0.0,0.0,5.147,5.3429,5.4917,5.7728,6.0608,6.3063,6.5254,6.8205,7.2444,7.1669,7.09,0.0,6.9206,6.659,6.3205,6.194,0.0,5.9687,5.8238,5.7248,0.0,0.0,0.0,0.0,0.0,5.0869,0.0,0.0,0.0,0.0,0.0,4.6052,4.6286,4.6014,4.6054,0.0,0.0,4.6641,0.0,0.0,4.6316,4.6512,0.0,4.5848,4.5807,4.5807,4.6155,4.6542,4.6,4.6581,4.7386,4.6806,4.7038,4.754,4.785,4.7927,0.0,4.857,4.8312,0.0,4.8569,0.0,0.0,0.0,0.0,0.0,0.0,0.0,0.0,0.0,0.0,0.0,0.0,4.777,0.0,0.0,0.0,0.0,0.0,0.0,4.8715,4.7108,4.7573,4.7695,0.0,0.0,4.8275,4.8043,4.8856,4.8988,4.84,4.894,4.9186,4.9136,4.9676,4.998,5.0061,5.0601,5.0833,5.0833,5.1134,5.1533,5.2076,5.2655,5.3571,5.4622,5.5025,5.5441,5.5866,5.6316,5.667,5.7018,5.0944,5.0469,0.0,5.1965,5.3543,5.4983,5.601,5.938,6.2447,6.4215,6.6976,6.9918,7.2723,7.2297,7.2179,7.3293,7.1091,6.8205,6.482,6.319,0.0,0.0,5.7681,5.7018,5.5389,0.0,0.0,0.0,0.0,0.0,0.0,0.0,0.0,0.0,4.7929,0.0,4.6367,4.7187,4.707,4.6289,4.6289,4.6328,4.6367,4.6237,4.6704,4.7264,4.6353,4.5923,4.5807,4.5807,4.5807,4.5807,4.5807,4.5807,4.5807,4.5807,4.5807,4.6,4.6806,4.7038,4.7016,4.6937,0.0,0.0,0.0,0.0,4.8996,0.0,0.0,0.0,0.0,0.0,0.0,0.0,0.0,0.0,0.0,0.0,0.0,0.0,0.0,0.0,0.0,4.9364,4.8741,4.7248,4.7108,4.7069,0.0,0.0,4.8809,4.9544,5.0465,5.0863,5.0615,5.073,5.0615,5.0385,5.0385,5.0507,5.076,5.0692,5.0721,5.0837,5.1559,5.1864,5.1946,5.3556,5.4246,5.4384,5.5406,5.572,5.5762,5.686,5.786,5.8633,5.1189,5.2353,5.3796,5.4872,5.4431,5.462,5.6698,5.9716,6.2975,6.6198,6.9649,7.268,7.4958,7.445,7.3274,7.1692,6.9821,0.0,0.0,0.0,0.0,6.1198,6.0711,6.0044,5.9048,5.8677,0.0,5.5602,0.0,0.0,5.1357,0.0,0.0,0.0,0.0,0.0,4.6328,4.6523,4.6484,4.6289,4.6289,4.668,0.0,0.0,4.6731,4.7264,4.6353,4.5923,4.5807,4.5807,4.5807,4.5807,4.5807,4.5807,4.5807,4.5807,4.5807,4.5845,4.6078,4.6116,4.6264,4.6885,4.6653,4.6408,0.0,0.0,0.0,0.0,0.0,0.0,0.0,0.0,0.0,0.0,0.0,0.0,0.0,0.0,0.0,4.921,0.0,0.0,4.9745,4.887,4.8116,4.7732,4.7216,0.0,0.0,0.0,0.0,4.767,5.0245,5.0981,4.9603,5.0821,5.108,5.0385,5.0385,5.079,5.1397,5.0755,5.1167,5.2308,5.1935,5.245,5.3595,5.4016,5.4591,5.5178,5.5455,5.6299,5.735,5.7163,5.8045,5.9377,5.2764,5.4192,5.5677,5.6553,5.6402,5.6723,5.844,6.1035,6.3837,6.6679,6.9926,0.0,7.3654,7.3322,7.2476,7.1014,6.9013,0.0,6.4743,0.0,0.0,6.1995,6.1359,6.0828,6.0393,5.9154,0.0,5.6582,0.0,0.0,5.1363,0.0,0.0,0.0,0.0,4.6289,4.6289,4.6289,4.6289,4.6289,4.6289,0.0,0.0,4.6484,4.655,4.68,4.6255,4.5931,4.5807,4.5807,4.5807,4.5807,4.5807,4.5807,4.5807,4.5807,4.5807,4.5807,4.5807,4.5807,4.5923,4.6426,4.6104,4.5881,4.6711,4.6826,4.6925,0.0,0.0,0.0,0.0,0.0,0.0,0.0,0.0,0.0,0.0,0.0,0.0,0.0,5.0024,0.0,4.9944,4.8433,4.7569,4.7882,4.7299,0.0,0.0,0.0,0.0,4.7933,5.0778,5.1655,5.0187,5.1488,5.167,5.0746,5.0746,5.1252,5.2138,5.1641,5.1909,5.2815,5.27,5.3148,5.3989,5.4371,5.479,5.53,5.5681,5.665,5.7889,5.7862,5.8753,6.0,5.4919,5.5852,0.0,0.0,0.0,5.9962,6.0772,6.3009,0.0,6.672,0.0,7.1168,7.0937,7.0898,7.0783,7.0437,0.0,6.6282,6.4705,6.3999,6.2959,6.1458,6.0867,6.0588,6.0551,5.8763,5.748,0.0,0.0,0.0,0.0,0.0,0.0,0.0,0.0,0.0,0.0,4.6289,4.6289,4.6289,4.6289,4.6289,4.6289,4.6289,4.6245,4.6179,4.6134,4.6003,4.5827,4.5814,4.5807,4.5807,4.5807,4.5807,4.5807,4.5807,4.5807,4.5807,4.5807,4.5807,4.5807,4.5807,4.5807,4.5972,4.6629,4.675,4.6912,4.7499,4.8136,4.836,0.0,0.0,0.0,0.0,0.0,0.0,0.0,0.0,0.0,0.0,0.0,0.0,5.0196,4.8515,4.7645,4.8005,0.0,0.0,0.0,0.0,0.0,4.9001,5.1518,5.2432,5.1561,0.0,5.2384,5.1533,5.1419,5.1871,5.2819,5.2691,5.278,5.2996,5.363,5.3864,5.3897,5.4617,5.4958,5.5148,5.6019,5.6975,5.7949,5.8845,5.9682,6.0456,5.5872,0.0,0.0,0.0,0.0,6.205,6.2921,6.5432,6.7592,6.8533,7.1227,7.2514,7.1052,7.0898,7.0052,6.7936,6.6744,0.0,0.0,0.0,0.0,6.2306,6.1759,6.1451,6.1461,5.9125,5.7804,0.0,0.0,0.0,0.0,0.0,0.0,0.0,0.0,0.0,4.6289,4.6289,0.0,4.6289,4.6289,4.6289,4.6289,4.6289,4.6245,4.6183,4.6175,4.6095,4.5953,4.5848,4.5807,4.5807,4.5807,4.5807,4.5807,4.5807,4.5807,4.5807,4.5807,4.5807,4.5807,4.5807,4.5807,4.5838,4.5972,4.6003,4.619,4.692,4.7012,4.7138,4.7571,0.0,0.0,0.0,0.0,0.0,0.0,0.0,0.0,0.0,0.0,5.0646,0.0,5.0748,5.0083,0.0,0.0,0.0,0.0,0.0,0.0,0.0,5.1075,0.0,0.0,0.0,5.3433,5.3252,5.2518,5.266,5.35,5.2779,5.3196,5.4486,5.3955,5.4116,5.4693,5.4844,5.5337,5.6057,5.6853,5.7756,5.8653,5.9625,6.0015,6.0053,5.684,0.0,0.0,0.0,0.0,0.0,0.0,6.688,6.799,6.7515,6.9047,6.9706,6.8436,6.8667,6.8282,6.6628,6.5705,6.4666,6.3397,6.2713,6.2214,6.184,6.1676,6.1423,6.1034,5.897,5.7688,5.7224,0.0,0.0,0.0,0.0,0.0,0.0,0.0,4.6055,0.0,0.0,0.0,4.5664,4.6133,4.6289,4.6289,4.6289,4.6288,4.6242,4.6228,4.6155,4.6087,4.5936,4.5867,4.5807,4.5807,4.5807,4.5807,4.5807,4.5807,4.5807,4.5807,4.5807,4.5807,4.5807,4.5807,4.5807,4.5807,4.5807,4.5887,4.618,4.6142,4.6398,4.7487,4.858,0.0,0.0,0.0,0.0,0.0,0.0,0.0,0.0,0.0,0.0,0.0,0.0,0.0,0.0,0.0,0.0,0.0,0.0,0.0,0.0,0.0,0.0,0.0,0.0,0.0,5.3707,5.329,5.3518,5.4314,5.3897,5.4162,5.4882,5.4503,5.4806,5.5602,5.6019,5.6436,5.6891,5.7763,5.8331,5.8818,5.9725,5.996,5.995,0.0,5.8699,0.0,0.0,6.3038,6.4438,6.5834,6.7376,6.7936,6.659,6.6974,6.7051,6.6244,6.6551,6.6513,6.5705,6.4666,6.3512,6.2178,6.2043,6.178,6.1218,6.1395,6.1155,6.0411,5.8776,5.7376,0.0,0.0,0.0,0.0,0.0,0.0,0.0,0.0,0.0,0.0,0.0,4.6016,4.5586,4.6094,4.6289,4.6289,4.6289,4.6289,4.6289,4.624,4.6184,4.6158,4.6048,4.5919,4.5848,4.5814,4.5807,4.5807,4.5807,4.5807,4.5807,4.5807,4.5807,4.5807,4.5807,4.5807,4.5807,4.5807,4.5807,4.5778,4.5642,4.5731,4.6185,4.746,4.8922,0.0,0.0,0.0,0.0,0.0,0.0,0.0,0.0,0.0,0.0,4.8802,0.0,0.0,0.0,0.0,0.0,4.6556,0.0,0.0,0.0,0.0,5.2684,5.2684,0.0,5.4655,5.4238,5.4048,5.4276,5.492,5.492,5.4996,5.5185,5.5185,5.5678,5.6512,5.7118,5.7497,5.7725,5.8407,5.8786,5.903,5.9674,5.9902,5.9918,0.0,0.0,0.0,0.0,0.0,6.4955,6.4412,6.6647,6.8346,6.8205,6.8244,6.7936,6.709,6.6397,6.5667,6.4782,6.3243,6.2255,6.2101,6.1502,6.1161,6.1186,6.1395,6.1159,6.0418,5.8779,5.7104,0.0,0.0,5.1836,0.0,0.0,0.0,0.0,0.0,0.0,0.0,4.6601,4.6719,4.7305,4.6601,4.6289,4.6289,4.6289,4.6289,4.6289,4.6289,4.6228,4.6109,4.6095,4.6031,4.5964,4.5848,4.5807,4.5807,4.5807,4.5807,4.5807,4.5807,4.5807,4.5807,4.5807,4.5807,4.5807,4.5807,4.5807,4.58,4.5793,4.6177,4.674,4.7552,4.8922,5.0182,0.0,0.0,0.0,0.0,0.0,0.0,0.0,0.0,0.0,0.0,5.0099,0.0,0.0,4.8275,0.0,0.0,0.0,0.0,4.7567,0.0,5.3594,5.3594,5.4465,5.5261,5.5943,5.5185,5.4844,5.492,5.492,5.5337,5.6095,5.6095,5.655,5.727,5.7384,5.7876,5.8613,5.8688,5.9143,5.9788,5.9864,5.9902,5.9902,0.0,0.0,0.0,0.0,0.0,0.0,0.0,6.6179,6.6513,6.5474,6.6667,6.709,6.5743,6.532,6.4551,6.3205,6.2486,6.187,6.1358,6.1026,6.0964,6.1179,6.1285,6.0794,5.9637,5.8974,5.7261,0.0,0.0,0.0,0.0,0.0,0.0,0.0,0.0,4.6211,4.6055,4.6211,4.6211,4.6055,4.6211,4.6289,4.6289,4.6289,4.6289,4.6289,4.6289,4.624,4.6153,4.6115,4.6008,4.588,4.5821,4.5807,4.5807,4.5807,4.5807,4.5807,4.5807,4.5807,4.5807,4.5807,4.5807,4.5807,4.5807,4.5807,4.5807,4.5807,4.663,4.7785,4.9089,5.0063,5.113,0.0,0.0,0.0,0.0,0.0,0.0,0.0,0.0,0.0,0.0,0.0,0.0,0.0,0.0,0.0,0.0,0.0,0.0,4.8907,0.0,5.2684,5.3707,5.5034,5.5868,5.6209,5.6323,5.6398,5.6398,5.6398,5.6588,5.6929,5.746,5.7876,5.8218,5.871,5.9089,5.9447,5.9447,5.9636,5.9902,5.9902,5.9902,5.9902,6.101,0.0,6.2025,0.0,6.4221,6.4137,6.5026,6.5128,6.4705,6.3474,6.4859,6.5513,6.4359,6.4012,6.3397,6.2216,6.187,6.1447,6.0819,6.0781,6.0923,6.1232,6.0967,0.0,5.9484,5.9016,5.7457,5.4765,5.5117,0.0,0.0,0.0,0.0,0.0,4.6133,4.6094,4.5781,4.6133,4.6094,4.5781,4.6172,4.6289,4.6289,4.6289,4.6289,4.6289,4.6289,4.6241,4.616,4.6118,4.5978,4.5807,4.5807,4.5807,4.5807,4.5807,4.5807,4.5807,4.5807,4.5807,4.5807,4.5807,4.6,4.6116,4.5845,4.6,4.6194,4.6194,4.7319,4.8797,5.0218,5.1138,5.2126,5.3485,0.0,0.0,0.0,0.0,0.0,0.0,4.804,4.7694,4.6257,4.7179,0.0,0.0,0.0,0.0,0.0,0.0,0.0,0.0,0.0,0.0,0.0,5.5701,5.655,5.655,5.7118,5.7384,5.7422,5.7649,5.7763,5.7839,5.8672,5.9051,5.9105,5.9674,5.9902,5.9902,5.9902,5.9902,5.9902,5.9902,6.0037,6.0226,6.1339,6.1786,6.2358,6.3192,6.3308,6.3308,6.3308,6.332,6.332,6.3308,6.332,6.3346,6.332,6.2589,6.2139,6.2101,6.132,6.0819,6.0781,6.0781,6.0943,0.0,0.0,6.0126,6.0388,5.8748,5.746,5.6562,0.0,0.0,5.2617,0.0,4.8437,4.7539,4.668,4.6758,4.75,4.6641,4.6797,4.75,4.6641,4.6289,4.6289,4.6289,4.6289,4.6289,4.6289,4.6191,4.6102,4.6102,4.5978,4.5807,4.5807,4.5807,4.5807,4.5807,4.5807,4.5807,4.5807,4.5807,4.5807,4.5807,4.6464,4.6844,4.6,4.6464,4.7076,4.7076,4.8329,4.9652,5.0538,5.1896,5.3072,5.3598,0.0,0.0,0.0,0.0,0.0,0.0,5.0766,5.0499,4.7046,4.8309,0.0,0.0,0.0,0.0,0.0,0.0,0.0,4.9421,5.2821,0.0,5.4613,5.6434,5.7384,5.7384,5.7384,5.7384,5.7422,5.8293,5.8672,5.871,5.956,5.9885,5.9885,5.9902,5.9902,5.9902,5.9902,5.9902,5.9902,5.9902,6.0378,6.1098,6.1748,6.2002,6.2358,6.3166,6.3308,6.3128,6.2551,6.2935,6.2897,6.1743,6.2089,6.2243,6.1666,6.1897,6.187,0.0,6.0973,6.0781,0.0,6.0892,6.1044,6.1272,6.1105,6.0828,6.0427,5.988,5.8632,5.6601,0.0,0.0,0.0,5.043,4.8672,4.6719,4.7031,4.7344,4.7578,4.7305,4.7344,4.7578,4.7305,4.6836,4.6289,4.6289,4.6289,4.6289,4.6243,4.6167,4.6091,4.6035,4.5914,4.5807,4.5807,4.5807,4.5807,4.5807,4.5807,4.5807,4.5807,4.6232,4.6689,4.6689,4.7347,4.7927,4.7657,4.8237,4.9204,5.0326,5.0876,5.178,5.3822,5.3847,5.404,5.5372,5.5122,0.0,0.0,0.0,0.0,0.0,4.8677,4.8396,4.6233,4.8,0.0,0.0,0.0,0.0,0.0,0.0,0.0,0.0,5.3672,0.0,5.6295,5.7608,5.8293,5.8293,5.8824,5.9089,5.9089,5.9393,5.9522,5.9506,5.9788,5.9902,5.9902,5.9902,5.9902,5.9902,5.9902,5.9902,5.9961,6.0508,6.0871,6.1174,6.1512,6.1601,6.1781,6.2281,6.2358,6.2204,6.1678,6.205,6.1973,6.0935,6.1323,6.1467,6.091,6.1407,0.0,6.092,6.0892,6.0943,6.0974,6.1087,6.12,6.1378,6.1144,6.082,6.0429,5.9765,0.0,5.7109,5.6992,5.5195,5.1875,5.1055,4.9453,4.7305,4.7851,4.7891,4.7617,4.7617,4.7577,4.7573,4.7573,4.7413,4.7168,4.7168,4.7168,4.7126,4.6752,4.6586,4.6511,4.645,4.6383,4.6348,4.6651,4.6767,4.6658,4.6,4.6039,4.631,4.631,4.6922,4.7579,4.7579,4.8469,4.9436,4.9745,5.0248,5.0945,5.1997,5.2387,5.3252,5.5471,5.5082,5.4982,5.6539,5.5564,5.416,5.2855,0.0,0.0,0.0,0.0,0.0,0.0,4.8733,5.0123,0.0,0.0,0.0,0.0,0.0,0.0,5.2994,5.4606,0.0,5.7578,5.863,5.9143,5.9181,5.9674,5.9902,5.9902,5.9902,5.9902,5.9902,5.9902,5.9902,5.9902,5.9902,5.9902,5.9923,6.0243,6.0357,6.0454,6.1288,6.178,6.2122,6.0781,6.0781,6.0781,0.0,6.0781,0.0,6.0831,6.0804,6.0816,6.0827,6.0943,6.1009,6.1023,6.1204,6.1239,6.1065,0.0,0.0,0.0,6.1295,6.1359,6.1501,6.0726,6.0366,6.0508,5.8906,5.8008,5.789,5.6133,5.4453,5.2851,5.1914,5.0625,4.9062,4.9023,4.8515,4.7773,4.7773,4.7727,4.7656,4.7656,4.8053,4.8616,4.8616,4.8616,4.8499,4.7681,4.7358,4.7273,4.7262,4.7223,4.7308,4.8121,4.8392,4.8082,4.6464,4.6542,4.7192,4.7192,4.7811,4.8508,4.8546,4.9861,5.1323,5.2182,5.2384,5.2422,5.2461,5.3149,5.4254,5.5845,5.5835,5.5938,5.7133,5.5775,5.4215,5.317,0.0,0.0,0.0,0.0,0.0,0.0,5.0488,5.1174,0.0,0.0,0.0,0.0,0.0,5.3084,5.3045,5.5615,5.7444,5.8429,5.9424,5.9902,5.9902,5.9902,5.9902,5.9902,5.9902,5.9902,5.9902,5.9902,5.9902,5.9902,5.9902,5.9902,5.9961,6.0811,6.1098,6.1212,6.2159,6.2938,6.362,0.0,0.0,6.0781,6.0781,6.0781,6.0843,6.0877,6.0923,6.0963,6.1,6.1159,6.122,6.1227,6.1283,6.1339,6.1392,6.1306,6.1253,6.1283,6.1387,6.1481,6.1501,6.139,6.1365,6.1406,6.0351,5.918,5.789,5.6133,5.5078,5.4648,5.3125,5.1836,5.0781,5.0156,4.9724,4.9435,4.9435,4.9371,4.9312,4.9312,4.9028,4.8616,4.8616,4.8616,4.8569,4.8307,4.8222,4.8188,4.8128,4.8111,4.8121,4.8314,4.8392,4.8314,4.7927,4.7927,4.8082,4.8082,4.874,4.9552,5.0163,5.1602,5.3111,5.4,5.4194,5.4349,5.4967,5.578,5.6636,5.7379,5.7313,5.7183,5.7361,5.5605,5.3795,5.2595,5.1855,0.0,0.0,5.1396,5.2231,5.1345,5.2747,5.3518,0.0,0.0,0.0,0.0,5.5245,5.5822,5.4539,5.6649,5.8238,5.9101,5.9622,5.9902,5.9902,5.9902,5.9902,5.9902,5.9902,5.9902,5.9902,5.9902,5.9902,5.9902,5.9902,5.9902,5.9961,6.0811,6.1098,6.1288,6.2766,6.3431,6.3696,6.0781,6.0781,6.0816,6.0888,6.091,6.0923,6.1068,6.1095,6.1135,6.1211,6.1295,6.1369,6.1383,6.1432,6.1512,6.1582,6.1491,6.1456,6.1491,6.1568,6.1584,6.1584,6.1287,6.1094,6.1094,5.9883,5.8633,5.7305,5.6367,5.5703,5.5273,5.3906,5.2812,5.1907,5.1087,5.0408,4.9931,4.9931,4.9928,4.9844,4.9844,4.9775,4.9643,4.9643,4.9643,4.9598,4.9188,4.9046,4.9032,4.9001,4.8972,4.9049,4.9436,4.9823,5.0132,5.0132,4.9861,4.9629,5.0016,5.0751,5.1718,5.2909,5.3945,5.4856,5.5715,5.6191,5.6482,5.6521,5.7216,5.7969,5.8599,5.8145,5.7624,5.7519,5.5287,5.3187,5.2177,5.1457,0.0,5.0748,5.2468,5.3541,5.3172,5.4572,5.5278,5.4689,5.5772,0.0,5.4983,5.6915,5.7327,5.577,5.7641,5.8894,5.9418,5.9753,5.9902,5.9902,5.9902,5.9902,5.9902,5.9902,5.9902,5.9923,6.0264,6.0243,5.9923,6.0302,6.0454,6.053,6.1363,6.1932,6.2387,6.3713,6.4206,6.4282,6.06,6.0712,6.0877,6.0993,6.1039,6.1087,6.1272,6.131,6.1328,6.1323,6.1456,6.1546,6.1517,6.163,6.1718,6.1719,6.1631,6.1627,6.1719,6.1719,6.164,6.1523,6.0781,6.0351,6.0234,5.8711,5.7461,5.6601,5.6601,5.6211,5.5468,5.4608,5.3664,5.273,5.1872,5.094,5.0084,5.0084,5.0029,4.995,4.995,5.035,5.0898,5.0898,5.0898,5.0821,5.0287,5.0094,5.0094,5.0248,5.0287,5.0403,5.1091,5.1796,5.2422,5.2539,5.2066,5.1641,5.2221,5.3111,5.4263,5.5801,5.6268,5.6541,5.7245,5.7902,5.8209,5.7515,5.8016,5.8806,5.9403,5.8553,5.7758,5.7739,5.4985,5.2669,5.2182,0.0,5.1045,5.1961,5.3703,5.4828,5.4883,5.6156,5.6722,5.6108,5.7117,5.7525,5.6878,5.8029,5.8148,5.6929,5.8447,5.9345,5.9598,5.9803,5.9902,5.9902,5.9902,5.9902,5.9902,5.9902,5.9961,6.0129,6.0795,6.0795,6.034,6.1022,6.1288,6.1363,6.2235,6.2976,6.3713,6.4585,6.4888,6.4888,5.9771,6.0441,6.1009,6.107,6.1174,6.1266,6.1312,6.1417,6.151,6.1543,6.1626,6.1678,6.1678,6.1679,6.1719,6.1719,6.1679,6.1679,6.1719,6.1719,6.1367,6.0625,6.0469,6.0078,5.9414,5.8398,5.7461,5.6601,5.6601,5.6482,5.6302,5.5404,5.4521,5.3596,5.2696,5.1793,5.0914,5.0914,5.0843,5.0743,5.0743,5.0805,5.0898,5.0898,5.0898,5.0975,5.1602,5.1796,5.1912,5.2647,5.2917,5.2917,5.3072,5.3188,5.342,5.4194,5.431,5.4078,5.3459,5.4439,5.5834,5.68,5.7526,5.8075,5.8191,5.8297,5.8364,5.8248,5.8904,5.9447,5.9204,5.8797,5.8433,5.8432,5.5197,5.2751,5.2965,0.0,5.2381,5.2706,5.5416,5.7305,5.7489,5.7733,5.8334,5.9378,5.8424,5.8251,5.9292,5.8958,5.8586,5.8368,5.8813,5.9215,5.9598,5.9803,5.9902,5.9902,5.9902,5.9902,5.9902,5.9902,6.0281,6.0909,6.106,6.1439,6.2008,6.2159,6.2197,6.2273,6.309,6.3469,6.3713,6.4585,6.4888,6.4888,6.0407,6.0856,6.1179,6.1289,6.1378,6.1431,6.1504,6.1566,6.1621,6.1632,6.1678,6.1719,6.1719,6.1719,6.1719,6.1719,6.1719,6.1719,6.1719,6.125,6.082,6.043,5.9531,5.8672,5.7812,5.7851,5.746,5.6553,5.6553,5.6497,5.6365,5.5503,5.4605,5.3662,5.2796,5.1874,5.097,5.097,5.0966,5.0898,5.0898,5.1169,5.1602,5.1602,5.1873,5.2337,5.2763,5.2879,5.2956,5.3343,5.3498,5.3498,5.3498,5.3807,5.4271,5.4697,5.5432,5.6042,5.559,5.6414,5.7554,5.8336,5.8788,5.9055,5.9055,5.938,5.9551,5.9089,5.9705,6.0165,5.9829,5.9173,5.8494,5.7856,5.4938,0.0,0.0,5.3049,5.3126,5.4559,5.6441,5.7839,5.8385,5.8913,5.9454,6.0017,5.9895,5.9818,5.9887,5.9552,5.9144,5.8735,5.8922,5.914,5.9456,5.9508,5.965,5.9736,6.0207,6.0257,5.9923,6.0833,6.1174,6.1153,6.2046,6.2425,6.2408,6.2862,6.3052,6.309,6.3469,6.3886,6.4358,6.4775,6.4888,6.4888,6.0864,6.1194,6.1373,6.151,6.1537,6.1566,6.1677,6.1717,6.1717,6.1719,6.1719,6.1719,6.1719,6.1719,6.1719,6.1719,6.1719,6.1719,6.1719,6.0898,6.0312,6.0117,5.8515,5.7265,5.6601,5.7226,5.7218,5.6489,5.6477,5.64,5.6276,5.557,5.4775,5.3845,5.3178,5.2257,5.1215,5.1215,5.1091,5.0937,5.113,5.1602,5.2229,5.2422,5.2917,5.3536,5.373,5.3807,5.3846,5.4,5.4078,5.4116,5.431,5.4851,5.5432,5.5625,5.6738,5.788,5.7805,5.8279,5.8934,5.9791,5.9931,5.9887,5.9887,6.0354,6.0589,5.9935,6.0426,6.0815,6.0373,5.9543,5.8597,5.7725,0.0,0.0,0.0,5.4,5.4166,5.606,5.7175,5.8029,5.8661,5.94,5.9851,5.9887,6.048,6.0559,5.9924,5.9738,5.9441,5.8995,5.8997,5.9063,5.9215,5.9272,5.9495,5.9917,6.0597,6.0739,6.053,6.1818,6.2159,6.1743,6.3031,6.3355,6.3031,6.3658,6.3886,6.3886,6.3886,6.432,6.4888,6.4888,6.4888,6.4926,6.0158,6.0892,6.1513,6.1576,6.1658,6.1677,6.1718,6.1718,6.1717,6.1719,6.1719,6.1719,6.1719,6.1719,6.1719,6.1719,6.1719,6.1719,6.1719,6.0898,6.0078,5.9336,5.7617,5.668,5.6601,5.6588,5.6569,5.6489,5.6393,5.6271,5.6188,5.6149,5.561,5.4713,5.4636,5.3669,5.2113,5.2113,5.1641,5.0975,5.1796,5.2152,5.2306,5.3111,5.342,5.3614,5.4426,5.4697,5.4813,5.5548,5.5818,5.5973,5.6777,5.7048,5.728,5.8062,5.8924,5.9621,5.9621,5.958,5.9727,6.0602,6.0762,6.0716,6.0716,6.0742,6.0781,6.0704,6.1108,6.1225,6.0446,5.968,5.9212,5.9317,0.0,0.0,5.6257,5.6198,5.6097,5.6283,5.7695,5.8624,5.8698,5.8772,5.9127,5.985,5.9255,5.9181,5.9887,5.9181,5.9107,5.9812,5.9295,5.9004,5.9024,5.9197,5.9814,6.0785,6.0861,6.1382,6.2218,6.2332,6.2749,6.3393,6.3562,6.3999,6.4737,6.4775,6.4813,6.4813,6.4813,6.485,6.4888,6.4888,6.4888,6.5002,6.0957,6.1375,6.1624,6.167,6.1677,6.1875,6.2422,6.2031,6.1875,6.2422,6.2031,6.1719,6.1719,6.1719,6.1719,6.1719,6.1719,6.1719,6.1719,6.0898,5.9805,5.8437,5.7226,5.6561,5.6549,5.6497,5.6455,5.631,5.6269,5.6181,5.6071,5.6071,5.5614,5.4813,5.4813,5.4116,5.2956,5.2422,5.2298,5.2492,5.226,5.284,5.3846,5.4194,5.4619,5.5084,5.5432,5.5548,5.5586,5.5896,5.6351,5.6854,5.7202,5.7675,5.8294,5.9145,5.9553,5.9871,6.0411,6.0464,6.0476,6.0789,6.0843,6.0781,6.0781,6.0622,6.0609,6.1132,6.12,6.1023,6.0505,6.0602,6.0378,5.9193,0.0,5.686,5.7779,5.6975,5.6655,5.7695,5.8326,5.8698,5.8698,5.9144,5.9589,5.9887,6.011,6.037,6.0704,6.0407,6.0147,5.9924,6.0194,6.0348,6.0348,6.0574,6.0941,6.1469,6.2089,6.2402,6.2446,6.3486,6.381,6.362,6.4168,6.4585,6.4888,6.4888,6.4888,6.4888,6.4888,6.4888,6.4888,6.4888,6.5229,6.5666,6.1556,6.1716,6.1717,6.1718,6.1719,6.1914,6.25,6.207,6.1914,6.25,6.207,6.1719,6.1719,6.1719,6.1719,6.1719,6.1719,6.1719,6.1719,6.0624,5.9334,5.7969,5.703,5.6553,5.6489,5.6452,5.6333,5.6214,5.6167,5.6087,5.6012,5.6012,5.5702,5.52,5.52,5.4688,5.3829,5.3249,5.3163,5.3417,5.3069,5.3688,5.477,5.504,5.5504,5.5959,5.5959,5.5959,5.6007,5.6295,5.6759,5.7387,5.7937,5.872,5.9493,6.0112,6.0191,6.0205,6.0668,6.0754,6.0722,6.0634,6.0751,6.0878,6.0878,6.0867,6.105,6.1606,6.1641,6.1464,6.098,6.1444,6.1375,5.9743,5.9032,5.8846,5.9404,5.8549,5.8141,5.8995,5.9329,5.9404,5.9107,5.9812,6.0333,6.0333,6.0853,6.1187,6.1187,6.1187,6.1038,6.0704,6.1261,6.1707,6.1967,6.1582,6.1661,6.2201,6.2862,6.3217,6.3203,6.4396,6.4585,6.4055,6.4661,6.4888,6.4888,6.4888,6.4888,6.4888,6.4888,6.4888,6.4926,6.5192,6.5646,6.6141,6.171,6.1714,6.1717,6.1717,6.1718,6.1719,6.1719,6.1719,6.1719,6.1719,6.1719,6.1719,6.1719,6.1719,6.1719,6.1719,6.1719,6.1719,6.1719,6.0026,5.8694,5.793,5.7016,5.6487,5.6487,5.63,5.6214,5.6214,5.6056,5.6012,5.6012,5.6012,5.6012,5.6012,5.6012,5.5522,5.4705,5.4705,5.4167,5.3388,5.4236,5.4583,5.4699,5.5586,5.5895,5.5895,5.5895,5.5895,5.602,5.6936,5.7225,5.7544,5.9329,6.046,6.107,6.107,6.1041,6.0894,6.0507,6.0365,6.0293,6.0293,6.0654,6.1006,6.1006,6.1633,6.2184,6.2184,6.256,6.2668,6.1842,6.2097,6.2153,6.1336,6.1224,6.1224,6.1187,6.1187,6.089,6.0035,6.0667,6.0853,5.9977,6.0704,6.1187,6.1187,6.1224,6.1224,6.1187,6.1224,6.1596,6.2376,6.2413,6.2784,6.3602,6.2041,6.1831,6.3027,6.3027,6.3691,6.4888,6.4888,6.4888,6.4888,6.4926,6.4926,6.4888,6.4926,6.4926,6.4888,6.4888,6.4888,6.5002,6.5798,6.6101,6.633,6.1561,6.1718,6.1718,6.1718,6.1719,6.1914,6.2539,6.2109,6.1914,6.2539,6.207,6.1719,6.1719,6.1719,6.1719,6.1719,6.1719,6.1678,6.1624,6.0558,5.9524,5.864,5.7177,5.6359,5.6285,5.6218,5.6167,5.6048,5.6037,5.6012,5.6012,5.6012,5.6012,5.6012,5.6012,5.587,5.5593,5.4975,5.4862,5.5085,5.4738,5.4969,5.5548,5.5779,5.5895,5.5972,5.6551,5.6782,5.6946,5.7766,5.8462,5.9235,6.0326,6.0629,6.0615,6.0615,6.038,6.0108,6.0021,6.0199,6.0513,6.0725,6.0898,6.1157,6.1709,6.184,6.2034,6.2579,6.264,6.2646,6.2982,6.317,6.297,6.219,6.2041,6.1856,6.1298,6.1187,6.1113,6.0853,6.1038,6.1113,6.0853,6.1038,6.1187,6.1187,6.1707,6.1819,6.1224,6.2264,6.2747,6.2413,6.297,6.3379,6.3602,6.3258,6.3297,6.3609,6.3773,6.4142,6.469,6.469,6.4763,6.4926,6.5495,6.5419,6.4926,6.5495,6.5419,6.4888,6.4888,6.4888,6.5002,6.5798,6.6389,6.6843,6.1523,6.1719,6.1719,6.1719,6.1719,6.1875,6.2422,6.2031,6.1875,6.2422,6.2031,6.1719,6.1719,6.1719,6.1719,6.1719,6.1677,6.1624,6.1534,6.0683,5.9936,5.9366,5.7953,5.6906,5.6214,5.6502,5.6622,5.6506,5.6863,5.6863,5.6506,5.6506,5.6313,5.6003,5.5986,5.5989,5.5904,5.5383,5.5384,5.5758,5.5257,5.5334,5.5835,5.5835,5.6028,5.6365,5.6731,5.7187,5.7752,5.8446,5.9276,6.0113,6.0614,6.0493,6.0196,6.0196,5.9998,5.9814,6.0025,6.0279,6.068,6.1394,6.1563,6.1676,6.2165,6.2383,6.2687,6.3509,6.3258,6.323,6.4382,6.4048,6.3565,6.3379,6.3082,6.271,6.2227,6.2153,6.2041,6.1707,6.1967,6.2041,6.1707,6.1967,6.2153,6.2153,6.2599,6.2673,6.219,6.3082,6.3379,6.2896,6.3379,6.375,6.4062,6.4182,6.4314,6.4364,6.4175,6.4397,6.4971,6.4709,6.486,6.5273,6.5535,6.5533,6.5419,6.5912,6.5798,6.5419,6.576,6.5874,6.5988,6.6783,6.726,6.7613,6.1523,6.1719,6.1719,6.1719,6.1719,6.1719,6.1719,6.1719,6.1719,6.1719,6.1719,6.1719,6.1719,6.1679,6.1679,6.1679,6.1623,6.1534,6.1408,6.0598,6.0092,6.0,5.9163,5.7984,5.6466,5.7055,5.7434,5.7434,5.8217,5.8178,5.7434,5.7434,5.6932,5.6119,5.6114,5.602,5.5885,5.5845,5.5756,5.5703,5.5703,5.5703,5.5703,5.5758,5.6247,5.6917,5.6754,5.7392,5.8407,5.8962,5.9676,6.0341,6.0354,6.0113,5.9847,5.9924,5.9884,5.9895,6.0415,6.0642,6.0975,6.2092,6.245,6.2524,6.2524,6.3082,6.3802,6.4619,6.4211,6.4233,6.5905,6.4902,6.4085,6.4805,6.4233,6.3653,6.3602,6.3602,6.3342,6.2599,6.323,6.3416,6.271,6.3342,6.3825,6.3825,6.3825,6.3788,6.3691,6.3691,6.3676,6.3602,6.3676,6.4085,6.4768,6.4879,6.5016,6.5201,6.4454,6.4599,6.5578,6.5027,6.5162,6.586,6.5368,6.5555,6.6179,6.6255,6.6255,6.6255,6.705,6.7353,6.741,6.8243,6.8412,6.8326,6.1523,6.1719,6.1719,6.1719,6.1719,6.1719,6.1719,6.1719,6.1719,6.1719,6.1719,6.1719,6.1719,6.1632,6.1619,6.1619,6.153,6.1403,6.1324,6.1129,6.0708,5.9951,5.9714,5.9124,5.8084,5.8243,5.8333,5.8333,5.8488,5.8488,5.8333,5.8333,5.7812,5.6925,5.6955,5.6512,5.5807,5.5797,5.5756,5.5703,5.5703,5.5703,5.5758,5.6177,5.6435,5.6741,5.7733,5.8228,5.857,5.9384,5.9771,5.9908,5.9931,5.968,5.9472,6.0188,6.0135,6.0065,6.082,6.1523,6.2039,6.2324,6.2896,6.3342,6.3342,6.349,6.3802,6.4619,6.4656,6.5028,6.6722,6.6239,6.5645,6.5794,6.5125,6.4322,6.3713,6.3602,6.3565,6.3379,6.4025,6.447,6.4308,6.5051,6.5571,6.5571,6.5571,6.5274,6.4605,6.4545,6.4248,6.3616,6.4233,6.4619,6.4805,6.5496,6.5854,6.5863,6.5714,6.5814,6.6185,6.6063,6.617,6.6524,6.7016,6.7063,6.6881,6.7523,6.7409,6.6805,6.6994,6.7009,6.6962,6.7772,6.7926,6.7838,6.1523,6.1719,6.1719,6.1719,6.1719,6.1719,6.1719,6.1719,6.1719,6.1719,6.1677,6.1632,6.1632,6.1559,6.1506,6.1465,6.1373,6.1318,6.1197,6.1189,6.0993,6.0508,6.046,6.0267,5.9803,5.9803,5.9609,5.9223,5.9591,5.9543,5.9156,5.9128,5.8636,5.7757,5.7352,5.6878,5.6403,5.5959,5.5735,5.5703,5.5703,5.5868,5.6125,5.6397,5.69,5.7528,5.8056,5.8504,5.8933,5.9566,5.9652,5.952,5.9534,5.9514,5.9619,6.0068,6.0352,6.0704,6.1558,6.2079,6.2487,6.2896,6.3305,6.3713,6.4062,6.4173,6.4531,6.5733,6.5682,6.5942,6.7577,6.6908,6.6239,6.6611,6.5645,6.4656,6.4211,6.4173,6.4173,6.4173,6.4916,6.5422,6.5422,6.5831,6.6091,6.6091,6.6091,6.5905,6.5459,6.5028,6.4828,6.4791,6.4828,6.5176,6.5956,6.6462,6.6871,6.7243,6.6462,6.6384,6.6797,6.6523,6.6671,6.7155,6.7262,6.7389,6.7454,6.7906,6.783,6.7492,6.7906,6.7994,6.7926,6.8377,6.8375,6.8203,6.1523,6.1719,6.1719,6.1679,6.1679,6.1678,6.1637,6.1636,6.1636,6.1636,6.1616,6.1551,6.1551,6.1448,6.134,6.1281,6.1267,6.1205,6.1127,6.1118,6.1118,6.1118,6.1118,6.1118,6.1118,6.1109,6.076,6.0103,6.0713,6.0654,5.9988,5.9938,5.9444,5.8585,5.7685,5.7317,5.723,5.6302,5.5951,5.6022,5.6022,5.6292,5.6633,5.6744,5.7468,5.8396,5.8201,5.8559,5.9159,5.9485,5.9379,5.9103,5.9103,5.9468,5.9903,6.0072,6.0741,6.1596,6.2413,6.2636,6.2822,6.3602,6.3825,6.4025,6.499,6.499,6.5274,6.6945,6.676,6.676,6.8246,6.7428,6.6685,6.7205,6.6105,6.5176,6.5051,6.5028,6.5028,6.5028,6.5794,6.6351,6.65,6.6537,6.6537,6.6537,6.6537,6.6462,6.6314,6.5645,6.5496,6.6091,6.5534,6.5882,6.7317,6.7465,6.7837,6.8506,6.7168,6.6871,6.7503,6.7007,6.7135,6.7732,6.7223,6.7407,6.805,6.79,6.7937,6.8125,6.8709,6.8966,6.9094,6.9094,6.8923,6.8717,6.1523,6.1719,6.1678,6.1619,6.1614,6.1562,6.146,6.1452,6.1452,6.1452,6.1439,6.1431,6.1431,6.1379,6.1274,6.1134,6.1116,6.1107,6.1118,6.1118,6.1118,6.1118,6.1118,6.1118,6.1118,6.1041,6.0973,6.0857,6.0935,6.0943,6.0853,6.0843,6.0348,5.9419,5.8533,5.8154,5.8099,5.7214,5.7078,5.7416,5.7416,5.7315,5.7179,5.764,5.7898,5.8108,5.8475,5.8669,5.8781,5.8842,5.8821,5.8781,5.8781,5.9297,6.0051,6.0815,6.1596,6.2413,6.323,6.3453,6.3639,6.4433,6.4619,6.5028,6.6611,6.5868,6.5274,6.6945,6.7205,6.7428,6.8357,6.8296,6.7961,6.7391,6.7131,6.6722,6.6017,6.5942,6.5942,6.5942,6.6648,6.7428,6.8134,6.8208,6.8208,6.8208,6.8208,6.7874,6.7168,6.7057,6.6722,6.6128,6.6685,6.7094,6.7317,6.7986,6.8394,6.8481,6.8258,6.8246,6.8357,6.827,6.8294,6.8368,6.8281,6.8423,6.8593,6.792,6.8032,6.8593,6.8032,6.812,6.8602,6.8602,6.8578,6.8554,6.1476,6.163,6.1619,6.1524,6.1471,6.146,6.1417,6.1412,6.1412,6.1412,6.1362,6.1355,6.1355,6.1267,6.1169,6.1127,6.1118,6.1118,6.1118,6.1118,6.1118,6.1118,6.1051,6.1041,6.1041,6.1021,6.098,6.0948,6.0948,6.0938,6.0944,6.041,5.9926,5.9469,5.8171,5.7724,5.7902,5.7059,5.6969,5.7399,5.7399,5.7504,5.7664,5.7919,5.8184,5.8495,5.9132,5.9107,5.8772,5.9218,5.9069,5.8698,5.8698,5.9589,6.0704,6.1113,6.2116,6.3267,6.4025,6.427,6.447,6.5348,6.5534,6.5831,6.7057,6.676,6.6513,6.7725,6.7986,6.8097,6.8407,6.8481,6.837,6.8023,6.7614,6.7205,6.6834,6.676,6.6945,6.7391,6.7763,6.8134,6.8444,6.8481,6.8481,6.8481,6.8481,6.8333,6.7986,6.754,6.7354,6.7465,6.7354,6.754,6.7986,6.8296,6.8481,6.8481,6.8481,6.8481,6.8481,6.8481,6.8481,6.8481,6.8481,6.8554,6.8599,6.8264,6.8301,6.8599,6.8264,6.8267,6.8481,6.8481,6.8481,6.8481]}]]